Darstellungsparameter: Aktuell verwendete Einstellungen:
Skalierung der Graphiken ... ?
xyx+y,   Skalierungsfaktor:      Skalierung: Modus: x, Faktor: 1
Darstellungszeitraum ... ?
Vom - - bis: - -   Zeitraum: 18.03.2020 - 31.03.2020
Min/Max/Avg-Anzeige ... ?
Zeige MMA aktuell
Zeige MMA Monat
Zeige MMA alles
Zeige --A aktuell
Zeige --A Monat
Zeige --A alles
Keine MMA-Anzeige
MMA:
Keine MMA-Graphiken
MMA-Basis: 18.03.2020 - 31.03.2020
Quicknavigation für Darstellung... ?
Tage:      1T, 2T, 3T, 5T -1T -2T -3T -5T +1T +2T +3T +5T
Wochen: 1W, 2W, 3W -1W -2W -3W +1W +2W +3W
Monate: 1M, 3M, 6M -1M -3M -6M +1M +3M +6M
Jahre:    1J, 3J, 5J, 10J -1J -3J -5J -10J +1J +3J +5J +10J
Nutze für die Darstellung ... ?
Originaldaten oder Mittelwerte auf ...
Stundenbasis Tagesbasis Wochenbasis
Monatsbasis Jahresbasis      Datenbasis: Original-Daten
Darstellen als:
Statistik (Auto) Statistik J:M      Darstellung:
Zur Graphik,    zurück zur Übersicht aller Sensoren.
 
Tabellarische Datenbersicht: ?
 
Sensor: Nr:Datum:Temp:Feuchte:
Aussen-T/F 1 18-03-2020 00:09:17 5.9 C 43 %
2 18-03-2020 00:19:17 5.8 C 44 %
3 18-03-2020 00:29:17 5.9 C 44 %
4 18-03-2020 00:39:17 5.8 C 44 %
5 18-03-2020 00:49:17 6 C 44 %
6 18-03-2020 00:59:17 6 C 43 %
7 18-03-2020 01:09:17 5.7 C 44 %
8 18-03-2020 01:19:17 5.6 C 44 %
9 18-03-2020 01:29:17 5.3 C 44 %
10 18-03-2020 01:39:17 5.6 C 45 %
11 18-03-2020 01:49:17 5.3 C 45 %
12 18-03-2020 01:59:17 5.6 C 46 %
13 18-03-2020 02:09:17 5.1 C 44 %
14 18-03-2020 02:19:17 4.8 C 45 %
15 18-03-2020 02:29:17 4.8 C 45 %
16 18-03-2020 02:39:17 4.6 C 46 %
17 18-03-2020 02:49:18 4.3 C 46 %
18 18-03-2020 02:59:18 4.3 C 46 %
19 18-03-2020 03:09:18 4.2 C 46 %
20 18-03-2020 03:19:17 4.2 C 46 %
21 18-03-2020 03:29:17 4.1 C 46 %
22 18-03-2020 03:39:17 4 C 46 %
23 18-03-2020 03:49:17 3.8 C 47 %
24 18-03-2020 03:59:17 3.8 C 47 %
25 18-03-2020 04:09:17 3.8 C 47 %
Sensor: Nr:Datum:Temp:Feuchte:
Aussen-T/F 26 18-03-2020 04:19:18 3.8 C 47 %
27 18-03-2020 04:29:18 3.7 C 47 %
28 18-03-2020 04:39:18 3.7 C 47 %
29 18-03-2020 04:49:18 3.6 C 47 %
30 18-03-2020 04:59:18 3.6 C 47 %
31 18-03-2020 05:09:18 3.7 C 48 %
32 18-03-2020 05:19:18 3.8 C 48 %
33 18-03-2020 05:29:18 3.3 C 47 %
34 18-03-2020 05:39:18 3.2 C 47 %
35 18-03-2020 05:49:18 3.3 C 47 %
36 18-03-2020 05:59:18 3.1 C 47 %
37 18-03-2020 06:09:18 2.9 C 48 %
38 18-03-2020 06:19:17 3.3 C 47 %
39 18-03-2020 06:29:18 3.1 C 47 %
40 18-03-2020 06:39:18 3.1 C 47 %
41 18-03-2020 06:49:17 3.1 C 47 %
42 18-03-2020 06:59:18 3.6 C 47 %
43 18-03-2020 07:09:18 3.5 C 47 %
44 18-03-2020 07:19:17 3.4 C 47 %
45 18-03-2020 07:29:17 3.7 C 47 %
46 18-03-2020 07:39:17 3.9 C 47 %
47 18-03-2020 07:49:18 4 C 46 %
48 18-03-2020 07:59:18 4.9 C 46 %
49 18-03-2020 08:09:18 4.6 C 46 %
50 18-03-2020 08:19:18 4.5 C 46 %
Sensor: Nr:Datum:Temp:Feuchte:
Aussen-T/F 51 18-03-2020 08:29:18 4.7 C 46 %
52 18-03-2020 08:39:17 5 C 45 %
53 18-03-2020 08:49:18 5.3 C 46 %
54 18-03-2020 08:59:18 5.6 C 46 %
55 18-03-2020 09:09:17 6.7 C 45 %
56 18-03-2020 09:19:17 7.1 C 45 %
57 18-03-2020 09:29:17 8.5 C 45 %
58 18-03-2020 09:39:17 9.7 C 41 %
59 18-03-2020 09:49:18 10.5 C 40 %
60 18-03-2020 09:59:18 11 C 38 %
61 18-03-2020 10:09:18 11.1 C 38 %
62 18-03-2020 10:19:18 11.6 C 38 %
63 18-03-2020 10:29:18 11.6 C 37 %
64 18-03-2020 10:39:18 11.7 C 38 %
65 18-03-2020 10:49:18 12 C 36 %
66 18-03-2020 10:59:18 12.2 C 35 %
67 18-03-2020 11:09:18 12.7 C 35 %
68 18-03-2020 11:19:18 12.8 C 34 %
69 18-03-2020 11:29:18 13.3 C 34 %
70 18-03-2020 11:39:18 13.9 C 33 %
71 18-03-2020 11:49:17 14.7 C 32 %
72 18-03-2020 11:59:17 15.3 C 30 %
73 18-03-2020 12:09:18 15.8 C 30 %
74 18-03-2020 12:19:17 16.6 C 29 %
75 18-03-2020 12:29:18 17 C 27 %
Sensor: Nr:Datum:Temp:Feuchte:
Aussen-T/F 76 18-03-2020 12:39:18 17.8 C 26 %
77 18-03-2020 12:49:17 19.1 C 25 %
78 18-03-2020 12:59:17 19.8 C 20 %
79 18-03-2020 13:09:17 21 C 20 %
80 18-03-2020 13:19:17 21.2 C 20 %
81 18-03-2020 13:29:17 19.5 C 20 %
82 18-03-2020 13:39:18 17.7 C 20 %
83 18-03-2020 13:49:17 16.6 C 22 %
84 18-03-2020 13:59:17 16 C 22 %
85 18-03-2020 14:09:17 17.6 C 21 %
86 18-03-2020 14:19:17 16.7 C 20 %
87 18-03-2020 14:29:17 17.9 C 20 %
88 18-03-2020 14:39:18 18.5 C 20 %
89 18-03-2020 14:49:17 17.4 C 20 %
90 18-03-2020 14:59:17 17.4 C 20 %
91 18-03-2020 15:09:17 20.6 C 20 %
92 18-03-2020 15:19:18 17.9 C 20 %
93 18-03-2020 15:29:18 18.2 C 20 %
94 18-03-2020 15:39:18 17.7 C 20 %
95 18-03-2020 15:49:17 16.9 C 20 %
96 18-03-2020 15:59:17 16.7 C 21 %
97 18-03-2020 16:09:17 16.4 C 21 %
98 18-03-2020 16:19:17 16.4 C 22 %
99 18-03-2020 16:29:17 16.4 C 20 %
100 18-03-2020 16:39:17 16.5 C 20 %
Sensor: Nr:Datum:Temp:Feuchte:
Aussen-T/F 101 18-03-2020 16:49:18 16.2 C 21 %
102 18-03-2020 16:59:18 16.1 C 21 %
103 18-03-2020 17:09:17 16 C 21 %
104 18-03-2020 17:19:17 16 C 21 %
105 18-03-2020 17:29:17 15.7 C 22 %
106 18-03-2020 17:39:18 16 C 20 %
107 18-03-2020 17:49:17 16.3 C 20 %
108 18-03-2020 17:59:17 15.8 C 22 %
109 18-03-2020 18:09:17 15.4 C 22 %
110 18-03-2020 18:19:17 14.7 C 26 %
111 18-03-2020 18:29:17 13.7 C 26 %
112 18-03-2020 18:39:17 13.3 C 28 %
113 18-03-2020 18:49:17 12.7 C 30 %
114 18-03-2020 18:59:17 12 C 31 %
115 18-03-2020 19:09:17 11.7 C 32 %
116 18-03-2020 19:19:18 11.5 C 32 %
117 18-03-2020 19:29:18 10.5 C 34 %
118 18-03-2020 19:39:18 10.9 C 34 %
119 18-03-2020 19:49:18 11.1 C 34 %
120 18-03-2020 19:59:18 10.9 C 35 %
121 18-03-2020 20:09:18 10.6 C 35 %
122 18-03-2020 20:19:17 10.4 C 35 %
123 18-03-2020 20:29:17 10.4 C 35 %
124 18-03-2020 20:39:18 10 C 36 %
125 18-03-2020 20:49:17 9.7 C 37 %
Sensor: Nr:Datum:Temp:Feuchte:
Aussen-T/F 126 18-03-2020 20:59:17 9.7 C 37 %
127 18-03-2020 21:09:18 9.7 C 37 %
128 18-03-2020 21:19:17 9.6 C 37 %
129 18-03-2020 21:29:17 9.4 C 37 %
130 18-03-2020 21:39:17 9 C 37 %
131 18-03-2020 21:49:17 8.7 C 38 %
132 18-03-2020 21:59:17 8.4 C 39 %
133 18-03-2020 22:09:17 8.2 C 39 %
134 18-03-2020 22:19:17 8.1 C 40 %
135 18-03-2020 22:29:17 8 C 40 %
136 18-03-2020 22:39:17 8 C 40 %
137 18-03-2020 22:49:17 8.1 C 40 %
138 18-03-2020 22:59:17 8.2 C 40 %
139 18-03-2020 23:09:18 8.3 C 40 %
140 18-03-2020 23:19:17 8.1 C 40 %
141 18-03-2020 23:29:17 8 C 40 %
142 18-03-2020 23:39:18 8 C 40 %
143 18-03-2020 23:49:18 8.4 C 40 %
144 18-03-2020 23:59:18 8.9 C 40 %
145 19-03-2020 00:09:17 8.9 C 39 %
146 19-03-2020 00:19:18 8.9 C 38 %
147 19-03-2020 00:29:18 9 C 38 %
148 19-03-2020 00:39:18 9 C 38 %
149 19-03-2020 00:49:17 9.1 C 38 %
150 19-03-2020 00:59:17 9.1 C 38 %
Sensor: Nr:Datum:Temp:Feuchte:
Aussen-T/F 151 19-03-2020 01:09:18 9 C 38 %
152 19-03-2020 01:19:17 9.1 C 38 %
153 19-03-2020 01:29:17 9 C 38 %
154 19-03-2020 01:39:17 9 C 38 %
155 19-03-2020 01:49:17 8.9 C 38 %
156 19-03-2020 01:59:17 8.8 C 39 %
157 19-03-2020 02:09:18 8.7 C 39 %
158 19-03-2020 02:19:17 8.7 C 39 %
159 19-03-2020 02:29:17 8.6 C 39 %
160 19-03-2020 02:39:17 8.5 C 39 %
161 19-03-2020 02:49:18 8.5 C 39 %
162 19-03-2020 02:59:18 8.5 C 39 %
163 19-03-2020 03:09:18 8.5 C 39 %
164 19-03-2020 03:19:18 8.6 C 39 %
165 19-03-2020 03:29:18 8.5 C 39 %
166 19-03-2020 03:39:17 8.5 C 39 %
167 19-03-2020 03:49:18 8.4 C 39 %
168 19-03-2020 03:59:18 8.4 C 40 %
169 19-03-2020 04:09:18 8.4 C 40 %
170 19-03-2020 04:19:17 8.5 C 40 %
171 19-03-2020 04:29:17 8.5 C 39 %
172 19-03-2020 04:39:17 8.5 C 39 %
173 19-03-2020 04:49:18 8.5 C 39 %
174 19-03-2020 04:59:18 8.5 C 39 %
175 19-03-2020 05:09:18 8.6 C 39 %
Sensor: Nr:Datum:Temp:Feuchte:
Aussen-T/F 176 19-03-2020 05:19:18 8.9 C 38 %
177 19-03-2020 05:29:18 8.7 C 39 %
178 19-03-2020 05:39:18 8.6 C 39 %
179 19-03-2020 05:49:17 8.5 C 39 %
180 19-03-2020 05:59:18 8.4 C 39 %
181 19-03-2020 06:09:18 8.4 C 39 %
182 19-03-2020 06:19:17 8.3 C 40 %
183 19-03-2020 06:29:17 8.2 C 39 %
184 19-03-2020 06:39:17 8.1 C 40 %
185 19-03-2020 06:49:17 8.1 C 40 %
186 19-03-2020 06:59:17 8.2 C 40 %
187 19-03-2020 07:09:17 8.2 C 40 %
188 19-03-2020 07:19:17 8.5 C 40 %
189 19-03-2020 07:29:17 8.7 C 39 %
190 19-03-2020 07:39:18 8.9 C 39 %
191 19-03-2020 07:49:18 9.1 C 38 %
192 19-03-2020 07:59:18 9.4 C 38 %
193 19-03-2020 08:09:18 9.7 C 38 %
194 19-03-2020 08:19:17 9.9 C 37 %
195 19-03-2020 08:29:17 9.9 C 37 %
196 19-03-2020 08:39:17 10.5 C 36 %
197 19-03-2020 08:49:18 10.4 C 36 %
198 19-03-2020 08:59:18 10.2 C 36 %
199 19-03-2020 09:09:17 11.2 C 35 %
200 19-03-2020 09:19:17 11.7 C 35 %
Sensor: Nr:Datum:Temp:Feuchte:
Aussen-T/F 201 19-03-2020 09:29:17 11.5 C 35 %
202 19-03-2020 09:39:18 11.8 C 35 %
203 19-03-2020 09:49:17 11.6 C 35 %
204 19-03-2020 09:59:17 12.4 C 33 %
205 19-03-2020 10:09:18 12.3 C 32 %
206 19-03-2020 10:19:18 13.1 C 31 %
207 19-03-2020 10:29:18 13.5 C 30 %
208 19-03-2020 10:39:17 13.9 C 31 %
209 19-03-2020 10:49:17 14.2 C 30 %
210 19-03-2020 10:59:17 15.4 C 29 %
211 19-03-2020 11:09:17 15.5 C 29 %
212 19-03-2020 11:19:17 16.4 C 26 %
213 19-03-2020 11:29:17 17.7 C 26 %
214 19-03-2020 11:39:17 18.5 C 24 %
215 19-03-2020 11:49:17 15.8 C 26 %
216 19-03-2020 11:59:17 15 C 28 %
217 19-03-2020 12:09:17 15.2 C 28 %
218 19-03-2020 12:19:17 15.5 C 28 %
219 19-03-2020 12:29:17 16.8 C 26 %
220 19-03-2020 12:39:18 18.1 C 22 %
221 19-03-2020 12:49:17 18.6 C 20 %
222 19-03-2020 12:59:17 17.9 C 20 %
223 19-03-2020 13:09:18 20.4 C 20 %
224 19-03-2020 13:19:18 25.8 C 20 %
225 19-03-2020 13:29:18 25.6 C 20 %
Sensor: Nr:Datum:Temp:Feuchte:
Aussen-T/F 226 19-03-2020 13:39:18 19.7 C 20 %
227 19-03-2020 13:49:17 18.8 C 20 %
228 19-03-2020 13:59:17 18.2 C 20 %
229 19-03-2020 14:09:17 18.7 C 20 %
230 19-03-2020 14:19:17 18.9 C 20 %
231 19-03-2020 14:29:17 18.8 C 20 %
232 19-03-2020 14:39:17 18.9 C 20 %
233 19-03-2020 14:49:17 19.3 C 20 %
234 19-03-2020 14:59:17 19.1 C 20 %
235 19-03-2020 15:09:18 18.5 C 20 %
236 19-03-2020 15:19:18 19.1 C 20 %
237 19-03-2020 15:29:18 19.3 C 20 %
238 19-03-2020 15:39:18 19.8 C 20 %
239 19-03-2020 15:49:17 21.8 C 20 %
240 19-03-2020 15:59:18 19.5 C 20 %
241 19-03-2020 16:09:18 19.1 C 20 %
242 19-03-2020 16:20:17 19.1 C 20 %
243 19-03-2020 16:29:17 19.1 C 20 %
244 19-03-2020 16:39:17 19.1 C 20 %
245 19-03-2020 16:49:17 19.1 C 20 %
246 19-03-2020 16:59:17 18.4 C 20 %
247 19-03-2020 17:09:18 17.6 C 20 %
248 19-03-2020 17:19:18 17.3 C 20 %
249 19-03-2020 17:29:18 17 C 20 %
250 19-03-2020 17:39:18 16.8 C 20 %
Sensor: Nr:Datum:Temp:Feuchte:
Aussen-T/F 251 19-03-2020 17:49:18 16.9 C 20 %
252 19-03-2020 17:59:18 16.7 C 20 %
253 19-03-2020 18:09:18 16.3 C 20 %
254 19-03-2020 18:20:17 15.7 C 23 %
255 19-03-2020 18:30:17 13.9 C 29 %
256 19-03-2020 18:40:17 13.5 C 30 %
257 19-03-2020 18:50:17 12.8 C 31 %
258 19-03-2020 18:59:18 12.7 C 31 %
259 19-03-2020 19:09:18 12.3 C 31 %
260 19-03-2020 19:20:17 12.2 C 31 %
261 19-03-2020 19:30:17 11.9 C 32 %
262 19-03-2020 19:40:17 11.7 C 32 %
263 19-03-2020 19:50:17 11.7 C 33 %
264 19-03-2020 19:59:17 11.7 C 33 %
265 19-03-2020 20:09:17 11.7 C 33 %
266 19-03-2020 20:29:17 11.5 C 34 %
267 19-03-2020 20:29:17 11.6 C 34 %
268 19-03-2020 20:39:17 12 C 33 %
269 19-03-2020 20:49:17 11.8 C 34 %
270 19-03-2020 20:59:17 11.5 C 35 %
271 19-03-2020 21:09:18 12 C 33 %
272 19-03-2020 21:20:17 11.4 C 35 %
273 19-03-2020 21:30:17 11.3 C 35 %
274 19-03-2020 21:40:17 10.3 C 36 %
275 19-03-2020 21:50:17 10.7 C 36 %
Sensor: Nr:Datum:Temp:Feuchte:
Aussen-T/F 276 19-03-2020 21:59:18 10.6 C 36 %
277 19-03-2020 22:09:18 10.1 C 37 %
278 19-03-2020 22:19:18 9.7 C 38 %
279 19-03-2020 22:29:18 9.8 C 38 %
280 19-03-2020 22:39:18 9.5 C 39 %
281 19-03-2020 22:49:18 9.4 C 39 %
282 19-03-2020 22:59:18 9.5 C 38 %
283 19-03-2020 23:09:18 9.5 C 38 %
284 19-03-2020 23:20:17 9.4 C 39 %
285 19-03-2020 23:30:17 9.2 C 39 %
286 19-03-2020 23:40:17 9.6 C 38 %
287 19-03-2020 23:50:17 9.1 C 39 %
288 19-03-2020 23:59:18 8.7 C 40 %
289 20-03-2020 00:09:18 8.6 C 40 %
290 20-03-2020 00:19:18 9.3 C 39 %
291 20-03-2020 00:29:18 9.1 C 39 %
292 20-03-2020 00:39:18 9 C 39 %
293 20-03-2020 00:59:17 8.8 C 40 %
294 20-03-2020 01:00:18 8.8 C 40 %
295 20-03-2020 01:10:18 8.7 C 40 %
296 20-03-2020 01:20:17 8.7 C 40 %
297 20-03-2020 01:30:18 8.6 C 40 %
298 20-03-2020 01:40:18 8.4 C 40 %
299 20-03-2020 01:50:17 8.5 C 40 %
300 20-03-2020 02:00:18 8.3 C 40 %
Sensor: Nr:Datum:Temp:Feuchte:
Aussen-T/F 301 20-03-2020 02:10:18 7.9 C 40 %
302 20-03-2020 02:20:17 7.6 C 41 %
303 20-03-2020 02:30:17 7.4 C 41 %
304 20-03-2020 02:40:17 7.4 C 41 %
305 20-03-2020 02:50:17 7.1 C 41 %
306 20-03-2020 03:00:17 7.1 C 42 %
307 20-03-2020 03:10:17 7.1 C 42 %
308 20-03-2020 03:20:17 7.1 C 42 %
309 20-03-2020 03:30:18 7.2 C 42 %
310 20-03-2020 03:40:18 7.3 C 42 %
311 20-03-2020 03:50:17 7.5 C 42 %
312 20-03-2020 04:00:18 7.5 C 42 %
313 20-03-2020 04:10:18 7.7 C 42 %
314 20-03-2020 04:20:18 7.6 C 41 %
315 20-03-2020 04:30:18 7.4 C 42 %
316 20-03-2020 04:40:18 7.2 C 42 %
317 20-03-2020 04:50:17 7 C 42 %
318 20-03-2020 05:00:18 6.9 C 43 %
319 20-03-2020 05:10:18 6.8 C 43 %
320 20-03-2020 05:20:17 6.5 C 43 %
321 20-03-2020 05:30:17 6.2 C 43 %
322 20-03-2020 05:40:17 5.9 C 44 %
323 20-03-2020 05:50:17 5.6 C 44 %
324 20-03-2020 06:00:17 5.4 C 45 %
325 20-03-2020 06:10:17 5.2 C 45 %
Sensor: Nr:Datum:Temp:Feuchte:
Aussen-T/F 326 20-03-2020 06:20:17 5 C 45 %
327 20-03-2020 06:30:17 5.1 C 46 %
328 20-03-2020 06:40:17 5 C 46 %
329 20-03-2020 06:50:17 5 C 46 %
330 20-03-2020 07:00:17 5.1 C 46 %
331 20-03-2020 07:10:17 5.3 C 46 %
332 20-03-2020 07:20:17 5.5 C 46 %
333 20-03-2020 07:30:17 5.6 C 46 %
334 20-03-2020 07:40:17 5.7 C 46 %
335 20-03-2020 07:50:18 5.8 C 46 %
336 20-03-2020 08:00:17 6.3 C 46 %
337 20-03-2020 08:10:17 6.9 C 45 %
338 20-03-2020 08:20:17 7.2 C 43 %
339 20-03-2020 08:30:17 7.1 C 43 %
340 20-03-2020 08:40:17 7.1 C 43 %
341 20-03-2020 08:50:17 7.3 C 43 %
342 20-03-2020 09:00:17 8 C 43 %
343 20-03-2020 09:10:17 8.2 C 42 %
344 20-03-2020 09:20:17 9.6 C 42 %
345 20-03-2020 09:30:17 10 C 40 %
346 20-03-2020 09:40:17 10.2 C 40 %
347 20-03-2020 09:50:17 10.5 C 39 %
348 20-03-2020 10:00:18 10.8 C 39 %
349 20-03-2020 10:10:18 11.2 C 38 %
350 20-03-2020 10:20:18 11.1 C 37 %
Sensor: Nr:Datum:Temp:Feuchte:
Aussen-T/F 351 20-03-2020 10:30:18 11 C 37 %
352 20-03-2020 10:40:18 11.5 C 37 %
353 20-03-2020 10:50:18 12.6 C 36 %
354 20-03-2020 11:00:17 13.1 C 35 %
355 20-03-2020 11:10:18 13.1 C 35 %
356 20-03-2020 11:20:18 14.2 C 33 %
357 20-03-2020 11:30:18 14.5 C 32 %
358 20-03-2020 11:40:18 15.3 C 31 %
359 20-03-2020 11:50:18 14.6 C 32 %
360 20-03-2020 12:00:17 15.6 C 31 %
361 20-03-2020 12:10:17 15.4 C 30 %
362 20-03-2020 12:20:17 15.6 C 30 %
363 20-03-2020 12:30:18 14.4 C 31 %
364 20-03-2020 12:40:18 14.9 C 31 %
365 20-03-2020 12:50:18 14.9 C 31 %
366 20-03-2020 13:00:18 14.9 C 31 %
367 20-03-2020 13:10:18 14.9 C 31 %
368 20-03-2020 13:20:18 14.9 C 31 %
369 20-03-2020 13:30:18 14.9 C 31 %
370 20-03-2020 13:40:18 14.9 C 31 %
371 20-03-2020 13:50:17 16.4 C 26 %
372 20-03-2020 14:00:17 16.2 C 27 %
373 20-03-2020 14:10:17 16.6 C 26 %
374 20-03-2020 14:20:17 16.2 C 27 %
375 20-03-2020 14:30:18 17.4 C 26 %
Sensor: Nr:Datum:Temp:Feuchte:
Aussen-T/F 376 20-03-2020 14:40:18 17.3 C 26 %
377 20-03-2020 14:50:18 17.9 C 25 %
378 20-03-2020 15:00:17 17.9 C 25 %
379 20-03-2020 15:10:17 18.1 C 25 %
380 20-03-2020 15:20:17 17 C 25 %
381 20-03-2020 15:30:18 17.9 C 25 %
382 20-03-2020 15:40:18 18.5 C 25 %
383 20-03-2020 15:50:18 17 C 25 %
384 20-03-2020 16:00:17 16.2 C 26 %
385 20-03-2020 16:10:17 16.1 C 26 %
386 20-03-2020 16:20:17 15.5 C 26 %
387 20-03-2020 16:30:18 15.8 C 26 %
388 20-03-2020 16:40:18 15.3 C 26 %
389 20-03-2020 16:50:18 17 C 25 %
390 20-03-2020 17:00:18 16.1 C 26 %
391 20-03-2020 17:10:18 15.2 C 27 %
392 20-03-2020 17:20:18 14.3 C 28 %
393 20-03-2020 17:30:18 13.9 C 30 %
394 20-03-2020 17:40:18 12.8 C 31 %
395 20-03-2020 17:50:17 12.5 C 31 %
396 20-03-2020 18:00:17 12.4 C 32 %
397 20-03-2020 18:10:17 11.9 C 33 %
398 20-03-2020 18:20:17 11.8 C 34 %
399 20-03-2020 18:30:17 11.6 C 34 %
400 20-03-2020 18:40:17 11.6 C 34 %
Sensor: Nr:Datum:Temp:Feuchte:
Aussen-T/F 401 20-03-2020 18:50:18 11.5 C 34 %
402 20-03-2020 19:00:17 11.5 C 34 %
403 20-03-2020 19:10:17 11.3 C 34 %
404 20-03-2020 19:20:17 11.1 C 34 %
405 20-03-2020 19:30:17 11 C 35 %
406 20-03-2020 19:40:17 10.7 C 35 %
407 20-03-2020 19:50:17 10.6 C 35 %
408 20-03-2020 20:00:17 10.4 C 35 %
409 20-03-2020 20:10:17 10.2 C 35 %
410 20-03-2020 20:20:17 10.3 C 35 %
411 20-03-2020 20:30:17 10.3 C 35 %
412 20-03-2020 20:40:17 10.2 C 35 %
413 20-03-2020 20:50:18 10.3 C 35 %
414 20-03-2020 21:00:18 10.1 C 35 %
415 20-03-2020 21:10:18 9.9 C 35 %
416 20-03-2020 21:20:17 9.5 C 35 %
417 20-03-2020 21:30:17 9.2 C 35 %
418 20-03-2020 21:40:17 9.1 C 35 %
419 20-03-2020 21:50:17 8.7 C 36 %
420 20-03-2020 22:00:17 8.5 C 36 %
421 20-03-2020 22:10:17 8.4 C 36 %
422 20-03-2020 22:20:18 8.3 C 36 %
423 20-03-2020 22:30:17 8.2 C 36 %
424 20-03-2020 22:40:18 8.1 C 36 %
425 20-03-2020 22:50:17 8.1 C 36 %
Sensor: Nr:Datum:Temp:Feuchte:
Aussen-T/F 426 20-03-2020 23:00:18 8 C 35 %
427 20-03-2020 23:10:18 7.9 C 36 %
428 20-03-2020 23:20:17 7.9 C 36 %
429 20-03-2020 23:30:18 7.9 C 35 %
430 20-03-2020 23:40:18 7.8 C 35 %
431 20-03-2020 23:50:18 7.7 C 35 %
432 21-03-2020 00:00:17 7.6 C 34 %
433 21-03-2020 00:10:17 7.6 C 34 %
434 21-03-2020 00:20:17 7.4 C 34 %
435 21-03-2020 00:30:17 7.3 C 34 %
436 21-03-2020 00:40:17 7.3 C 34 %
437 21-03-2020 00:50:17 7.3 C 34 %
438 21-03-2020 01:00:17 7.2 C 33 %
439 21-03-2020 01:10:17 7.1 C 33 %
440 21-03-2020 01:20:17 6.8 C 35 %
441 21-03-2020 01:30:18 6.5 C 35 %
442 21-03-2020 01:40:18 6.2 C 36 %
443 21-03-2020 01:50:17 5.9 C 38 %
444 21-03-2020 02:00:18 5.6 C 39 %
445 21-03-2020 02:10:18 5.3 C 40 %
446 21-03-2020 02:20:17 5.1 C 41 %
447 21-03-2020 02:30:18 4.9 C 43 %
448 21-03-2020 02:40:18 4.9 C 43 %
449 21-03-2020 02:50:18 4.6 C 43 %
450 21-03-2020 03:00:17 4.5 C 43 %
Sensor: Nr:Datum:Temp:Feuchte:
Aussen-T/F 451 21-03-2020 03:10:17 4.4 C 44 %
452 21-03-2020 03:20:17 4.5 C 45 %
453 21-03-2020 03:30:18 4.5 C 45 %
454 21-03-2020 03:40:18 4.4 C 45 %
455 21-03-2020 03:50:17 4.4 C 45 %
456 21-03-2020 04:00:18 4.3 C 45 %
457 21-03-2020 04:10:18 4.2 C 45 %
458 21-03-2020 04:20:17 4.1 C 45 %
459 21-03-2020 04:30:18 4.1 C 45 %
460 21-03-2020 04:40:18 4 C 45 %
461 21-03-2020 04:50:18 3.9 C 46 %
462 21-03-2020 05:00:18 3.9 C 46 %
463 21-03-2020 05:10:18 4 C 46 %
464 21-03-2020 05:20:18 3.9 C 47 %
465 21-03-2020 05:30:18 3.9 C 47 %
466 21-03-2020 05:40:18 3.9 C 47 %
467 21-03-2020 05:50:17 4 C 46 %
468 21-03-2020 06:00:18 4 C 47 %
469 21-03-2020 06:10:18 3.9 C 47 %
470 21-03-2020 06:20:17 4 C 47 %
471 21-03-2020 06:30:18 4 C 47 %
472 21-03-2020 06:40:18 4 C 47 %
473 21-03-2020 06:50:17 4 C 47 %
474 21-03-2020 07:00:17 4.1 C 47 %
475 21-03-2020 07:10:18 4.1 C 47 %
Sensor: Nr:Datum:Temp:Feuchte:
Aussen-T/F 476 21-03-2020 07:20:18 4.1 C 47 %
477 21-03-2020 07:30:18 4.2 C 47 %
478 21-03-2020 07:40:18 4.3 C 47 %
479 21-03-2020 07:50:17 4.3 C 47 %
480 21-03-2020 08:00:18 4.4 C 47 %
481 21-03-2020 08:10:18 4.5 C 47 %
482 21-03-2020 08:20:17 4.5 C 46 %
483 21-03-2020 08:30:17 4.6 C 46 %
484 21-03-2020 08:40:17 4.7 C 46 %
485 21-03-2020 08:50:18 4.8 C 46 %
486 21-03-2020 09:00:18 4.7 C 46 %
487 21-03-2020 09:10:18 4.6 C 45 %
488 21-03-2020 09:20:18 5.2 C 43 %
489 21-03-2020 09:30:18 5.6 C 42 %
490 21-03-2020 09:40:18 5.8 C 41 %
491 21-03-2020 09:50:17 6 C 41 %
492 21-03-2020 10:00:17 6.2 C 41 %
493 21-03-2020 10:10:18 6.4 C 39 %
494 21-03-2020 10:20:18 6.5 C 40 %
495 21-03-2020 10:30:18 6.7 C 39 %
496 21-03-2020 10:40:18 6.7 C 38 %
497 21-03-2020 10:50:17 6.4 C 39 %
498 21-03-2020 11:00:17 6.5 C 37 %
499 21-03-2020 11:10:18 7.1 C 36 %
500 21-03-2020 11:20:18 7.3 C 36 %
Sensor: Nr:Datum:Temp:Feuchte:
Aussen-T/F 501 21-03-2020 11:30:18 8.1 C 34 %
502 21-03-2020 11:40:18 8 C 34 %
503 21-03-2020 11:50:18 8.3 C 32 %
504 21-03-2020 12:00:18 7.8 C 32 %
505 21-03-2020 12:10:18 7.6 C 33 %
506 21-03-2020 12:20:17 7.9 C 31 %
507 21-03-2020 12:30:17 8.7 C 32 %
508 21-03-2020 12:40:17 8.2 C 30 %
509 21-03-2020 12:50:17 7.8 C 31 %
510 21-03-2020 13:00:17 7.9 C 30 %
511 21-03-2020 13:10:17 8.7 C 30 %
512 21-03-2020 13:20:18 8.9 C 28 %
513 21-03-2020 13:30:18 8.5 C 28 %
514 21-03-2020 13:40:18 8.2 C 27 %
515 21-03-2020 13:50:17 8.4 C 27 %
516 21-03-2020 14:00:18 8.6 C 27 %
517 21-03-2020 14:10:18 9.1 C 26 %
518 21-03-2020 14:20:18 8.7 C 27 %
519 21-03-2020 14:30:18 9.1 C 25 %
520 21-03-2020 14:40:18 11.1 C 24 %
521 21-03-2020 14:50:17 9.8 C 23 %
522 21-03-2020 15:00:18 11 C 20 %
523 21-03-2020 15:10:18 10.1 C 20 %
524 21-03-2020 15:20:17 11.2 C 20 %
525 21-03-2020 15:30:17 11.7 C 20 %
Sensor: Nr:Datum:Temp:Feuchte:
Aussen-T/F 526 21-03-2020 15:40:17 9.4 C 20 %
527 21-03-2020 15:50:17 8.6 C 20 %
528 21-03-2020 16:00:18 9.4 C 20 %
529 21-03-2020 16:10:18 9.5 C 20 %
530 21-03-2020 16:20:17 12.1 C 20 %
531 21-03-2020 16:30:17 12 C 20 %
532 21-03-2020 16:40:17 13.3 C 20 %
533 21-03-2020 16:50:17 10.9 C 20 %
534 21-03-2020 17:00:17 9.2 C 20 %
535 21-03-2020 17:10:17 8.9 C 20 %
536 21-03-2020 17:20:17 8.3 C 20 %
537 21-03-2020 17:30:18 7.8 C 20 %
538 21-03-2020 17:40:18 7.8 C 20 %
539 21-03-2020 17:50:17 7.5 C 20 %
540 21-03-2020 18:00:17 7 C 20 %
541 21-03-2020 18:10:17 6.9 C 20 %
542 21-03-2020 18:20:17 6.6 C 21 %
543 21-03-2020 18:30:17 6.4 C 23 %
544 21-03-2020 18:40:17 5.9 C 25 %
545 21-03-2020 18:50:17 5.5 C 27 %
546 21-03-2020 19:00:17 5.5 C 26 %
547 21-03-2020 19:10:17 5.1 C 28 %
548 21-03-2020 19:20:17 4.7 C 30 %
549 21-03-2020 19:30:18 4.4 C 31 %
550 21-03-2020 19:40:18 4.5 C 30 %
Sensor: Nr:Datum:Temp:Feuchte:
Aussen-T/F 551 21-03-2020 19:50:17 4.4 C 29 %
552 21-03-2020 20:00:18 4.1 C 30 %
553 21-03-2020 20:10:18 3.7 C 31 %
554 21-03-2020 20:20:18 3.2 C 33 %
555 21-03-2020 20:30:18 3.7 C 32 %
556 21-03-2020 20:40:18 3.9 C 30 %
557 21-03-2020 20:50:17 3.6 C 31 %
558 21-03-2020 21:00:18 3.3 C 32 %
559 21-03-2020 21:10:18 3 C 32 %
560 21-03-2020 21:20:18 3.4 C 32 %
561 21-03-2020 21:30:18 3.1 C 31 %
562 21-03-2020 21:40:18 2.9 C 32 %
563 21-03-2020 21:50:17 2.6 C 33 %
564 21-03-2020 22:00:17 1.9 C 36 %
565 21-03-2020 22:10:17 2.3 C 34 %
566 21-03-2020 22:20:17 3 C 32 %
567 21-03-2020 22:30:18 2.7 C 32 %
568 21-03-2020 22:40:18 2.3 C 33 %
569 21-03-2020 22:50:18 2.7 C 32 %
570 21-03-2020 23:00:18 2 C 34 %
571 21-03-2020 23:10:18 2.2 C 33 %
572 21-03-2020 23:20:18 1.6 C 35 %
573 21-03-2020 23:30:18 1.7 C 35 %
574 21-03-2020 23:40:18 1.8 C 35 %
575 21-03-2020 23:50:17 1.7 C 35 %
Sensor: Nr:Datum:Temp:Feuchte:
Aussen-T/F 576 22-03-2020 00:00:18 1.4 C 35 %
577 22-03-2020 00:10:18 1.5 C 35 %
578 22-03-2020 00:20:17 0.9 C 37 %
579 22-03-2020 00:30:17 0.7 C 38 %
580 22-03-2020 00:40:17 1.2 C 36 %
581 22-03-2020 00:50:17 0.9 C 37 %
582 22-03-2020 01:00:18 1.5 C 35 %
583 22-03-2020 01:10:18 1.5 C 35 %
584 22-03-2020 01:20:18 1.1 C 35 %
585 22-03-2020 01:30:18 1.1 C 35 %
586 22-03-2020 01:40:18 0.9 C 36 %
587 22-03-2020 01:50:18 1 C 35 %
588 22-03-2020 02:00:18 1 C 35 %
589 22-03-2020 02:10:18 0.1 C 38 %
590 22-03-2020 02:20:17 0.3 C 38 %
591 22-03-2020 02:30:18 0.5 C 37 %
592 22-03-2020 02:40:18 0.5 C 37 %
593 22-03-2020 02:50:18 0.4 C 37 %
594 22-03-2020 03:00:18 0.2 C 37 %
595 22-03-2020 03:10:18 0.7 C 37 %
596 22-03-2020 03:20:18 -0.4 C 38 %
597 22-03-2020 03:30:18 -0.1 C 38 %
598 22-03-2020 03:40:18 -0.4 C 39 %
599 22-03-2020 03:50:17 -0.3 C 39 %
600 22-03-2020 04:00:17 -0.2 C 38 %
Sensor: Nr:Datum:Temp:Feuchte:
Aussen-T/F 601 22-03-2020 04:10:17 0 C 37 %
602 22-03-2020 04:20:17 -0.4 C 38 %
603 22-03-2020 04:30:17 0.3 C 37 %
604 22-03-2020 04:40:17 0.1 C 37 %
605 22-03-2020 04:50:17 -0.2 C 38 %
606 22-03-2020 05:00:18 0.1 C 37 %
607 22-03-2020 05:10:18 -0.3 C 37 %
608 22-03-2020 05:20:17 -0.4 C 37 %
609 22-03-2020 05:30:18 -0.5 C 38 %
610 22-03-2020 05:40:18 -0.7 C 38 %
611 22-03-2020 05:50:17 -1 C 39 %
612 22-03-2020 06:00:17 -1.1 C 39 %
613 22-03-2020 06:10:17 -0.8 C 39 %
614 22-03-2020 06:20:17 0.1 C 37 %
615 22-03-2020 06:30:17 -0.3 C 37 %
616 22-03-2020 06:40:17 -0.4 C 37 %
617 22-03-2020 06:50:18 0 C 36 %
618 22-03-2020 07:00:18 -0.3 C 37 %
619 22-03-2020 07:10:18 -0.2 C 37 %
620 22-03-2020 07:20:18 -0.4 C 37 %
621 22-03-2020 07:30:18 -0.1 C 36 %
622 22-03-2020 07:40:18 -0.2 C 37 %
623 22-03-2020 07:50:17 -0.1 C 36 %
624 22-03-2020 08:00:18 -0.1 C 36 %
625 22-03-2020 08:10:18 0.3 C 36 %
Sensor: Nr:Datum:Temp:Feuchte:
Aussen-T/F 626 22-03-2020 08:20:18 0.3 C 35 %
627 22-03-2020 08:30:18 0.5 C 35 %
628 22-03-2020 08:40:18 0.8 C 35 %
629 22-03-2020 08:50:18 0.4 C 35 %
630 22-03-2020 09:00:18 0.8 C 35 %
631 22-03-2020 09:10:18 1.2 C 32 %
632 22-03-2020 09:20:18 1.6 C 32 %
633 22-03-2020 09:30:18 2.2 C 30 %
634 22-03-2020 09:40:18 2.5 C 27 %
635 22-03-2020 09:50:17 2.8 C 26 %
636 22-03-2020 10:00:18 3.3 C 25 %
637 22-03-2020 10:10:18 3.6 C 25 %
638 22-03-2020 10:20:18 3.9 C 20 %
639 22-03-2020 10:30:18 4.4 C 20 %
640 22-03-2020 10:40:18 4.6 C 20 %
641 22-03-2020 10:50:17 5.2 C 20 %
642 22-03-2020 11:00:18 5.5 C 20 %
643 22-03-2020 11:10:18 6.3 C 20 %
644 22-03-2020 11:20:17 6.5 C 20 %
645 22-03-2020 11:30:18 6.7 C 20 %
646 22-03-2020 11:40:18 6.7 C 20 %
647 22-03-2020 11:50:17 6.5 C 20 %
648 22-03-2020 12:00:18 7 C 20 %
649 22-03-2020 12:10:18 7.4 C 20 %
650 22-03-2020 12:20:18 7.3 C 20 %
Sensor: Nr:Datum:Temp:Feuchte:
Aussen-T/F 651 22-03-2020 12:30:17 6.9 C 20 %
652 22-03-2020 12:40:17 8 C 20 %
653 22-03-2020 12:50:18 8.5 C 20 %
654 22-03-2020 13:00:18 10.1 C 20 %
655 22-03-2020 13:10:18 11.1 C 20 %
656 22-03-2020 13:20:17 11.9 C 20 %
657 22-03-2020 13:30:18 11.6 C 20 %
658 22-03-2020 13:40:18 10.9 C 20 %
659 22-03-2020 13:50:18 10.3 C 20 %
660 22-03-2020 14:00:17 9.6 C 20 %
661 22-03-2020 14:10:17 10.2 C 20 %
662 22-03-2020 14:20:17 12.2 C 20 %
663 22-03-2020 14:30:17 12.6 C 20 %
664 22-03-2020 14:40:17 14.4 C 20 %
665 22-03-2020 14:50:17 14.4 C 20 %
666 22-03-2020 15:00:18 15 C 20 %
667 22-03-2020 15:10:18 14.4 C 20 %
668 22-03-2020 15:20:17 14.7 C 20 %
669 22-03-2020 15:30:17 13.6 C 20 %
670 22-03-2020 15:40:17 13.7 C 20 %
671 22-03-2020 15:50:18 15.4 C 20 %
672 22-03-2020 16:00:18 16.2 C 20 %
673 22-03-2020 16:10:18 14.9 C 20 %
674 22-03-2020 16:20:18 14.1 C 20 %
675 22-03-2020 16:30:18 13.3 C 20 %
Sensor: Nr:Datum:Temp:Feuchte:
Aussen-T/F 676 22-03-2020 16:40:18 13.2 C 20 %
677 22-03-2020 16:50:17 11.7 C 20 %
678 22-03-2020 17:00:17 10.7 C 20 %
679 22-03-2020 17:10:17 9.9 C 20 %
680 22-03-2020 17:20:17 9.7 C 20 %
681 22-03-2020 17:30:17 9.8 C 20 %
682 22-03-2020 17:40:17 9.5 C 20 %
683 22-03-2020 17:50:17 8.9 C 20 %
684 22-03-2020 18:00:18 8.6 C 20 %
685 22-03-2020 18:10:18 8.4 C 20 %
686 22-03-2020 18:20:17 7.9 C 20 %
687 22-03-2020 18:30:17 7.5 C 20 %
688 22-03-2020 18:40:17 7 C 20 %
689 22-03-2020 18:50:17 6.5 C 20 %
690 22-03-2020 19:00:17 5.6 C 20 %
691 22-03-2020 19:10:17 4.9 C 21 %
692 22-03-2020 19:20:17 5.2 C 20 %
693 22-03-2020 19:30:17 4.3 C 26 %
694 22-03-2020 19:40:17 3.8 C 27 %
695 22-03-2020 19:50:18 3.7 C 28 %
696 22-03-2020 20:00:18 3.6 C 28 %
697 22-03-2020 20:10:18 3.6 C 27 %
698 22-03-2020 20:20:17 3.6 C 26 %
699 22-03-2020 20:30:17 3.2 C 26 %
700 22-03-2020 20:40:17 3 C 26 %
Sensor: Nr:Datum:Temp:Feuchte:
Aussen-T/F 701 22-03-2020 20:50:17 2.5 C 30 %
702 22-03-2020 21:00:17 2.9 C 26 %
703 22-03-2020 21:10:17 2.7 C 27 %
704 22-03-2020 21:20:17 2.3 C 30 %
705 22-03-2020 21:30:17 2.2 C 29 %
706 22-03-2020 21:40:17 1.8 C 30 %
707 22-03-2020 21:50:18 1.5 C 31 %
708 22-03-2020 22:00:18 2 C 30 %
709 22-03-2020 22:10:18 2.5 C 26 %
710 22-03-2020 22:20:17 1.8 C 30 %
711 22-03-2020 22:30:17 1.5 C 29 %
712 22-03-2020 22:40:17 1.3 C 31 %
713 22-03-2020 22:50:17 1.4 C 30 %
714 22-03-2020 23:00:17 0.7 C 33 %
715 22-03-2020 23:10:17 1.1 C 30 %
716 22-03-2020 23:20:17 0.8 C 32 %
717 22-03-2020 23:30:18 0.3 C 33 %
718 22-03-2020 23:40:18 0.3 C 34 %
719 22-03-2020 23:50:18 0.6 C 33 %
720 23-03-2020 00:00:18 0.4 C 34 %
721 23-03-2020 00:10:18 0 C 33 %
722 23-03-2020 00:20:17 -0.2 C 33 %
723 23-03-2020 00:30:17 -0.5 C 35 %
724 23-03-2020 00:40:17 -0.7 C 36 %
725 23-03-2020 00:50:18 -1.1 C 36 %
Sensor: Nr:Datum:Temp:Feuchte:
Aussen-T/F 726 23-03-2020 01:00:17 -0.6 C 35 %
727 23-03-2020 01:10:17 -0.7 C 36 %
728 23-03-2020 01:20:17 -0.9 C 35 %
729 23-03-2020 01:30:18 -0.8 C 35 %
730 23-03-2020 01:40:18 -1.1 C 35 %
731 23-03-2020 01:50:18 -0.8 C 35 %
732 23-03-2020 02:00:18 -1.1 C 35 %
733 23-03-2020 02:10:18 -1.4 C 35 %
734 23-03-2020 02:20:17 -1.2 C 35 %
735 23-03-2020 02:30:17 -1.2 C 35 %
736 23-03-2020 02:40:17 -1.2 C 35 %
737 23-03-2020 02:50:17 -1.3 C 35 %
738 23-03-2020 03:00:17 -1.6 C 35 %
739 23-03-2020 03:10:18 -1.9 C 35 %
740 23-03-2020 03:20:18 -1.6 C 35 %
741 23-03-2020 03:30:18 -1.7 C 35 %
742 23-03-2020 03:40:18 -1.9 C 35 %
743 23-03-2020 03:50:18 -1.8 C 35 %
744 23-03-2020 04:00:18 -1.8 C 35 %
745 23-03-2020 04:10:18 -2.1 C 35 %
746 23-03-2020 04:20:17 -1.9 C 35 %
747 23-03-2020 04:30:17 -2 C 35 %
748 23-03-2020 04:40:17 -2.1 C 35 %
749 23-03-2020 04:50:17 -2.7 C 36 %
750 23-03-2020 05:00:18 -2.5 C 36 %
Sensor: Nr:Datum:Temp:Feuchte:
Aussen-T/F 751 23-03-2020 05:10:18 -2.4 C 36 %
752 23-03-2020 05:20:17 -2.3 C 36 %
753 23-03-2020 05:30:18 -2.4 C 35 %
754 23-03-2020 05:40:18 -2.7 C 36 %
755 23-03-2020 05:50:17 -2.7 C 36 %
756 23-03-2020 06:00:18 -2.6 C 36 %
757 23-03-2020 06:10:18 -2.9 C 36 %
758 23-03-2020 06:20:17 -2.6 C 36 %
759 23-03-2020 06:30:18 -2.8 C 36 %
760 23-03-2020 06:40:18 -3.2 C 36 %
761 23-03-2020 06:50:18 -3 C 36 %
762 23-03-2020 07:00:18 -3 C 36 %
763 23-03-2020 07:10:18 -3.1 C 36 %
764 23-03-2020 07:20:18 -2.5 C 35 %
765 23-03-2020 07:30:18 -2.7 C 36 %
766 23-03-2020 07:40:18 -2.6 C 36 %
767 23-03-2020 07:50:18 -1.9 C 34 %
768 23-03-2020 08:00:18 -2 C 35 %
769 23-03-2020 08:10:18 -1.4 C 32 %
770 23-03-2020 08:20:17 -1.1 C 31 %
771 23-03-2020 08:30:18 -0.2 C 27 %
772 23-03-2020 08:40:18 -0.2 C 26 %
773 23-03-2020 08:50:18 -0.3 C 25 %
774 23-03-2020 09:00:18 0 C 23 %
775 23-03-2020 09:10:18 0.2 C 23 %
Sensor: Nr:Datum:Temp:Feuchte:
Aussen-T/F 776 23-03-2020 09:20:18 0.5 C 20 %
777 23-03-2020 09:30:17 0.7 C 20 %
778 23-03-2020 09:40:17 1.5 C 20 %
779 23-03-2020 09:50:18 1.8 C 20 %
780 23-03-2020 10:00:18 2.4 C 20 %
781 23-03-2020 10:10:18 2.7 C 20 %
782 23-03-2020 10:20:18 3 C 20 %
783 23-03-2020 10:30:17 3.8 C 20 %
784 23-03-2020 10:40:17 4.1 C 20 %
785 23-03-2020 10:50:17 4.7 C 20 %
786 23-03-2020 11:00:17 5.5 C 20 %
787 23-03-2020 11:10:17 5.5 C 20 %
788 23-03-2020 11:20:17 6 C 20 %
789 23-03-2020 11:30:18 6.7 C 20 %
790 23-03-2020 11:40:18 6.2 C 20 %
791 23-03-2020 11:50:17 6.3 C 20 %
792 23-03-2020 12:00:18 7 C 20 %
793 23-03-2020 12:10:18 7.4 C 20 %
794 23-03-2020 12:20:18 7.8 C 20 %
795 23-03-2020 12:30:18 7.5 C 20 %
796 23-03-2020 12:40:18 8.1 C 20 %
797 23-03-2020 12:50:18 8.7 C 20 %
798 23-03-2020 13:00:17 10.4 C 20 %
799 23-03-2020 13:10:17 10.7 C 20 %
800 23-03-2020 13:20:17 11.9 C 20 %
Sensor: Nr:Datum:Temp:Feuchte:
Aussen-T/F 801 23-03-2020 13:30:17 11.4 C 20 %
802 23-03-2020 13:40:17 10 C 20 %
803 23-03-2020 13:50:17 9.8 C 20 %
804 23-03-2020 14:00:18 9.2 C 20 %
805 23-03-2020 14:10:18 10.5 C 20 %
806 23-03-2020 14:20:18 12.9 C 20 %
807 23-03-2020 14:30:18 13 C 20 %
808 23-03-2020 14:40:18 14.2 C 20 %
809 23-03-2020 14:50:18 14.3 C 20 %
810 23-03-2020 15:00:18 14.3 C 20 %
811 23-03-2020 15:10:18 14.4 C 20 %
812 23-03-2020 15:20:17 14.7 C 20 %
813 23-03-2020 15:30:17 13.5 C 20 %
814 23-03-2020 15:40:17 14.4 C 20 %
815 23-03-2020 15:50:17 14.1 C 20 %
816 23-03-2020 16:00:17 13.8 C 20 %
817 23-03-2020 16:10:17 14.7 C 20 %
818 23-03-2020 16:20:17 15.3 C 20 %
819 23-03-2020 16:30:18 14.7 C 20 %
820 23-03-2020 16:40:18 14.8 C 20 %
821 23-03-2020 16:50:17 11.4 C 20 %
822 23-03-2020 17:00:18 10.1 C 20 %
823 23-03-2020 17:10:18 9.7 C 20 %
824 23-03-2020 17:20:18 9.4 C 20 %
825 23-03-2020 17:30:18 9 C 20 %
Sensor: Nr:Datum:Temp:Feuchte:
Aussen-T/F 826 23-03-2020 17:40:18 9 C 20 %
827 23-03-2020 17:50:17 8.6 C 20 %
828 23-03-2020 18:00:18 8.3 C 20 %
829 23-03-2020 18:10:18 7.6 C 20 %
830 23-03-2020 18:20:17 7.4 C 20 %
831 23-03-2020 18:30:18 7 C 20 %
832 23-03-2020 18:40:18 5.3 C 20 %
833 23-03-2020 18:50:18 4.4 C 20 %
834 23-03-2020 19:00:18 4.2 C 20 %
835 23-03-2020 19:10:18 4.1 C 20 %
836 23-03-2020 19:20:17 3.7 C 20 %
837 23-03-2020 19:30:18 3.6 C 20 %
838 23-03-2020 19:40:18 3.4 C 20 %
839 23-03-2020 19:50:18 2.7 C 20 %
840 23-03-2020 20:00:17 2.9 C 20 %
841 23-03-2020 20:10:17 2.6 C 20 %
842 23-03-2020 20:20:17 2.5 C 20 %
843 23-03-2020 20:30:18 2.3 C 20 %
844 23-03-2020 20:40:18 2.4 C 20 %
845 23-03-2020 20:50:18 2.3 C 20 %
846 23-03-2020 21:00:18 2.1 C 20 %
847 23-03-2020 21:10:18 0.9 C 27 %
848 23-03-2020 21:20:17 1 C 26 %
849 23-03-2020 21:30:18 1.1 C 28 %
850 23-03-2020 21:40:18 0.7 C 29 %
Sensor: Nr:Datum:Temp:Feuchte:
Aussen-T/F 851 23-03-2020 21:50:18 0.2 C 30 %
852 23-03-2020 22:00:17 -0.4 C 31 %
853 23-03-2020 22:10:18 -0.9 C 35 %
854 23-03-2020 22:20:18 -0.2 C 34 %
855 23-03-2020 22:30:18 -0.9 C 35 %
856 23-03-2020 22:40:18 -0.9 C 35 %
857 23-03-2020 22:50:18 -1.3 C 35 %
858 23-03-2020 23:00:18 -1.4 C 36 %
859 23-03-2020 23:10:18 -1.6 C 36 %
860 23-03-2020 23:20:17 -1.7 C 36 %
861 23-03-2020 23:30:17 -1.7 C 37 %
862 23-03-2020 23:40:17 -1.9 C 37 %
863 23-03-2020 23:50:18 -1.8 C 37 %
864 24-03-2020 00:00:18 -1.9 C 36 %
865 24-03-2020 00:10:18 -2 C 36 %
866 24-03-2020 00:20:17 -2.2 C 36 %
867 24-03-2020 00:30:18 -2.4 C 37 %
868 24-03-2020 00:40:18 -2.4 C 38 %
869 24-03-2020 00:50:18 -2.5 C 38 %
870 24-03-2020 01:00:18 -2.3 C 37 %
871 24-03-2020 01:10:18 -2.6 C 37 %
872 24-03-2020 01:20:18 -2.7 C 38 %
873 24-03-2020 01:30:18 -2.7 C 38 %
874 24-03-2020 01:40:18 -3 C 38 %
875 24-03-2020 01:50:18 -2.5 C 37 %
Sensor: Nr:Datum:Temp:Feuchte:
Aussen-T/F 876 24-03-2020 02:00:18 -2.6 C 38 %
877 24-03-2020 02:10:18 -2.8 C 38 %
878 24-03-2020 02:20:17 -3.1 C 38 %
879 24-03-2020 02:30:17 -3.2 C 38 %
880 24-03-2020 02:40:17 -3.3 C 38 %
881 24-03-2020 02:50:17 -3.2 C 38 %
882 24-03-2020 03:00:17 -3.4 C 38 %
883 24-03-2020 03:10:17 -3.5 C 38 %
884 24-03-2020 03:20:17 -3.6 C 39 %
885 24-03-2020 03:30:17 -3.6 C 38 %
886 24-03-2020 03:40:17 -3.7 C 38 %
887 24-03-2020 03:50:17 -3.9 C 39 %
888 24-03-2020 04:00:18 -3.7 C 39 %
889 24-03-2020 04:10:18 -3.9 C 38 %
890 24-03-2020 04:20:18 -4 C 38 %
891 24-03-2020 04:30:18 -4 C 38 %
892 24-03-2020 04:40:18 -4 C 38 %
893 24-03-2020 04:50:17 -3.9 C 38 %
894 24-03-2020 05:00:17 -4.2 C 38 %
895 24-03-2020 05:10:17 -4.3 C 39 %
896 24-03-2020 05:20:17 -4.2 C 38 %
897 24-03-2020 05:30:18 -4.3 C 38 %
898 24-03-2020 05:40:18 -4.4 C 38 %
899 24-03-2020 05:50:18 -4.6 C 39 %
900 24-03-2020 06:00:17 -4.7 C 39 %
Sensor: Nr:Datum:Temp:Feuchte:
Aussen-T/F 901 24-03-2020 06:10:18 -4.7 C 38 %
902 24-03-2020 06:20:17 -4.7 C 39 %
903 24-03-2020 06:30:18 -4.7 C 38 %
904 24-03-2020 06:40:18 -4.6 C 39 %
905 24-03-2020 06:50:18 -4.4 C 38 %
906 24-03-2020 07:00:18 -4.5 C 39 %
907 24-03-2020 07:10:18 -4.4 C 39 %
908 24-03-2020 07:20:18 -4.3 C 39 %
909 24-03-2020 07:30:18 -4.2 C 39 %
910 24-03-2020 07:40:18 -4 C 39 %
911 24-03-2020 07:50:17 -3.8 C 39 %
912 24-03-2020 08:00:17 -3.7 C 39 %
913 24-03-2020 08:10:17 -3.5 C 38 %
914 24-03-2020 08:20:17 -3.3 C 38 %
915 24-03-2020 08:30:17 -2.5 C 38 %
916 24-03-2020 08:40:17 -2.4 C 37 %
917 24-03-2020 08:50:17 -2 C 37 %
918 24-03-2020 09:00:17 -1.6 C 36 %
919 24-03-2020 09:10:17 -0.7 C 35 %
920 24-03-2020 09:20:17 -0.2 C 34 %
921 24-03-2020 09:30:17 0.4 C 30 %
922 24-03-2020 09:40:17 1 C 27 %
923 24-03-2020 09:50:18 1.7 C 23 %
924 24-03-2020 10:00:18 3 C 20 %
925 24-03-2020 10:10:18 3.3 C 20 %
Sensor: Nr:Datum:Temp:Feuchte:
Aussen-T/F 926 24-03-2020 10:20:17 3.9 C 20 %
927 24-03-2020 10:30:17 4.3 C 20 %
928 24-03-2020 10:40:17 4.7 C 20 %
929 24-03-2020 10:50:17 5.7 C 20 %
930 24-03-2020 11:00:18 5.7 C 20 %
931 24-03-2020 11:10:18 6.4 C 20 %
932 24-03-2020 11:20:17 6.9 C 20 %
933 24-03-2020 11:30:17 7.9 C 20 %
934 24-03-2020 11:40:17 7.2 C 20 %
935 24-03-2020 11:50:18 6.8 C 20 %
936 24-03-2020 12:00:18 7.8 C 20 %
937 24-03-2020 12:10:18 8.6 C 20 %
938 24-03-2020 12:20:17 8.2 C 20 %
939 24-03-2020 12:30:17 8.2 C 20 %
940 24-03-2020 12:40:17 9 C 20 %
941 24-03-2020 12:50:17 9.2 C 20 %
942 24-03-2020 13:00:18 10.4 C 20 %
943 24-03-2020 13:10:18 11.7 C 20 %
944 24-03-2020 13:20:17 12.5 C 20 %
945 24-03-2020 13:30:17 13 C 20 %
946 24-03-2020 13:40:17 11.9 C 20 %
947 24-03-2020 13:50:18 11 C 20 %
948 24-03-2020 14:00:17 10.8 C 20 %
949 24-03-2020 14:10:17 11.3 C 20 %
950 24-03-2020 14:20:17 13.7 C 20 %
Sensor: Nr:Datum:Temp:Feuchte:
Aussen-T/F 951 24-03-2020 14:30:17 12.2 C 20 %
952 24-03-2020 14:40:17 14.4 C 20 %
953 24-03-2020 14:50:18 13.4 C 20 %
954 24-03-2020 15:00:18 13.5 C 20 %
955 24-03-2020 15:10:18 14.1 C 20 %
956 24-03-2020 15:20:18 15.3 C 20 %
957 24-03-2020 15:30:18 14.1 C 20 %
958 24-03-2020 15:40:18 15.4 C 20 %
959 24-03-2020 15:50:18 14.9 C 20 %
960 24-03-2020 16:00:18 14.8 C 20 %
961 24-03-2020 16:10:18 14.8 C 20 %
962 24-03-2020 16:20:18 14.1 C 20 %
963 24-03-2020 16:30:18 13.6 C 20 %
964 24-03-2020 16:40:18 14.3 C 20 %
965 24-03-2020 16:50:18 11.4 C 20 %
966 24-03-2020 17:00:18 10.8 C 20 %
967 24-03-2020 17:10:18 10.4 C 20 %
968 24-03-2020 17:20:18 10.1 C 20 %
969 24-03-2020 17:30:18 9.9 C 20 %
970 24-03-2020 17:40:18 9.6 C 20 %
971 24-03-2020 17:50:17 9.3 C 20 %
972 24-03-2020 18:00:17 9 C 20 %
973 24-03-2020 18:10:17 8.6 C 20 %
974 24-03-2020 18:20:17 8.4 C 20 %
975 24-03-2020 18:30:17 7.6 C 20 %
Sensor: Nr:Datum:Temp:Feuchte:
Aussen-T/F 976 24-03-2020 18:40:18 6.4 C 20 %
977 24-03-2020 18:50:17 5.4 C 20 %
978 24-03-2020 19:00:18 4.9 C 20 %
979 24-03-2020 19:10:18 4.6 C 20 %
980 24-03-2020 19:20:18 4.5 C 20 %
981 24-03-2020 19:30:18 4.1 C 20 %
982 24-03-2020 19:40:18 3.9 C 20 %
983 24-03-2020 19:50:17 3.6 C 20 %
984 24-03-2020 20:00:18 3.6 C 20 %
985 24-03-2020 20:10:18 3.5 C 20 %
986 24-03-2020 20:20:17 3.4 C 20 %
987 24-03-2020 20:30:18 3.4 C 20 %
988 24-03-2020 20:40:18 2.9 C 20 %
989 24-03-2020 20:50:18 2.7 C 20 %
990 24-03-2020 21:00:18 2.7 C 20 %
991 24-03-2020 21:10:18 2.6 C 20 %
992 24-03-2020 21:20:17 2.3 C 20 %
993 24-03-2020 21:30:17 2.3 C 20 %
994 24-03-2020 21:40:17 2.2 C 20 %
995 24-03-2020 21:50:17 2.2 C 20 %
996 24-03-2020 22:00:18 1.7 C 20 %
997 24-03-2020 22:10:18 1.6 C 20 %
998 24-03-2020 22:20:17 1.6 C 20 %
999 24-03-2020 22:30:18 0.3 C 25 %
1000 24-03-2020 22:40:18 -0.2 C 30 %
Sensor: Nr:Datum:Temp:Feuchte:
Aussen-T/F 1001 24-03-2020 22:50:17 -0.7 C 30 %
1002 24-03-2020 23:00:18 -1.2 C 32 %
1003 24-03-2020 23:10:18 -1.1 C 31 %
1004 24-03-2020 23:20:17 -1.4 C 31 %
1005 24-03-2020 23:30:18 -1.7 C 30 %
1006 24-03-2020 23:40:18 -0.9 C 30 %
1007 24-03-2020 23:50:18 -1.2 C 30 %
1008 25-03-2020 00:00:17 -1.6 C 30 %
1009 25-03-2020 00:10:17 -1.6 C 31 %
1010 25-03-2020 00:20:17 -1.8 C 32 %
1011 25-03-2020 00:30:17 -1.8 C 30 %
1012 25-03-2020 00:40:18 -1.9 C 31 %
1013 25-03-2020 00:50:17 -1.8 C 32 %
1014 25-03-2020 01:00:17 -1.6 C 32 %
1015 25-03-2020 01:10:18 -1.3 C 31 %
1016 25-03-2020 01:20:17 -1.1 C 30 %
1017 25-03-2020 01:30:18 -1.1 C 29 %
1018 25-03-2020 01:40:18 -0.9 C 28 %
1019 25-03-2020 01:50:17 -1.1 C 28 %
1020 25-03-2020 02:00:17 -1.1 C 28 %
1021 25-03-2020 02:10:18 -1.3 C 27 %
1022 25-03-2020 02:20:18 -1.4 C 29 %
1023 25-03-2020 02:30:18 -1.6 C 27 %
1024 25-03-2020 02:40:18 -1.5 C 27 %
1025 25-03-2020 02:50:18 -1.4 C 27 %
Sensor: Nr:Datum:Temp:Feuchte:
Aussen-T/F 1026 25-03-2020 03:00:18 -1.4 C 26 %
1027 25-03-2020 03:10:18 -1.4 C 26 %
1028 25-03-2020 03:20:17 -1.5 C 27 %
1029 25-03-2020 03:30:17 -2.3 C 30 %
1030 25-03-2020 03:40:17 -2.6 C 31 %
1031 25-03-2020 03:50:17 -2.8 C 32 %
1032 25-03-2020 04:00:17 -3.1 C 33 %
1033 25-03-2020 04:10:17 -3.2 C 34 %
1034 25-03-2020 04:20:17 -3.3 C 34 %
1035 25-03-2020 04:30:18 -3.3 C 34 %
1036 25-03-2020 04:40:18 -3 C 33 %
1037 25-03-2020 04:50:17 -3.2 C 33 %
1038 25-03-2020 05:00:18 -3 C 32 %
1039 25-03-2020 05:10:18 -2.6 C 32 %
1040 25-03-2020 05:20:17 -2.3 C 30 %
1041 25-03-2020 05:30:17 -2.5 C 30 %
1042 25-03-2020 05:40:17 -3.4 C 33 %
1043 25-03-2020 05:50:17 -4 C 35 %
1044 25-03-2020 06:00:17 -4.4 C 36 %
1045 25-03-2020 06:10:17 -4.2 C 36 %
1046 25-03-2020 06:20:17 -4.2 C 36 %
1047 25-03-2020 06:30:17 -4.4 C 36 %
1048 25-03-2020 06:40:17 -4.3 C 36 %
1049 25-03-2020 06:50:17 -4.3 C 36 %
1050 25-03-2020 07:00:17 -4.3 C 37 %
Sensor: Nr:Datum:Temp:Feuchte:
Aussen-T/F 1051 25-03-2020 07:10:17 -4.3 C 37 %
1052 25-03-2020 07:20:17 -4.1 C 37 %
1053 25-03-2020 07:30:17 -4 C 37 %
1054 25-03-2020 07:40:17 -3.8 C 37 %
1055 25-03-2020 07:50:17 -3.2 C 36 %
1056 25-03-2020 08:00:17 -2.6 C 35 %
1057 25-03-2020 08:10:17 -2 C 32 %
1058 25-03-2020 08:20:17 -2.7 C 35 %
1059 25-03-2020 08:30:17 -2 C 34 %
1060 25-03-2020 08:40:17 -1.9 C 34 %
1061 25-03-2020 08:50:17 -1.6 C 34 %
1062 25-03-2020 09:00:17 -1.5 C 34 %
1063 25-03-2020 09:10:17 -1.3 C 35 %
1064 25-03-2020 09:20:17 -1 C 35 %
1065 25-03-2020 09:30:17 -0.2 C 32 %
1066 25-03-2020 09:40:18 0.7 C 29 %
1067 25-03-2020 09:50:17 2.1 C 20 %
1068 25-03-2020 10:00:18 2.8 C 20 %
1069 25-03-2020 10:10:18 3.2 C 20 %
1070 25-03-2020 10:20:17 3.6 C 20 %
1071 25-03-2020 10:30:17 4.1 C 20 %
1072 25-03-2020 10:40:17 4.7 C 20 %
1073 25-03-2020 10:50:17 5.1 C 20 %
1074 25-03-2020 11:00:17 5.3 C 20 %
1075 25-03-2020 11:10:17 5.7 C 20 %
Sensor: Nr:Datum:Temp:Feuchte:
Aussen-T/F 1076 25-03-2020 11:20:17 7.2 C 20 %
1077 25-03-2020 11:30:18 7.7 C 20 %
1078 25-03-2020 11:40:18 7.3 C 20 %
1079 25-03-2020 11:50:17 6.8 C 20 %
1080 25-03-2020 12:00:17 7.8 C 20 %
1081 25-03-2020 12:10:17 8.3 C 20 %
1082 25-03-2020 12:20:17 8.4 C 20 %
1083 25-03-2020 12:30:17 8.4 C 20 %
1084 25-03-2020 12:40:17 8.6 C 20 %
1085 25-03-2020 12:50:17 10.3 C 20 %
1086 25-03-2020 13:00:17 11.2 C 20 %
1087 25-03-2020 13:10:17 12.2 C 20 %
1088 25-03-2020 13:20:18 13.8 C 20 %
1089 25-03-2020 13:30:18 14.5 C 20 %
1090 25-03-2020 13:40:18 12.4 C 20 %
1091 25-03-2020 13:50:18 12 C 20 %
1092 25-03-2020 14:00:18 11.3 C 20 %
1093 25-03-2020 14:10:18 11.1 C 20 %
1094 25-03-2020 14:20:17 13.2 C 20 %
1095 25-03-2020 14:30:17 13.5 C 20 %
1096 25-03-2020 14:40:17 12.7 C 20 %
1097 25-03-2020 14:50:17 13.5 C 20 %
1098 25-03-2020 15:00:17 13.8 C 20 %
1099 25-03-2020 15:10:17 14.1 C 20 %
1100 25-03-2020 15:20:18 14.9 C 20 %
Sensor: Nr:Datum:Temp:Feuchte:
Aussen-T/F 1101 25-03-2020 15:30:18 14.4 C 20 %
1102 25-03-2020 15:40:18 14.4 C 20 %
1103 25-03-2020 15:50:17 15 C 20 %
1104 25-03-2020 16:00:18 15.3 C 20 %
1105 25-03-2020 16:10:18 14.5 C 20 %
1106 25-03-2020 16:20:17 15.7 C 20 %
1107 25-03-2020 16:30:17 13.8 C 20 %
1108 25-03-2020 16:40:17 12.9 C 20 %
1109 25-03-2020 16:50:18 12.2 C 20 %
1110 25-03-2020 17:00:18 11.9 C 20 %
1111 25-03-2020 17:10:18 11.5 C 20 %
1112 25-03-2020 17:20:17 11.1 C 20 %
1113 25-03-2020 17:30:17 11 C 20 %
1114 25-03-2020 17:40:17 10.7 C 20 %
1115 25-03-2020 17:50:17 10.5 C 20 %
1116 25-03-2020 18:00:18 10.5 C 20 %
1117 25-03-2020 18:10:18 10.1 C 20 %
1118 25-03-2020 18:20:17 9.6 C 20 %
1119 25-03-2020 18:30:18 8.8 C 20 %
1120 25-03-2020 18:40:18 7.7 C 20 %
1121 25-03-2020 18:50:18 7 C 20 %
1122 25-03-2020 19:00:18 6.3 C 20 %
1123 25-03-2020 19:10:18 6.1 C 20 %
1124 25-03-2020 19:20:17 5.4 C 20 %
1125 25-03-2020 19:30:18 5.8 C 20 %
Sensor: Nr:Datum:Temp:Feuchte:
Aussen-T/F 1126 25-03-2020 19:40:18 5.1 C 20 %
1127 25-03-2020 19:50:17 4.6 C 20 %
1128 25-03-2020 20:00:17 4.5 C 20 %
1129 25-03-2020 20:10:17 4.1 C 20 %
1130 25-03-2020 20:20:17 4 C 20 %
1131 25-03-2020 20:30:18 4.7 C 20 %
1132 25-03-2020 20:40:18 4.3 C 20 %
1133 25-03-2020 20:50:17 3.8 C 20 %
1134 25-03-2020 21:00:18 4.6 C 20 %
1135 25-03-2020 21:10:18 4.6 C 20 %
1136 25-03-2020 21:20:17 4.3 C 20 %
1137 25-03-2020 21:30:17 4.3 C 20 %
1138 25-03-2020 21:40:17 4 C 20 %
1139 25-03-2020 21:50:17 3.6 C 20 %
1140 25-03-2020 22:00:17 2.8 C 20 %
1141 25-03-2020 22:10:17 2.6 C 20 %
1142 25-03-2020 22:20:17 2.6 C 20 %
1143 25-03-2020 22:30:18 2.1 C 20 %
1144 25-03-2020 22:40:18 2.3 C 20 %
1145 25-03-2020 22:50:18 2.1 C 20 %
1146 25-03-2020 23:00:18 1.7 C 20 %
1147 25-03-2020 23:10:18 1.7 C 23 %
1148 25-03-2020 23:20:17 1.6 C 23 %
1149 25-03-2020 23:30:18 1.5 C 21 %
1150 25-03-2020 23:40:18 1.8 C 20 %
Sensor: Nr:Datum:Temp:Feuchte:
Aussen-T/F 1151 25-03-2020 23:50:18 1.8 C 20 %
1152 26-03-2020 00:00:18 1.4 C 21 %
1153 26-03-2020 00:10:18 1.2 C 21 %
1154 26-03-2020 00:20:18 1.3 C 21 %
1155 26-03-2020 00:30:18 0.9 C 23 %
1156 26-03-2020 00:40:18 0.9 C 25 %
1157 26-03-2020 00:50:18 1 C 23 %
1158 26-03-2020 01:00:18 0.7 C 25 %
1159 26-03-2020 01:10:18 0.4 C 25 %
1160 26-03-2020 01:20:17 0.5 C 25 %
1161 26-03-2020 01:30:17 0.7 C 25 %
1162 26-03-2020 01:40:17 0.7 C 23 %
1163 26-03-2020 01:50:17 0.7 C 21 %
1164 26-03-2020 02:00:17 0.6 C 23 %
1165 26-03-2020 02:10:17 0.7 C 21 %
1166 26-03-2020 02:20:17 0.7 C 21 %
1167 26-03-2020 02:30:17 0.6 C 21 %
1168 26-03-2020 02:40:18 0.4 C 21 %
1169 26-03-2020 02:50:17 0.3 C 23 %
1170 26-03-2020 03:00:17 0 C 23 %
1171 26-03-2020 03:10:18 0.1 C 23 %
1172 26-03-2020 03:20:18 0 C 23 %
1173 26-03-2020 03:30:18 -0.3 C 25 %
1174 26-03-2020 03:40:18 -0.3 C 27 %
1175 26-03-2020 03:50:17 -0.4 C 27 %
Sensor: Nr:Datum:Temp:Feuchte:
Aussen-T/F 1176 26-03-2020 04:00:17 -0.1 C 26 %
1177 26-03-2020 04:10:17 -0.3 C 25 %
1178 26-03-2020 04:20:17 -0.3 C 26 %
1179 26-03-2020 04:30:18 -0.4 C 26 %
1180 26-03-2020 04:40:18 -0.4 C 26 %
1181 26-03-2020 04:50:17 -0.5 C 26 %
1182 26-03-2020 05:00:18 -0.5 C 27 %
1183 26-03-2020 05:10:18 -0.6 C 27 %
1184 26-03-2020 05:20:17 -0.6 C 28 %
1185 26-03-2020 05:30:17 -0.7 C 28 %
1186 26-03-2020 05:40:18 -0.5 C 28 %
1187 26-03-2020 05:50:17 -0.6 C 28 %
1188 26-03-2020 06:00:18 -0.7 C 29 %
1189 26-03-2020 06:10:18 -0.8 C 28 %
1190 26-03-2020 06:20:18 -0.9 C 28 %
1191 26-03-2020 06:30:18 -1 C 28 %
1192 26-03-2020 06:40:18 -0.9 C 30 %
1193 26-03-2020 06:50:18 -1.1 C 30 %
1194 26-03-2020 07:00:18 -0.8 C 30 %
1195 26-03-2020 07:10:18 -1.1 C 30 %
1196 26-03-2020 07:20:18 -0.6 C 30 %
1197 26-03-2020 07:30:18 -0.4 C 30 %
1198 26-03-2020 07:40:18 0.2 C 27 %
1199 26-03-2020 07:50:17 0.5 C 25 %
1200 26-03-2020 08:00:18 0.3 C 28 %
Sensor: Nr:Datum:Temp:Feuchte:
Aussen-T/F 1201 26-03-2020 08:10:18 0.4 C 28 %
1202 26-03-2020 08:20:18 0.7 C 26 %
1203 26-03-2020 08:30:18 1.4 C 21 %
1204 26-03-2020 08:40:18 1.7 C 21 %
1205 26-03-2020 08:50:17 2.2 C 20 %
1206 26-03-2020 09:00:18 2.3 C 20 %
1207 26-03-2020 09:10:18 2.3 C 20 %
1208 26-03-2020 09:20:18 2.7 C 20 %
1209 26-03-2020 09:30:18 3.2 C 20 %
1210 26-03-2020 09:40:18 3.5 C 20 %
1211 26-03-2020 09:50:18 4.1 C 20 %
1212 26-03-2020 10:00:18 4.4 C 20 %
1213 26-03-2020 10:10:18 4.9 C 20 %
1214 26-03-2020 10:20:18 5 C 20 %
1215 26-03-2020 10:30:18 5.4 C 20 %
1216 26-03-2020 10:40:18 5.9 C 20 %
1217 26-03-2020 10:50:17 6 C 20 %
1218 26-03-2020 11:00:18 6.6 C 20 %
1219 26-03-2020 11:10:18 6.9 C 20 %
1220 26-03-2020 11:20:18 7.3 C 20 %
1221 26-03-2020 11:30:18 8.5 C 20 %
1222 26-03-2020 11:40:18 8.3 C 20 %
1223 26-03-2020 11:50:18 7.3 C 20 %
1224 26-03-2020 12:00:18 8 C 20 %
1225 26-03-2020 12:10:18 9.1 C 20 %
Sensor: Nr:Datum:Temp:Feuchte:
Aussen-T/F 1226 26-03-2020 12:20:17 9.6 C 20 %
1227 26-03-2020 12:30:17 9.6 C 20 %
1228 26-03-2020 12:40:17 9.6 C 20 %
1229 26-03-2020 12:50:17 9.7 C 20 %
1230 26-03-2020 13:00:17 10.4 C 20 %
1231 26-03-2020 13:10:17 10.8 C 20 %
1232 26-03-2020 13:20:18 11.5 C 20 %
1233 26-03-2020 13:30:18 11.5 C 20 %
1234 26-03-2020 13:40:18 12.1 C 20 %
1235 26-03-2020 13:50:18 13 C 20 %
1236 26-03-2020 14:00:18 12 C 20 %
1237 26-03-2020 14:10:18 12.2 C 20 %
1238 26-03-2020 14:20:18 11.9 C 20 %
1239 26-03-2020 14:30:18 14.3 C 20 %
1240 26-03-2020 14:40:18 14.2 C 20 %
1241 26-03-2020 14:50:17 14 C 20 %
1242 26-03-2020 15:00:17 15.3 C 20 %
1243 26-03-2020 15:10:18 14.2 C 20 %
1244 26-03-2020 15:20:18 14 C 20 %
1245 26-03-2020 15:30:18 15.6 C 20 %
1246 26-03-2020 15:40:18 15.6 C 20 %
1247 26-03-2020 15:50:18 16.5 C 20 %
1248 26-03-2020 16:00:18 15.6 C 20 %
1249 26-03-2020 16:10:18 15.3 C 20 %
1250 26-03-2020 16:20:18 12.5 C 20 %
Sensor: Nr:Datum:Temp:Feuchte:
Aussen-T/F 1251 26-03-2020 16:30:18 12.3 C 20 %
1252 26-03-2020 16:40:18 13.9 C 20 %
1253 26-03-2020 16:50:18 12.8 C 20 %
1254 26-03-2020 17:00:18 11.4 C 20 %
1255 26-03-2020 17:10:18 11 C 20 %
1256 26-03-2020 17:20:17 10.9 C 20 %
1257 26-03-2020 17:30:17 11 C 20 %
1258 26-03-2020 17:40:17 11.1 C 20 %
1259 26-03-2020 17:50:17 10.7 C 20 %
1260 26-03-2020 18:00:17 10.5 C 20 %
1261 26-03-2020 18:10:17 10.3 C 20 %
1262 26-03-2020 18:20:18 10.1 C 20 %
1263 26-03-2020 18:30:18 9.8 C 20 %
1264 26-03-2020 18:40:18 9.4 C 20 %
1265 26-03-2020 18:50:17 8.6 C 20 %
1266 26-03-2020 19:00:17 8 C 20 %
1267 26-03-2020 19:10:17 7.4 C 20 %
1268 26-03-2020 19:20:17 6.9 C 21 %
1269 26-03-2020 19:30:17 6.7 C 21 %
1270 26-03-2020 19:40:17 6.4 C 21 %
1271 26-03-2020 19:50:17 6.5 C 21 %
1272 26-03-2020 20:00:17 6.2 C 23 %
1273 26-03-2020 20:10:18 6 C 23 %
1274 26-03-2020 20:20:18 5.7 C 25 %
1275 26-03-2020 20:30:17 5.4 C 26 %
Sensor: Nr:Datum:Temp:Feuchte:
Aussen-T/F 1276 26-03-2020 20:40:17 4.9 C 28 %
1277 26-03-2020 20:50:17 4.9 C 28 %
1278 26-03-2020 21:00:17 4.7 C 29 %
1279 26-03-2020 21:10:17 4.5 C 29 %
1280 26-03-2020 21:20:17 4.5 C 30 %
1281 26-03-2020 21:30:18 4.1 C 30 %
1282 26-03-2020 21:40:18 4.6 C 30 %
1283 26-03-2020 21:50:18 4.6 C 30 %
1284 26-03-2020 22:00:18 4.6 C 30 %
1285 26-03-2020 22:10:18 4.6 C 30 %
1286 26-03-2020 22:20:17 4.5 C 30 %
1287 26-03-2020 22:30:17 4.5 C 30 %
1288 26-03-2020 22:40:17 4.5 C 30 %
1289 26-03-2020 22:50:17 4.4 C 30 %
1290 26-03-2020 23:00:18 4.5 C 30 %
1291 26-03-2020 23:10:18 4.2 C 30 %
1292 26-03-2020 23:20:17 4.2 C 30 %
1293 26-03-2020 23:30:18 3.9 C 31 %
1294 26-03-2020 23:40:18 4 C 30 %
1295 26-03-2020 23:50:18 3.9 C 31 %
1296 27-03-2020 00:00:18 4 C 30 %
1297 27-03-2020 00:10:18 3.9 C 31 %
1298 27-03-2020 00:20:17 4 C 30 %
1299 27-03-2020 00:30:17 4 C 30 %
1300 27-03-2020 00:40:17 3.7 C 32 %
Sensor: Nr:Datum:Temp:Feuchte:
Aussen-T/F 1301 27-03-2020 00:50:18 3.6 C 32 %
1302 27-03-2020 01:00:18 2.7 C 35 %
1303 27-03-2020 01:10:18 2.5 C 36 %
1304 27-03-2020 01:20:17 3 C 35 %
1305 27-03-2020 01:30:18 3.1 C 35 %
1306 27-03-2020 01:40:18 2.7 C 36 %
1307 27-03-2020 01:50:18 3 C 35 %
1308 27-03-2020 02:00:18 2.9 C 35 %
1309 27-03-2020 02:10:18 2.8 C 35 %
1310 27-03-2020 02:20:17 2.7 C 35 %
1311 27-03-2020 02:30:17 2.5 C 36 %
1312 27-03-2020 02:40:17 2.5 C 36 %
1313 27-03-2020 02:50:17 2.6 C 35 %
1314 27-03-2020 03:00:17 2.6 C 35 %
1315 27-03-2020 03:10:17 2.2 C 36 %
1316 27-03-2020 03:20:17 2.5 C 35 %
1317 27-03-2020 03:30:17 2.4 C 35 %
1318 27-03-2020 03:40:17 2.6 C 35 %
1319 27-03-2020 03:50:17 2.4 C 36 %
1320 27-03-2020 04:00:18 2.4 C 35 %
1321 27-03-2020 04:10:18 2.4 C 35 %
1322 27-03-2020 04:20:18 1.4 C 38 %
1323 27-03-2020 04:30:18 1.3 C 38 %
1324 27-03-2020 04:40:18 1.6 C 38 %
1325 27-03-2020 04:50:17 1.8 C 37 %
Sensor: Nr:Datum:Temp:Feuchte:
Aussen-T/F 1326 27-03-2020 05:00:18 1.5 C 38 %
1327 27-03-2020 05:10:18 0.7 C 40 %
1328 27-03-2020 05:20:18 0.4 C 40 %
1329 27-03-2020 05:30:18 0 C 41 %
1330 27-03-2020 05:40:18 0 C 42 %
1331 27-03-2020 05:50:18 -0.1 C 42 %
1332 27-03-2020 06:00:18 -0.5 C 42 %
1333 27-03-2020 06:10:18 -0.6 C 43 %
1334 27-03-2020 06:20:18 -0.4 C 43 %
1335 27-03-2020 06:30:18 -0.4 C 43 %
1336 27-03-2020 06:40:18 -0.3 C 43 %
1337 27-03-2020 06:50:17 -0.3 C 43 %
1338 27-03-2020 07:00:18 -0.2 C 43 %
1339 27-03-2020 07:10:18 -0.1 C 43 %
1340 27-03-2020 07:20:18 0.1 C 43 %
1341 27-03-2020 07:30:18 0.3 C 43 %
1342 27-03-2020 07:40:18 0.8 C 43 %
1343 27-03-2020 07:50:17 1.2 C 41 %
1344 27-03-2020 08:00:17 1.1 C 41 %
1345 27-03-2020 08:10:18 1.9 C 40 %
1346 27-03-2020 08:20:18 1.7 C 40 %
1347 27-03-2020 08:30:18 1.6 C 41 %
1348 27-03-2020 08:40:18 1.9 C 41 %
1349 27-03-2020 08:50:17 2.6 C 39 %
1350 27-03-2020 09:00:18 3 C 38 %
Sensor: Nr:Datum:Temp:Feuchte:
Aussen-T/F 1351 27-03-2020 09:10:18 3.3 C 37 %
1352 27-03-2020 09:20:17 3.6 C 37 %
1353 27-03-2020 09:30:18 4.1 C 36 %
1354 27-03-2020 09:40:18 4.5 C 35 %
1355 27-03-2020 09:50:18 5.3 C 35 %
1356 27-03-2020 10:00:18 5.8 C 34 %
1357 27-03-2020 10:10:18 6.5 C 32 %
1358 27-03-2020 10:20:17 7.6 C 30 %
1359 27-03-2020 10:30:17 8.1 C 28 %
1360 27-03-2020 10:40:17 9.1 C 25 %
1361 27-03-2020 10:50:17 9.3 C 25 %
1362 27-03-2020 11:00:17 10.2 C 20 %
1363 27-03-2020 11:10:17 11 C 20 %
1364 27-03-2020 11:20:17 12.4 C 20 %
1365 27-03-2020 11:30:17 14.5 C 20 %
1366 27-03-2020 11:40:17 14.2 C 20 %
1367 27-03-2020 11:50:17 12.5 C 20 %
1368 27-03-2020 12:00:17 13.4 C 20 %
1369 27-03-2020 12:10:17 13.7 C 20 %
1370 27-03-2020 12:20:17 14.4 C 20 %
1371 27-03-2020 12:30:17 14.1 C 20 %
1372 27-03-2020 12:40:18 14.2 C 20 %
1373 27-03-2020 12:50:18 14.6 C 20 %
1374 27-03-2020 13:00:18 16.6 C 20 %
1375 27-03-2020 13:10:18 15.8 C 20 %
Sensor: Nr:Datum:Temp:Feuchte:
Aussen-T/F 1376 27-03-2020 13:20:17 17.6 C 20 %
1377 27-03-2020 13:30:18 18.8 C 20 %
1378 27-03-2020 13:40:18 16.8 C 20 %
1379 27-03-2020 13:50:18 17.3 C 20 %
1380 27-03-2020 14:00:18 16.9 C 20 %
1381 27-03-2020 14:10:18 17.6 C 20 %
1382 27-03-2020 14:20:18 17.7 C 20 %
1383 27-03-2020 14:30:17 20.4 C 20 %
1384 27-03-2020 14:40:17 18.1 C 20 %
1385 27-03-2020 14:50:17 18.4 C 20 %
1386 27-03-2020 15:00:17 18.5 C 20 %
1387 27-03-2020 15:10:17 18.7 C 20 %
1388 27-03-2020 15:20:17 18.9 C 20 %
1389 27-03-2020 15:30:18 19.4 C 20 %
1390 27-03-2020 15:40:18 18.3 C 20 %
1391 27-03-2020 15:50:17 19.5 C 20 %
1392 27-03-2020 16:00:17 18.5 C 20 %
1393 27-03-2020 16:10:17 18.2 C 20 %
1394 27-03-2020 16:20:17 19.2 C 20 %
1395 27-03-2020 16:30:17 18.3 C 20 %
1396 27-03-2020 16:40:17 18 C 20 %
1397 27-03-2020 16:50:17 17 C 20 %
1398 27-03-2020 17:00:18 16.4 C 20 %
1399 27-03-2020 17:10:18 16.3 C 20 %
1400 27-03-2020 17:20:18 16.1 C 20 %
Sensor: Nr:Datum:Temp:Feuchte:
Aussen-T/F 1401 27-03-2020 17:30:18 16 C 20 %
1402 27-03-2020 17:40:18 15.8 C 20 %
1403 27-03-2020 17:50:18 15.7 C 20 %
1404 27-03-2020 18:00:17 15.4 C 20 %
1405 27-03-2020 18:10:17 15 C 20 %
1406 27-03-2020 18:20:17 14.1 C 20 %
1407 27-03-2020 18:30:18 13.5 C 20 %
1408 27-03-2020 18:40:18 12.9 C 20 %
1409 27-03-2020 18:50:18 12.3 C 20 %
1410 27-03-2020 19:00:18 11.8 C 20 %
1411 27-03-2020 19:10:18 11.5 C 20 %
1412 27-03-2020 19:20:17 11.4 C 20 %
1413 27-03-2020 19:30:17 10.7 C 20 %
1414 27-03-2020 19:40:17 10.7 C 21 %
1415 27-03-2020 19:50:17 10.4 C 23 %
1416 27-03-2020 20:00:18 10.4 C 22 %
1417 27-03-2020 20:10:18 9.2 C 26 %
1418 27-03-2020 20:20:17 8.9 C 28 %
1419 27-03-2020 20:30:17 8.4 C 30 %
1420 27-03-2020 20:40:17 8.1 C 30 %
1421 27-03-2020 20:50:18 7.8 C 31 %
1422 27-03-2020 21:00:17 7.4 C 31 %
1423 27-03-2020 21:10:17 7.3 C 32 %
1424 27-03-2020 21:20:17 7.1 C 32 %
1425 27-03-2020 21:30:17 7 C 32 %
Sensor: Nr:Datum:Temp:Feuchte:
Aussen-T/F 1426 27-03-2020 21:40:17 6.6 C 33 %
1427 27-03-2020 21:50:17 6.6 C 34 %
1428 27-03-2020 22:00:17 6.4 C 34 %
1429 27-03-2020 22:10:17 6.3 C 34 %
1430 27-03-2020 22:20:17 6 C 35 %
1431 27-03-2020 22:30:18 5.8 C 35 %
1432 27-03-2020 22:40:18 5.6 C 35 %
1433 27-03-2020 22:50:18 5.5 C 36 %
1434 27-03-2020 23:00:18 5.6 C 36 %
1435 27-03-2020 23:10:18 5.6 C 36 %
1436 27-03-2020 23:20:17 5.3 C 36 %
1437 27-03-2020 23:30:17 5.2 C 36 %
1438 27-03-2020 23:40:17 5.1 C 36 %
1439 27-03-2020 23:50:17 4.8 C 37 %
1440 28-03-2020 00:00:17 4.8 C 38 %
1441 28-03-2020 00:10:17 4.8 C 39 %
1442 28-03-2020 00:20:17 5 C 37 %
1443 28-03-2020 00:30:18 4.9 C 38 %
1444 28-03-2020 00:40:18 4.7 C 38 %
1445 28-03-2020 00:50:17 4.7 C 38 %
1446 28-03-2020 01:00:17 4.6 C 38 %
1447 28-03-2020 01:10:17 4.4 C 39 %
1448 28-03-2020 01:20:17 4.3 C 39 %
1449 28-03-2020 01:30:17 4.1 C 39 %
1450 28-03-2020 01:40:18 3.9 C 40 %
Sensor: Nr:Datum:Temp:Feuchte:
Aussen-T/F 1451 28-03-2020 01:50:17 3.7 C 41 %
1452 28-03-2020 02:00:18 3.6 C 41 %
1453 28-03-2020 02:10:18 3.3 C 41 %
1454 28-03-2020 02:20:18 3.1 C 41 %
1455 28-03-2020 02:30:17 3.7 C 42 %
1456 28-03-2020 02:40:17 3.7 C 41 %
1457 28-03-2020 02:50:18 3.4 C 41 %
1458 28-03-2020 03:00:18 3.1 C 41 %
1459 28-03-2020 03:10:18 2.9 C 42 %
1460 28-03-2020 03:20:17 2.8 C 43 %
1461 28-03-2020 03:30:18 2.6 C 43 %
1462 28-03-2020 03:40:18 2.1 C 43 %
1463 28-03-2020 03:50:17 2.1 C 44 %
1464 28-03-2020 04:00:18 2.2 C 44 %
1465 28-03-2020 04:10:18 2.1 C 44 %
1466 28-03-2020 04:20:18 1.9 C 45 %
1467 28-03-2020 04:30:18 1.7 C 45 %
1468 28-03-2020 04:40:18 1.8 C 46 %
1469 28-03-2020 04:50:17 1.8 C 46 %
1470 28-03-2020 05:00:18 1.7 C 45 %
1471 28-03-2020 05:10:18 1.6 C 45 %
1472 28-03-2020 05:20:17 1.5 C 45 %
1473 28-03-2020 05:30:18 1.3 C 46 %
1474 28-03-2020 05:40:18 1.2 C 46 %
1475 28-03-2020 05:50:18 1.2 C 46 %
Sensor: Nr:Datum:Temp:Feuchte:
Aussen-T/F 1476 28-03-2020 06:00:18 1.2 C 46 %
1477 28-03-2020 06:10:18 1.3 C 46 %
1478 28-03-2020 06:20:17 1.1 C 46 %
1479 28-03-2020 06:30:17 1.1 C 46 %
1480 28-03-2020 06:40:17 1 C 46 %
1481 28-03-2020 06:50:17 1.2 C 47 %
1482 28-03-2020 07:00:17 1.5 C 47 %
1483 28-03-2020 07:10:17 1.7 C 47 %
1484 28-03-2020 07:20:17 1.9 C 47 %
1485 28-03-2020 07:30:18 1.9 C 46 %
1486 28-03-2020 07:40:18 1.9 C 46 %
1487 28-03-2020 07:50:17 2 C 45 %
1488 28-03-2020 08:00:17 2.2 C 45 %
1489 28-03-2020 08:10:18 2.5 C 45 %
1490 28-03-2020 08:20:18 2.8 C 46 %
1491 28-03-2020 08:30:17 3.2 C 45 %
1492 28-03-2020 08:40:17 3.7 C 44 %
1493 28-03-2020 08:50:18 4 C 43 %
1494 28-03-2020 09:00:18 4.6 C 43 %
1495 28-03-2020 09:10:18 5.1 C 41 %
1496 28-03-2020 09:20:17 5.7 C 41 %
1497 28-03-2020 09:30:18 6.3 C 40 %
1498 28-03-2020 09:40:18 6.9 C 40 %
1499 28-03-2020 09:50:18 7.8 C 38 %
1500 28-03-2020 10:00:18 8.4 C 37 %
Sensor: Nr:Datum:Temp:Feuchte:
Aussen-T/F 1501 28-03-2020 10:10:18 9.5 C 35 %
1502 28-03-2020 10:20:17 10.2 C 32 %
1503 28-03-2020 10:30:17 10.9 C 31 %
1504 28-03-2020 10:40:17 11.6 C 30 %
1505 28-03-2020 10:50:18 12.2 C 29 %
1506 28-03-2020 11:00:18 13.4 C 26 %
1507 28-03-2020 11:10:18 13.6 C 25 %
1508 28-03-2020 11:20:17 15.8 C 20 %
1509 28-03-2020 11:30:17 16.7 C 20 %
1510 28-03-2020 11:40:17 16.4 C 20 %
1511 28-03-2020 11:50:18 15.9 C 20 %
1512 28-03-2020 12:00:17 16.6 C 20 %
1513 28-03-2020 12:10:17 17 C 20 %
1514 28-03-2020 12:20:17 17.7 C 20 %
1515 28-03-2020 12:30:17 17.8 C 20 %
1516 28-03-2020 12:40:17 18.1 C 20 %
1517 28-03-2020 12:50:18 18 C 20 %
1518 28-03-2020 13:00:18 18.6 C 20 %
1519 28-03-2020 13:10:18 19.6 C 20 %
1520 28-03-2020 13:20:18 21.7 C 20 %
1521 28-03-2020 13:30:17 21.1 C 20 %
1522 28-03-2020 13:40:17 20.7 C 20 %
1523 28-03-2020 13:50:18 20.6 C 20 %
1524 28-03-2020 14:00:17 21.1 C 20 %
1525 28-03-2020 14:10:17 21.3 C 20 %
Sensor: Nr:Datum:Temp:Feuchte:
Aussen-T/F 1526 28-03-2020 14:20:17 21.9 C 20 %
1527 28-03-2020 14:30:17 23.7 C 20 %
1528 28-03-2020 14:40:17 24.3 C 20 %
1529 28-03-2020 14:50:17 23.2 C 20 %
1530 28-03-2020 15:00:18 22.4 C 20 %
1531 28-03-2020 15:10:18 19.9 C 20 %
1532 28-03-2020 15:20:18 18.6 C 20 %
1533 28-03-2020 15:30:18 19.6 C 20 %
1534 28-03-2020 15:40:18 22.1 C 20 %
1535 28-03-2020 15:50:18 20.5 C 20 %
1536 28-03-2020 16:00:18 21.1 C 20 %
1537 28-03-2020 16:10:18 21.1 C 20 %
1538 28-03-2020 16:20:18 19.9 C 20 %
1539 28-03-2020 16:30:18 19.6 C 20 %
1540 28-03-2020 16:40:18 19.6 C 20 %
1541 28-03-2020 16:50:18 18.5 C 20 %
1542 28-03-2020 17:00:18 17.9 C 20 %
1543 28-03-2020 17:10:18 17 C 20 %
1544 28-03-2020 17:20:18 16.6 C 20 %
1545 28-03-2020 17:30:18 16.2 C 20 %
1546 28-03-2020 17:40:18 16.2 C 20 %
1547 28-03-2020 17:50:17 15.4 C 20 %
1548 28-03-2020 18:00:18 14.9 C 20 %
1549 28-03-2020 18:10:18 14.6 C 20 %
1550 28-03-2020 18:20:17 14 C 20 %
Sensor: Nr:Datum:Temp:Feuchte:
Aussen-T/F 1551 28-03-2020 18:30:17 13.5 C 20 %
1552 28-03-2020 18:40:17 13.1 C 20 %
1553 28-03-2020 18:50:18 12.6 C 20 %
1554 28-03-2020 19:00:18 12.3 C 20 %
1555 28-03-2020 19:10:18 11.7 C 20 %
1556 28-03-2020 19:20:18 11.7 C 20 %
1557 28-03-2020 19:30:18 11.4 C 20 %
1558 28-03-2020 19:40:18 11.2 C 20 %
1559 28-03-2020 19:50:17 10.8 C 20 %
1560 28-03-2020 20:00:18 10.3 C 20 %
1561 28-03-2020 20:10:18 10.7 C 20 %
1562 28-03-2020 20:20:17 10.5 C 20 %
1563 28-03-2020 20:30:18 10 C 20 %
1564 28-03-2020 20:40:18 9.2 C 20 %
1565 28-03-2020 20:50:17 8.7 C 20 %
1566 28-03-2020 21:00:17 8.8 C 20 %
1567 28-03-2020 21:10:17 9.2 C 20 %
1568 28-03-2020 21:20:17 8.7 C 23 %
1569 28-03-2020 21:30:17 8.1 C 25 %
1570 28-03-2020 21:40:17 8.4 C 23 %
1571 28-03-2020 21:50:17 7.6 C 25 %
1572 28-03-2020 22:00:17 8.3 C 25 %
1573 28-03-2020 22:10:17 8.5 C 21 %
1574 28-03-2020 22:20:17 8.4 C 25 %
1575 28-03-2020 22:30:17 8.3 C 26 %
Sensor: Nr:Datum:Temp:Feuchte:
Aussen-T/F 1576 28-03-2020 22:40:17 7.9 C 26 %
1577 28-03-2020 22:50:17 7.4 C 28 %
1578 28-03-2020 23:00:17 7.3 C 30 %
1579 28-03-2020 23:10:17 7.2 C 30 %
1580 28-03-2020 23:20:18 7.1 C 30 %
1581 28-03-2020 23:30:18 7.1 C 31 %
1582 28-03-2020 23:40:18 6.8 C 32 %
1583 28-03-2020 23:50:17 6.7 C 33 %
1584 29-03-2020 00:00:18 6.5 C 33 %
1585 29-03-2020 00:10:18 6.4 C 33 %
1586 29-03-2020 00:20:17 6.2 C 33 %
1587 29-03-2020 00:30:17 6.5 C 33 %
1588 29-03-2020 00:40:17 6.6 C 33 %
1589 29-03-2020 00:50:18 6.5 C 32 %
1590 29-03-2020 01:00:18 6.3 C 32 %
1591 29-03-2020 01:10:18 6.3 C 32 %
1592 29-03-2020 01:20:17 6.2 C 32 %
1593 29-03-2020 01:30:17 6.1 C 32 %
1594 29-03-2020 01:40:17 6 C 31 %
1595 29-03-2020 01:50:17 6 C 31 %
1596 29-03-2020 02:00:17 5.8 C 31 %
1597 29-03-2020 02:10:17 5.7 C 31 %
1598 29-03-2020 02:20:18 5.4 C 31 %
1599 29-03-2020 02:30:18 5 C 31 %
1600 29-03-2020 02:40:18 4.7 C 32 %
Sensor: Nr:Datum:Temp:Feuchte:
Aussen-T/F 1601 29-03-2020 02:50:18 4.7 C 32 %
1602 29-03-2020 04:00:18 4.6 C 31 %
1603 29-03-2020 04:10:18 4.2 C 32 %
1604 29-03-2020 04:20:17 4.1 C 31 %
1605 29-03-2020 04:30:17 4.3 C 31 %
1606 29-03-2020 04:40:17 4.4 C 31 %
1607 29-03-2020 04:50:18 4.3 C 31 %
1608 29-03-2020 05:00:17 4.4 C 32 %
1609 29-03-2020 05:10:17 4.3 C 32 %
1610 29-03-2020 05:20:17 4.2 C 31 %
1611 29-03-2020 05:30:17 4 C 31 %
1612 29-03-2020 05:40:17 3.8 C 32 %
1613 29-03-2020 05:50:18 3.5 C 32 %
1614 29-03-2020 06:00:18 3.1 C 32 %
1615 29-03-2020 06:10:18 2.8 C 33 %
1616 29-03-2020 06:20:17 2.5 C 33 %
1617 29-03-2020 06:30:18 2.9 C 33 %
1618 29-03-2020 06:40:18 3.2 C 32 %
1619 29-03-2020 06:50:17 3.3 C 33 %
1620 29-03-2020 07:00:18 3.4 C 33 %
1621 29-03-2020 07:10:18 3.5 C 34 %
1622 29-03-2020 07:20:17 3.5 C 35 %
1623 29-03-2020 07:30:17 3.6 C 35 %
1624 29-03-2020 07:40:17 3.7 C 35 %
1625 29-03-2020 07:50:17 3.7 C 35 %
Sensor: Nr:Datum:Temp:Feuchte:
Aussen-T/F 1626 29-03-2020 08:00:18 3.8 C 35 %
1627 29-03-2020 08:10:18 3.8 C 35 %
1628 29-03-2020 08:20:17 4.1 C 33 %
1629 29-03-2020 08:30:17 4.1 C 33 %
1630 29-03-2020 08:40:17 4.3 C 33 %
1631 29-03-2020 08:50:17 4 C 33 %
1632 29-03-2020 09:00:17 4.3 C 33 %
1633 29-03-2020 09:10:17 4.2 C 32 %
1634 29-03-2020 09:20:17 4.1 C 33 %
1635 29-03-2020 09:30:17 4.2 C 33 %
1636 29-03-2020 09:40:17 4.5 C 32 %
1637 29-03-2020 09:50:17 4.8 C 32 %
1638 29-03-2020 10:00:17 5 C 31 %
1639 29-03-2020 10:10:17 5.3 C 31 %
1640 29-03-2020 10:20:17 5.8 C 30 %
1641 29-03-2020 10:30:18 5.6 C 30 %
1642 29-03-2020 10:40:18 6.2 C 30 %
1643 29-03-2020 10:50:17 6.2 C 28 %
1644 29-03-2020 11:00:18 6.5 C 25 %
1645 29-03-2020 11:10:18 6.5 C 25 %
1646 29-03-2020 11:20:18 6 C 25 %
1647 29-03-2020 11:30:18 6.1 C 25 %
1648 29-03-2020 11:40:18 6.2 C 25 %
1649 29-03-2020 11:50:17 6.3 C 25 %
1650 29-03-2020 12:00:17 6.2 C 25 %
Sensor: Nr:Datum:Temp:Feuchte:
Aussen-T/F 1651 29-03-2020 12:10:17 5.6 C 27 %
1652 29-03-2020 12:20:17 5.5 C 27 %
1653 29-03-2020 12:30:17 5.7 C 27 %
1654 29-03-2020 12:40:17 5.8 C 26 %
1655 29-03-2020 12:50:18 6.4 C 26 %
1656 29-03-2020 13:00:18 6.3 C 25 %
1657 29-03-2020 13:10:18 6.1 C 25 %
1658 29-03-2020 13:20:17 6.6 C 23 %
1659 29-03-2020 13:30:17 6.8 C 20 %
1660 29-03-2020 13:40:18 8.1 C 20 %
1661 29-03-2020 13:50:17 8.4 C 20 %
1662 29-03-2020 14:00:18 7.6 C 20 %
1663 29-03-2020 14:10:18 7.5 C 20 %
1664 29-03-2020 14:20:17 7 C 20 %
1665 29-03-2020 14:30:17 6.7 C 20 %
1666 29-03-2020 14:40:17 6.5 C 20 %
1667 29-03-2020 14:50:17 6.7 C 20 %
1668 29-03-2020 15:00:17 7.2 C 20 %
1669 29-03-2020 15:10:17 7.4 C 20 %
1670 29-03-2020 15:20:17 7.4 C 20 %
1671 29-03-2020 15:30:18 7.6 C 20 %
1672 29-03-2020 15:40:18 7.6 C 20 %
1673 29-03-2020 15:50:17 8 C 20 %
1674 29-03-2020 16:00:18 7.4 C 20 %
1675 29-03-2020 16:10:18 7 C 20 %
Sensor: Nr:Datum:Temp:Feuchte:
Aussen-T/F 1676 29-03-2020 16:20:17 6.7 C 20 %
1677 29-03-2020 16:30:18 6.5 C 20 %
1678 29-03-2020 16:40:18 6.6 C 20 %
1679 29-03-2020 16:50:18 6.8 C 20 %
1680 29-03-2020 17:00:18 7 C 20 %
1681 29-03-2020 17:10:18 6.8 C 20 %
1682 29-03-2020 17:20:17 7.4 C 20 %
1683 29-03-2020 17:30:17 7 C 20 %
1684 29-03-2020 17:40:17 7 C 20 %
1685 29-03-2020 17:50:18 6.8 C 25 %
1686 29-03-2020 18:00:18 7.1 C 23 %
1687 29-03-2020 18:10:18 6.5 C 25 %
1688 29-03-2020 18:20:18 6.2 C 25 %
1689 29-03-2020 18:30:18 5.3 C 29 %
1690 29-03-2020 18:40:18 4.4 C 35 %
1691 29-03-2020 18:50:18 4.1 C 36 %
1692 29-03-2020 19:00:18 4 C 36 %
1693 29-03-2020 19:10:18 3.6 C 39 %
1694 29-03-2020 19:20:17 3.6 C 40 %
1695 29-03-2020 19:30:17 3.4 C 40 %
1696 29-03-2020 19:40:17 3.2 C 41 %
1697 29-03-2020 19:50:17 3.1 C 41 %
1698 29-03-2020 20:00:17 3 C 41 %
1699 29-03-2020 20:10:17 3 C 41 %
1700 29-03-2020 20:20:18 2.9 C 42 %
Sensor: Nr:Datum:Temp:Feuchte:
Aussen-T/F 1701 29-03-2020 20:30:18 3 C 41 %
1702 29-03-2020 20:40:18 3.3 C 40 %
1703 29-03-2020 20:50:18 3.5 C 40 %
1704 29-03-2020 21:00:18 3.6 C 39 %
1705 29-03-2020 21:10:18 3.7 C 39 %
1706 29-03-2020 21:20:18 3.7 C 38 %
1707 29-03-2020 21:30:17 3.7 C 37 %
1708 29-03-2020 21:40:17 3.8 C 37 %
1709 29-03-2020 21:50:17 3.8 C 37 %
1710 29-03-2020 22:00:17 3.7 C 37 %
1711 29-03-2020 22:10:17 3.7 C 36 %
1712 29-03-2020 22:20:18 3.7 C 36 %
1713 29-03-2020 22:30:18 3.6 C 36 %
1714 29-03-2020 22:40:18 3.6 C 36 %
1715 29-03-2020 22:50:18 3.6 C 35 %
1716 29-03-2020 23:00:18 3.6 C 35 %
1717 29-03-2020 23:10:18 3.5 C 35 %
1718 29-03-2020 23:20:17 3.4 C 34 %
1719 29-03-2020 23:30:17 3.3 C 33 %
1720 29-03-2020 23:40:17 3.1 C 33 %
1721 29-03-2020 23:50:17 2.9 C 33 %
1722 30-03-2020 00:00:18 2.5 C 34 %
1723 30-03-2020 00:10:18 2.4 C 33 %
1724 30-03-2020 00:20:17 2.4 C 33 %
1725 30-03-2020 00:30:17 1.7 C 35 %
Sensor: Nr:Datum:Temp:Feuchte:
Aussen-T/F 1726 30-03-2020 00:40:17 1 C 36 %
1727 30-03-2020 00:50:17 0.3 C 38 %
1728 30-03-2020 01:00:18 0.2 C 38 %
1729 30-03-2020 01:10:18 0.3 C 38 %
1730 30-03-2020 01:20:17 0.3 C 37 %
1731 30-03-2020 01:30:18 0.5 C 36 %
1732 30-03-2020 01:40:18 -0.1 C 37 %
1733 30-03-2020 01:50:17 -0.3 C 37 %
1734 30-03-2020 02:00:17 -0.8 C 38 %
1735 30-03-2020 02:10:17 -0.9 C 38 %
1736 30-03-2020 02:20:17 -1.5 C 39 %
1737 30-03-2020 02:30:18 -1.7 C 39 %
1738 30-03-2020 02:40:18 -1.6 C 40 %
1739 30-03-2020 02:50:17 -1.6 C 39 %
1740 30-03-2020 03:00:18 -1.7 C 39 %
1741 30-03-2020 03:10:18 -1.3 C 38 %
1742 30-03-2020 03:20:18 -1.7 C 39 %
1743 30-03-2020 03:30:18 -2.2 C 40 %
1744 30-03-2020 03:40:18 -2.1 C 40 %
1745 30-03-2020 03:50:17 -2.1 C 40 %
1746 30-03-2020 04:00:18 -1.9 C 39 %
1747 30-03-2020 04:10:18 -2.2 C 39 %
1748 30-03-2020 04:20:17 -2 C 39 %
1749 30-03-2020 04:30:17 -2.4 C 39 %
1750 30-03-2020 04:40:17 -2.6 C 39 %
Sensor: Nr:Datum:Temp:Feuchte:
Aussen-T/F 1751 30-03-2020 04:50:17 -2.4 C 39 %
1752 30-03-2020 05:00:17 -2.4 C 38 %
1753 30-03-2020 05:10:17 -2.5 C 38 %
1754 30-03-2020 05:20:17 -2.7 C 38 %
1755 30-03-2020 05:30:18 -3 C 39 %
1756 30-03-2020 05:40:18 -3 C 38 %
1757 30-03-2020 05:50:17 -3 C 38 %
1758 30-03-2020 06:00:18 -3 C 38 %
1759 30-03-2020 06:10:18 -3.4 C 38 %
1760 30-03-2020 06:20:17 -3.7 C 39 %
1761 30-03-2020 06:30:17 -3.9 C 40 %
1762 30-03-2020 06:40:17 -4.1 C 40 %
1763 30-03-2020 06:50:17 -3.3 C 39 %
1764 30-03-2020 07:00:17 -3.7 C 40 %
1765 30-03-2020 07:10:17 -3.2 C 39 %
1766 30-03-2020 07:20:17 -3.8 C 39 %
1767 30-03-2020 07:30:18 -4.3 C 40 %
1768 30-03-2020 07:40:18 -4.5 C 40 %
1769 30-03-2020 07:50:17 -4.5 C 40 %
1770 30-03-2020 08:00:18 -3.8 C 40 %
1771 30-03-2020 08:10:18 -3.9 C 40 %
1772 30-03-2020 08:20:18 -4.1 C 40 %
1773 30-03-2020 08:30:18 -3.7 C 39 %
1774 30-03-2020 08:40:18 -3.3 C 39 %
1775 30-03-2020 08:50:17 -3.2 C 38 %
Sensor: Nr:Datum:Temp:Feuchte:
Aussen-T/F 1776 30-03-2020 09:00:18 -3.1 C 38 %
1777 30-03-2020 09:10:18 -2.7 C 37 %
1778 30-03-2020 09:20:18 -2.6 C 37 %
1779 30-03-2020 09:30:18 -2.5 C 37 %
1780 30-03-2020 09:40:18 -2.1 C 37 %
1781 30-03-2020 09:50:18 -2.1 C 37 %
1782 30-03-2020 10:00:18 -1.6 C 36 %
1783 30-03-2020 10:10:18 -1.7 C 37 %
1784 30-03-2020 10:20:17 -1.5 C 37 %
1785 30-03-2020 10:30:17 -1.3 C 36 %
1786 30-03-2020 10:40:17 0.1 C 31 %
1787 30-03-2020 10:50:17 1 C 21 %
1788 30-03-2020 11:00:17 1.1 C 23 %
1789 30-03-2020 11:10:18 2 C 20 %
1790 30-03-2020 11:20:18 2.4 C 20 %
1791 30-03-2020 11:30:18 2.8 C 20 %
1792 30-03-2020 11:40:18 2.9 C 20 %
1793 30-03-2020 11:50:18 3.2 C 20 %
1794 30-03-2020 12:00:18 3.7 C 20 %
1795 30-03-2020 12:10:18 4 C 20 %
1796 30-03-2020 12:20:18 6.4 C 20 %
1797 30-03-2020 12:30:18 7.6 C 20 %
1798 30-03-2020 12:40:18 6.3 C 20 %
1799 30-03-2020 12:50:18 5.1 C 20 %
1800 30-03-2020 13:00:18 6.6 C 20 %
Sensor: Nr:Datum:Temp:Feuchte:
Aussen-T/F 1801 30-03-2020 13:10:18 6.5 C 20 %
1802 30-03-2020 13:20:18 5.6 C 20 %
1803 30-03-2020 13:30:17 5.9 C 20 %
1804 30-03-2020 13:40:17 7 C 20 %
1805 30-03-2020 13:50:17 6.4 C 20 %
1806 30-03-2020 14:00:17 7.1 C 20 %
1807 30-03-2020 14:10:17 8.4 C 20 %
1808 30-03-2020 14:20:18 8.9 C 20 %
1809 30-03-2020 14:30:18 9.5 C 20 %
1810 30-03-2020 14:40:18 9.7 C 20 %
1811 30-03-2020 14:50:18 10.8 C 20 %
1812 30-03-2020 15:00:18 11.3 C 20 %
1813 30-03-2020 15:10:18 11.7 C 20 %
1814 30-03-2020 15:20:17 11.6 C 20 %
1815 30-03-2020 15:30:18 13.5 C 20 %
1816 30-03-2020 15:40:18 13.6 C 20 %
1817 30-03-2020 15:50:18 11.9 C 20 %
1818 30-03-2020 16:00:18 12.9 C 20 %
1819 30-03-2020 16:10:18 13.6 C 20 %
1820 30-03-2020 16:20:17 15.2 C 20 %
1821 30-03-2020 16:30:18 9.9 C 20 %
1822 30-03-2020 16:40:18 13.9 C 20 %
1823 30-03-2020 16:50:18 13.6 C 20 %
1824 30-03-2020 17:00:17 10.1 C 20 %
1825 30-03-2020 17:10:17 13.4 C 20 %
Sensor: Nr:Datum:Temp:Feuchte:
Aussen-T/F 1826 30-03-2020 17:20:18 12.5 C 20 %
1827 30-03-2020 17:30:18 12.6 C 20 %
1828 30-03-2020 17:40:18 11.6 C 20 %
1829 30-03-2020 17:50:18 10.2 C 20 %
1830 30-03-2020 18:00:18 8.7 C 20 %
1831 30-03-2020 18:10:18 7.6 C 20 %
1832 30-03-2020 18:20:18 7.9 C 20 %
1833 30-03-2020 18:30:18 8.2 C 20 %
1834 30-03-2020 18:40:18 7.7 C 20 %
1835 30-03-2020 18:50:18 7.8 C 20 %
1836 30-03-2020 19:00:18 7.3 C 20 %
1837 30-03-2020 19:10:18 7.1 C 20 %
1838 30-03-2020 19:20:17 6.5 C 20 %
1839 30-03-2020 19:30:18 6.3 C 20 %
1840 30-03-2020 19:40:18 5.8 C 20 %
1841 30-03-2020 19:50:17 5 C 20 %
1842 30-03-2020 20:00:18 3.8 C 27 %
1843 30-03-2020 20:10:18 3 C 30 %
1844 30-03-2020 20:20:17 2.8 C 30 %
1845 30-03-2020 20:30:18 3.3 C 31 %
1846 30-03-2020 20:40:18 3.2 C 30 %
1847 30-03-2020 20:50:18 3.3 C 31 %
1848 30-03-2020 21:00:18 4 C 29 %
1849 30-03-2020 21:10:18 4.1 C 29 %
1850 30-03-2020 21:20:18 4.2 C 30 %
Sensor: Nr:Datum:Temp:Feuchte:
Aussen-T/F 1851 30-03-2020 21:30:18 4.3 C 30 %
1852 30-03-2020 21:40:18 4.2 C 30 %
1853 30-03-2020 21:50:18 4.1 C 30 %
1854 30-03-2020 22:00:18 3.7 C 32 %
1855 30-03-2020 22:10:18 3.7 C 33 %
1856 30-03-2020 22:20:17 3.9 C 32 %
1857 30-03-2020 22:30:18 4 C 31 %
1858 30-03-2020 22:40:18 4.1 C 31 %
1859 30-03-2020 22:50:18 4.2 C 31 %
1860 30-03-2020 23:00:18 4.1 C 31 %
1861 30-03-2020 23:10:18 4.2 C 30 %
1862 30-03-2020 23:20:18 4.2 C 31 %
1863 30-03-2020 23:30:18 4.1 C 31 %
1864 30-03-2020 23:40:18 4.2 C 31 %
1865 30-03-2020 23:50:17 4.2 C 31 %
1866 31-03-2020 00:00:18 4.3 C 30 %
1867 31-03-2020 00:10:18 4.3 C 30 %
1868 31-03-2020 00:20:18 4.2 C 31 %
1869 31-03-2020 00:30:18 4.2 C 31 %
1870 31-03-2020 00:40:18 4.2 C 31 %
1871 31-03-2020 00:50:18 4.3 C 31 %
1872 31-03-2020 01:00:18 4.4 C 32 %
1873 31-03-2020 01:10:18 4 C 34 %
1874 31-03-2020 01:20:18 3.8 C 36 %
1875 31-03-2020 01:30:18 3.8 C 36 %
Sensor: Nr:Datum:Temp:Feuchte:
Aussen-T/F 1876 31-03-2020 01:40:18 3.7 C 37 %
1877 31-03-2020 01:50:18 4 C 37 %
1878 31-03-2020 02:00:18 3.9 C 38 %
1879 31-03-2020 02:10:18 3.4 C 39 %
1880 31-03-2020 02:20:17 3.5 C 39 %
1881 31-03-2020 02:30:18 3.7 C 39 %
1882 31-03-2020 02:40:18 3.3 C 40 %
1883 31-03-2020 02:50:18 2.8 C 41 %
1884 31-03-2020 03:00:18 2.5 C 41 %
1885 31-03-2020 03:10:18 2.2 C 42 %
1886 31-03-2020 03:20:17 2.4 C 42 %
1887 31-03-2020 03:30:18 2.3 C 42 %
1888 31-03-2020 03:40:18 2.3 C 43 %
1889 31-03-2020 03:50:18 2.7 C 43 %
1890 31-03-2020 04:00:18 2.9 C 42 %
1891 31-03-2020 04:10:18 3 C 42 %
1892 31-03-2020 04:20:18 3.1 C 42 %
1893 31-03-2020 04:30:17 3.2 C 42 %
1894 31-03-2020 04:40:18 3.2 C 41 %
1895 31-03-2020 04:50:17 3.5 C 41 %
1896 31-03-2020 05:00:18 3.4 C 41 %
1897 31-03-2020 05:10:18 3 C 41 %
1898 31-03-2020 05:20:17 2.8 C 43 %
1899 31-03-2020 05:30:18 2.5 C 43 %
1900 31-03-2020 05:40:18 2.3 C 43 %
Sensor: Nr:Datum:Temp:Feuchte:
Aussen-T/F 1901 31-03-2020 05:50:18 1.9 C 44 %
1902 31-03-2020 06:00:18 1.7 C 44 %
1903 31-03-2020 06:10:18 1.6 C 45 %
1904 31-03-2020 06:20:18 1.5 C 45 %
1905 31-03-2020 06:30:18 1.7 C 45 %
1906 31-03-2020 06:40:18 2 C 45 %
1907 31-03-2020 06:50:18 2.1 C 45 %
1908 31-03-2020 07:00:18 2.2 C 45 %
1909 31-03-2020 07:10:18 2.3 C 45 %
1910 31-03-2020 07:20:18 2.2 C 44 %
1911 31-03-2020 07:30:18 2.1 C 44 %
1912 31-03-2020 07:40:18 1.7 C 45 %
1913 31-03-2020 07:50:17 2 C 45 %
1914 31-03-2020 08:00:18 2.5 C 45 %
1915 31-03-2020 08:10:18 3.1 C 43 %
1916 31-03-2020 08:20:18 3.3 C 42 %
1917 31-03-2020 08:30:18 3.5 C 41 %
1918 31-03-2020 08:40:18 3.7 C 40 %
1919 31-03-2020 08:50:17 4 C 38 %
1920 31-03-2020 09:00:18 3.9 C 38 %
1921 31-03-2020 09:10:18 3.9 C 37 %
1922 31-03-2020 09:20:18 4 C 36 %
1923 31-03-2020 09:30:17 4 C 36 %
1924 31-03-2020 09:40:17 4.1 C 35 %
1925 31-03-2020 09:50:18 4.3 C 35 %
Sensor: Nr:Datum:Temp:Feuchte:
Aussen-T/F 1926 31-03-2020 10:00:18 4.8 C 34 %
1927 31-03-2020 10:10:18 4.7 C 34 %
1928 31-03-2020 10:20:18 4.5 C 34 %
1929 31-03-2020 10:30:18 4.4 C 34 %
1930 31-03-2020 10:40:18 4.3 C 34 %
1931 31-03-2020 10:50:17 4.3 C 33 %
1932 31-03-2020 11:00:17 4.3 C 33 %
1933 31-03-2020 11:10:17 4.4 C 32 %
1934 31-03-2020 11:20:18 4.7 C 31 %
1935 31-03-2020 11:30:18 5.4 C 30 %
1936 31-03-2020 11:40:18 5.3 C 30 %
1937 31-03-2020 11:50:17 5.3 C 29 %
1938 31-03-2020 12:00:18 5.6 C 27 %
1939 31-03-2020 12:10:18 6.3 C 25 %
1940 31-03-2020 12:20:17 6.4 C 20 %
1941 31-03-2020 12:30:18 9.2 C 20 %
1942 31-03-2020 12:40:18 8.4 C 20 %
1943 31-03-2020 12:50:18 7 C 20 %
1944 31-03-2020 13:00:17 7.5 C 20 %
1945 31-03-2020 13:10:17 7.1 C 20 %
1946 31-03-2020 13:20:17 7.3 C 20 %
1947 31-03-2020 13:30:17 7 C 20 %
1948 31-03-2020 13:40:17 8.1 C 20 %
1949 31-03-2020 13:51:17 8.4 C 20 %
1950 31-03-2020 14:00:17 8.5 C 20 %
Sensor: Nr:Datum:Temp:Feuchte:
Aussen-T/F 1951 31-03-2020 14:10:17 9.7 C 20 %
1952 31-03-2020 14:20:17 11.2 C 20 %
1953 31-03-2020 14:30:17 12.6 C 20 %
1954 31-03-2020 14:40:17 11.7 C 20 %
1955 31-03-2020 14:51:17 12 C 20 %
1956 31-03-2020 15:00:17 12 C 20 %
1957 31-03-2020 15:10:18 13.1 C 20 %
1958 31-03-2020 15:20:17 13.2 C 20 %
1959 31-03-2020 15:30:17 13.5 C 20 %
1960 31-03-2020 15:40:17 14.6 C 20 %
1961 31-03-2020 15:50:18 13.9 C 20 %
1962 31-03-2020 16:00:17 16.8 C 20 %
1963 31-03-2020 16:10:17 14.8 C 20 %
1964 31-03-2020 16:20:17 15.8 C 20 %
1965 31-03-2020 16:31:17 15.1 C 20 %
1966 31-03-2020 16:40:17 14 C 20 %
1967 31-03-2020 16:50:17 13.3 C 20 %
1968 31-03-2020 17:00:17 14.4 C 20 %
1969 31-03-2020 17:10:17 16.2 C 20 %
1970 31-03-2020 17:21:17 15.3 C 20 %
1971 31-03-2020 17:31:17 14.7 C 20 %
1972 31-03-2020 17:40:17 15.5 C 20 %
1973 31-03-2020 17:51:17 10.6 C 20 %
1974 31-03-2020 18:01:17 10.5 C 20 %
1975 31-03-2020 18:11:17 10.2 C 20 %
Sensor: Nr:Datum:Temp:Feuchte:
Aussen-T/F 1976 31-03-2020 18:21:17 9.8 C 20 %
1977 31-03-2020 18:31:17 9.6 C 20 %
1978 31-03-2020 18:40:17 9.4 C 20 %
1979 31-03-2020 18:51:17 9.1 C 20 %
1980 31-03-2020 19:00:17 9.1 C 20 %
1981 31-03-2020 19:10:17 8.8 C 20 %
1982 31-03-2020 19:20:17 8.7 C 20 %
1983 31-03-2020 19:31:17 8.2 C 20 %
1984 31-03-2020 19:41:17 7.7 C 20 %
1985 31-03-2020 19:50:17 6.6 C 20 %
1986 31-03-2020 20:01:17 5.6 C 20 %
1987 31-03-2020 20:11:17 5.5 C 20 %
1988 31-03-2020 20:21:17 5.3 C 20 %
1989 31-03-2020 20:31:17 4.7 C 20 %
1990 31-03-2020 20:41:17 4.4 C 20 %
1991 31-03-2020 20:51:17 4 C 20 %
1992 31-03-2020 21:00:17 3.7 C 20 %
1993 31-03-2020 21:10:18 3.9 C 20 %
1994 31-03-2020 21:21:17 3.7 C 20 %
1995 31-03-2020 21:31:17 3.5 C 20 %
1996 31-03-2020 21:41:17 3.2 C 23 %
1997 31-03-2020 21:51:17 3.2 C 23 %
1998 31-03-2020 22:00:18 3 C 23 %
1999 31-03-2020 22:10:18 2.7 C 25 %
2000 31-03-2020 22:21:17 2.7 C 25 %
Sensor: Nr:Datum:Temp:Feuchte:
Aussen-T/F 2001 31-03-2020 22:31:17 2.6 C 25 %
2002 31-03-2020 22:41:17 1.8 C 30 %
2003 31-03-2020 22:50:18 1.6 C 30 %
2004 31-03-2020 23:01:17 1.6 C 30 %
2005 31-03-2020 23:11:17 1.7 C 30 %
2006 31-03-2020 23:21:17 1.4 C 31 %
2007 31-03-2020 23:30:17 1.3 C 31 %
2008 31-03-2020 23:40:18 1.6 C 31 %
2009 31-03-2020 23:51:17 0.9 C 32 %
Sensor: Nr:Datum:Temp:Feuchte:
G-T/H 1 18-03-2020 00:09:17 11.7 C 71 %
2 18-03-2020 00:19:17 11.7 C 71 %
3 18-03-2020 00:29:17 11.7 C 71 %
4 18-03-2020 00:39:17 11.8 C 71 %
5 18-03-2020 00:49:17 11.8 C 71 %
6 18-03-2020 00:59:17 11.7 C 71 %
7 18-03-2020 01:09:17 11.8 C 71 %
8 18-03-2020 01:19:17 11.7 C 71 %
9 18-03-2020 01:29:17 11.7 C 71 %
10 18-03-2020 01:39:17 11.7 C 71 %
11 18-03-2020 01:49:17 11.7 C 71 %
12 18-03-2020 01:59:17 11.7 C 70 %
13 18-03-2020 02:09:17 11.7 C 70 %
14 18-03-2020 02:19:17 11.6 C 70 %
15 18-03-2020 02:29:17 11.6 C 70 %
16 18-03-2020 02:39:17 11.7 C 70 %
17 18-03-2020 02:49:18 11.6 C 70 %
18 18-03-2020 02:59:18 11.6 C 70 %
19 18-03-2020 03:09:18 11.6 C 70 %
20 18-03-2020 03:19:17 11.6 C 70 %
21 18-03-2020 03:29:17 11.6 C 70 %
22 18-03-2020 03:39:17 11.6 C 70 %
23 18-03-2020 03:49:17 11.5 C 70 %
24 18-03-2020 03:59:17 11.5 C 70 %
25 18-03-2020 04:09:17 11.5 C 70 %
Sensor: Nr:Datum:Temp:Feuchte:
G-T/H 26 18-03-2020 04:19:18 11.5 C 70 %
27 18-03-2020 04:29:18 11.5 C 70 %
28 18-03-2020 04:39:18 11.5 C 69 %
29 18-03-2020 04:49:18 11.4 C 69 %
30 18-03-2020 04:59:18 11.4 C 69 %
31 18-03-2020 05:09:18 11.4 C 69 %
32 18-03-2020 05:19:18 11.4 C 69 %
33 18-03-2020 05:29:18 11.4 C 69 %
34 18-03-2020 05:39:18 11.3 C 69 %
35 18-03-2020 05:49:18 11.3 C 68 %
36 18-03-2020 05:59:18 11.3 C 68 %
37 18-03-2020 06:09:18 11.3 C 68 %
38 18-03-2020 06:19:17 11.2 C 68 %
39 18-03-2020 06:29:18 11.2 C 68 %
40 18-03-2020 06:39:18 11.2 C 68 %
41 18-03-2020 06:49:17 11.2 C 68 %
42 18-03-2020 06:59:18 11.2 C 68 %
43 18-03-2020 07:09:18 11.2 C 68 %
44 18-03-2020 07:19:17 11.1 C 68 %
45 18-03-2020 07:29:17 11.1 C 68 %
46 18-03-2020 07:39:17 11.1 C 68 %
47 18-03-2020 07:49:18 11.1 C 68 %
48 18-03-2020 07:59:18 11.1 C 68 %
49 18-03-2020 08:09:18 11.1 C 68 %
50 18-03-2020 08:19:18 11.1 C 68 %
Sensor: Nr:Datum:Temp:Feuchte:
G-T/H 51 18-03-2020 08:29:18 11 C 68 %
52 18-03-2020 08:39:17 11 C 68 %
53 18-03-2020 08:49:18 11 C 68 %
54 18-03-2020 08:59:18 11 C 69 %
55 18-03-2020 09:09:17 11 C 69 %
56 18-03-2020 09:19:17 11 C 69 %
57 18-03-2020 09:29:17 11 C 69 %
58 18-03-2020 09:39:17 11 C 69 %
59 18-03-2020 09:49:18 11 C 69 %
60 18-03-2020 09:59:18 11 C 69 %
61 18-03-2020 10:09:18 11 C 69 %
62 18-03-2020 10:19:18 11 C 69 %
63 18-03-2020 10:29:18 11 C 69 %
64 18-03-2020 10:39:18 11 C 70 %
65 18-03-2020 10:49:18 11 C 70 %
66 18-03-2020 10:59:18 11 C 70 %
67 18-03-2020 11:09:18 11 C 70 %
68 18-03-2020 11:19:18 11 C 70 %
69 18-03-2020 11:29:18 11 C 70 %
70 18-03-2020 11:39:18 11 C 70 %
71 18-03-2020 11:49:17 11 C 70 %
72 18-03-2020 11:59:17 11 C 70 %
73 18-03-2020 12:09:18 11 C 70 %
74 18-03-2020 12:19:17 11 C 70 %
75 18-03-2020 12:29:18 11.1 C 70 %
Sensor: Nr:Datum:Temp:Feuchte:
G-T/H 76 18-03-2020 12:39:18 11.1 C 70 %
77 18-03-2020 12:49:17 11.1 C 70 %
78 18-03-2020 12:59:17 11.1 C 70 %
79 18-03-2020 13:09:17 11.1 C 70 %
80 18-03-2020 13:19:17 11.1 C 70 %
81 18-03-2020 13:29:17 11.1 C 71 %
82 18-03-2020 13:39:18 11.2 C 71 %
83 18-03-2020 13:49:17 11.2 C 71 %
84 18-03-2020 13:59:17 11.2 C 71 %
85 18-03-2020 14:09:17 11.2 C 71 %
86 18-03-2020 14:19:17 11.2 C 71 %
87 18-03-2020 14:29:17 11.2 C 71 %
88 18-03-2020 14:39:18 11.3 C 71 %
89 18-03-2020 14:49:17 11.3 C 71 %
90 18-03-2020 14:59:17 11.3 C 71 %
91 18-03-2020 15:09:17 11.3 C 71 %
92 18-03-2020 15:19:18 11.3 C 71 %
93 18-03-2020 15:29:18 11.4 C 71 %
94 18-03-2020 15:39:18 11.4 C 71 %
95 18-03-2020 15:49:17 11.4 C 71 %
96 18-03-2020 15:59:17 11.4 C 71 %
97 18-03-2020 16:09:17 11.4 C 71 %
98 18-03-2020 16:19:17 11.4 C 71 %
99 18-03-2020 16:29:17 11.5 C 71 %
100 18-03-2020 16:39:17 11.5 C 71 %
Sensor: Nr:Datum:Temp:Feuchte:
G-T/H 101 18-03-2020 16:49:18 11.5 C 71 %
102 18-03-2020 16:59:18 11.5 C 71 %
103 18-03-2020 17:09:17 11.5 C 71 %
104 18-03-2020 17:19:17 11.5 C 71 %
105 18-03-2020 17:29:17 11.6 C 71 %
106 18-03-2020 17:39:18 11.6 C 71 %
107 18-03-2020 17:49:17 11.6 C 71 %
108 18-03-2020 17:59:17 11.7 C 71 %
109 18-03-2020 18:09:17 11.6 C 71 %
110 18-03-2020 18:19:17 11.7 C 72 %
111 18-03-2020 18:29:17 11.6 C 72 %
112 18-03-2020 18:39:17 11.7 C 72 %
113 18-03-2020 18:49:17 11.7 C 71 %
114 18-03-2020 18:59:17 11.7 C 71 %
115 18-03-2020 19:09:17 11.7 C 71 %
116 18-03-2020 19:19:18 11.7 C 71 %
117 18-03-2020 19:29:18 11.7 C 71 %
118 18-03-2020 19:39:18 11.7 C 72 %
119 18-03-2020 19:49:18 11.7 C 72 %
120 18-03-2020 19:59:18 11.7 C 72 %
121 18-03-2020 20:09:18 11.7 C 72 %
122 18-03-2020 20:19:17 11.8 C 72 %
123 18-03-2020 20:29:17 11.7 C 72 %
124 18-03-2020 20:39:18 11.7 C 72 %
125 18-03-2020 20:49:17 11.7 C 72 %
Sensor: Nr:Datum:Temp:Feuchte:
G-T/H 126 18-03-2020 20:59:17 11.8 C 72 %
127 18-03-2020 21:09:18 11.8 C 72 %
128 18-03-2020 21:19:17 11.8 C 72 %
129 18-03-2020 21:29:17 11.8 C 72 %
130 18-03-2020 21:39:17 11.8 C 72 %
131 18-03-2020 21:49:17 11.8 C 72 %
132 18-03-2020 21:59:17 11.8 C 72 %
133 18-03-2020 22:09:17 11.8 C 72 %
134 18-03-2020 22:19:17 11.8 C 72 %
135 18-03-2020 22:29:17 11.8 C 72 %
136 18-03-2020 22:39:17 11.8 C 72 %
137 18-03-2020 22:49:17 11.8 C 72 %
138 18-03-2020 22:59:17 11.8 C 72 %
139 18-03-2020 23:09:18 11.8 C 72 %
140 18-03-2020 23:19:17 11.8 C 72 %
141 18-03-2020 23:29:17 11.8 C 72 %
142 18-03-2020 23:39:18 11.8 C 72 %
143 18-03-2020 23:49:18 11.8 C 72 %
144 18-03-2020 23:59:18 11.8 C 72 %
145 19-03-2020 00:09:17 11.8 C 72 %
146 19-03-2020 00:19:18 11.8 C 72 %
147 19-03-2020 00:29:18 11.8 C 72 %
148 19-03-2020 00:39:18 11.9 C 72 %
149 19-03-2020 00:49:17 11.9 C 72 %
150 19-03-2020 00:59:17 11.8 C 72 %
Sensor: Nr:Datum:Temp:Feuchte:
G-T/H 151 19-03-2020 01:09:18 11.8 C 72 %
152 19-03-2020 01:19:17 11.8 C 72 %
153 19-03-2020 01:29:17 11.8 C 72 %
154 19-03-2020 01:39:17 11.8 C 72 %
155 19-03-2020 01:49:17 11.8 C 72 %
156 19-03-2020 01:59:17 11.8 C 72 %
157 19-03-2020 02:09:18 11.8 C 72 %
158 19-03-2020 02:19:17 11.8 C 72 %
159 19-03-2020 02:29:17 11.8 C 72 %
160 19-03-2020 02:39:17 11.8 C 72 %
161 19-03-2020 02:49:18 11.8 C 72 %
162 19-03-2020 02:59:18 11.8 C 72 %
163 19-03-2020 03:09:18 11.8 C 72 %
164 19-03-2020 03:19:18 11.8 C 72 %
165 19-03-2020 03:29:18 11.8 C 72 %
166 19-03-2020 03:39:17 11.8 C 72 %
167 19-03-2020 03:49:18 11.8 C 72 %
168 19-03-2020 03:59:18 11.8 C 72 %
169 19-03-2020 04:09:18 11.8 C 71 %
170 19-03-2020 04:19:17 11.8 C 71 %
171 19-03-2020 04:29:17 11.8 C 71 %
172 19-03-2020 04:39:17 11.8 C 71 %
173 19-03-2020 04:49:18 11.8 C 71 %
174 19-03-2020 04:59:18 11.8 C 71 %
175 19-03-2020 05:09:18 11.8 C 71 %
Sensor: Nr:Datum:Temp:Feuchte:
G-T/H 176 19-03-2020 05:19:18 11.8 C 71 %
177 19-03-2020 05:29:18 11.8 C 71 %
178 19-03-2020 05:39:18 11.8 C 71 %
179 19-03-2020 05:49:17 11.8 C 71 %
180 19-03-2020 05:59:18 11.8 C 71 %
181 19-03-2020 06:09:18 11.8 C 71 %
182 19-03-2020 06:19:17 11.8 C 71 %
183 19-03-2020 06:29:17 11.8 C 71 %
184 19-03-2020 06:39:17 11.8 C 71 %
185 19-03-2020 06:49:17 11.8 C 71 %
186 19-03-2020 06:59:17 11.8 C 71 %
187 19-03-2020 07:09:17 11.8 C 71 %
188 19-03-2020 07:19:17 11.8 C 71 %
189 19-03-2020 07:29:17 11.8 C 71 %
190 19-03-2020 07:39:18 11.8 C 71 %
191 19-03-2020 07:49:18 11.8 C 71 %
192 19-03-2020 07:59:18 11.8 C 71 %
193 19-03-2020 08:09:18 11.8 C 71 %
194 19-03-2020 08:19:17 11.8 C 71 %
195 19-03-2020 08:29:17 11.8 C 71 %
196 19-03-2020 08:39:17 11.8 C 71 %
197 19-03-2020 08:49:18 11.8 C 71 %
198 19-03-2020 08:59:18 11.8 C 71 %
199 19-03-2020 09:09:17 11.8 C 72 %
200 19-03-2020 09:19:17 11.8 C 72 %
Sensor: Nr:Datum:Temp:Feuchte:
G-T/H 201 19-03-2020 09:29:17 11.8 C 72 %
202 19-03-2020 09:39:18 11.8 C 72 %
203 19-03-2020 09:49:17 11.8 C 72 %
204 19-03-2020 09:59:17 11.8 C 72 %
205 19-03-2020 10:09:18 11.8 C 72 %
206 19-03-2020 10:19:18 11.8 C 72 %
207 19-03-2020 10:29:18 11.8 C 72 %
208 19-03-2020 10:39:17 11.8 C 72 %
209 19-03-2020 10:49:17 11.8 C 72 %
210 19-03-2020 10:59:17 11.8 C 72 %
211 19-03-2020 11:09:17 11.8 C 72 %
212 19-03-2020 11:19:17 11.9 C 72 %
213 19-03-2020 11:29:17 11.9 C 72 %
214 19-03-2020 11:39:17 11.9 C 72 %
215 19-03-2020 11:49:17 11.9 C 72 %
216 19-03-2020 11:59:17 11.9 C 72 %
217 19-03-2020 12:09:17 11.9 C 72 %
218 19-03-2020 12:19:17 11.9 C 72 %
219 19-03-2020 12:29:17 11.9 C 72 %
220 19-03-2020 12:39:18 11.9 C 72 %
221 19-03-2020 12:49:17 11.9 C 72 %
222 19-03-2020 12:59:17 11.9 C 72 %
223 19-03-2020 13:09:18 12 C 71 %
224 19-03-2020 13:19:18 12 C 71 %
225 19-03-2020 13:29:18 12 C 71 %
Sensor: Nr:Datum:Temp:Feuchte:
G-T/H 226 19-03-2020 13:39:18 12 C 71 %
227 19-03-2020 13:49:17 12 C 71 %
228 19-03-2020 13:59:17 12.1 C 71 %
229 19-03-2020 14:09:17 12.1 C 71 %
230 19-03-2020 14:19:17 12.1 C 71 %
231 19-03-2020 14:29:17 12.2 C 71 %
232 19-03-2020 14:39:17 12.6 C 69 %
233 19-03-2020 14:49:17 12.8 C 67 %
234 19-03-2020 14:59:17 13 C 64 %
235 19-03-2020 15:09:18 13.2 C 63 %
236 19-03-2020 15:19:18 13.2 C 62 %
237 19-03-2020 15:29:18 13.3 C 61 %
238 19-03-2020 15:39:18 13.4 C 61 %
239 19-03-2020 15:49:17 13.4 C 60 %
240 19-03-2020 15:59:18 13.5 C 60 %
241 19-03-2020 16:09:18 13.5 C 60 %
242 19-03-2020 16:20:17 13.6 C 59 %
243 19-03-2020 16:29:17 13.7 C 58 %
244 19-03-2020 16:39:17 13.8 C 57 %
245 19-03-2020 16:49:17 13.8 C 57 %
246 19-03-2020 16:59:17 13.9 C 56 %
247 19-03-2020 17:09:18 13.8 C 56 %
248 19-03-2020 17:19:18 13.8 C 56 %
249 19-03-2020 17:29:18 13.8 C 56 %
250 19-03-2020 17:39:18 13.8 C 56 %
Sensor: Nr:Datum:Temp:Feuchte:
G-T/H 251 19-03-2020 17:49:18 13.8 C 56 %
252 19-03-2020 17:59:18 13.9 C 57 %
253 19-03-2020 18:09:18 13.9 C 57 %
254 19-03-2020 18:20:17 13.9 C 58 %
255 19-03-2020 18:30:17 13.8 C 58 %
256 19-03-2020 18:40:17 13.7 C 59 %
257 19-03-2020 18:50:17 13.6 C 59 %
258 19-03-2020 18:59:18 13.5 C 60 %
259 19-03-2020 19:09:18 13.4 C 60 %
260 19-03-2020 19:20:17 13.2 C 60 %
261 19-03-2020 19:30:17 13.1 C 60 %
262 19-03-2020 19:40:17 12.9 C 61 %
263 19-03-2020 19:50:17 12.8 C 61 %
264 19-03-2020 19:59:17 12.8 C 61 %
265 19-03-2020 20:09:17 12.7 C 61 %
266 19-03-2020 20:29:17 12.7 C 61 %
267 19-03-2020 20:29:17 12.7 C 62 %
268 19-03-2020 20:39:17 12.7 C 62 %
269 19-03-2020 20:49:17 12.7 C 62 %
270 19-03-2020 20:59:17 12.7 C 62 %
271 19-03-2020 21:09:18 12.7 C 63 %
272 19-03-2020 21:20:17 12.8 C 63 %
273 19-03-2020 21:30:17 12.8 C 63 %
274 19-03-2020 21:40:17 12.8 C 63 %
275 19-03-2020 21:50:17 12.8 C 63 %
Sensor: Nr:Datum:Temp:Feuchte:
G-T/H 276 19-03-2020 21:59:18 12.8 C 64 %
277 19-03-2020 22:09:18 12.8 C 64 %
278 19-03-2020 22:19:18 12.8 C 64 %
279 19-03-2020 22:29:18 12.8 C 64 %
280 19-03-2020 22:39:18 12.8 C 64 %
281 19-03-2020 22:49:18 12.8 C 64 %
282 19-03-2020 22:59:18 12.8 C 65 %
283 19-03-2020 23:09:18 12.8 C 65 %
284 19-03-2020 23:20:17 12.8 C 65 %
285 19-03-2020 23:30:17 12.8 C 65 %
286 19-03-2020 23:40:17 12.8 C 65 %
287 19-03-2020 23:50:17 12.8 C 65 %
288 19-03-2020 23:59:18 12.8 C 65 %
289 20-03-2020 00:09:18 12.8 C 66 %
290 20-03-2020 00:19:18 12.8 C 66 %
291 20-03-2020 00:29:18 12.8 C 66 %
292 20-03-2020 00:39:18 12.8 C 66 %
293 20-03-2020 00:59:17 12.8 C 66 %
294 20-03-2020 01:00:18 12.8 C 66 %
295 20-03-2020 01:10:18 12.8 C 66 %
296 20-03-2020 01:20:17 12.8 C 66 %
297 20-03-2020 01:30:18 12.8 C 66 %
298 20-03-2020 01:40:18 12.8 C 66 %
299 20-03-2020 01:50:17 12.8 C 66 %
300 20-03-2020 02:00:18 12.8 C 66 %
Sensor: Nr:Datum:Temp:Feuchte:
G-T/H 301 20-03-2020 02:10:18 12.8 C 66 %
302 20-03-2020 02:20:17 12.8 C 67 %
303 20-03-2020 02:30:17 12.8 C 67 %
304 20-03-2020 02:40:17 12.7 C 67 %
305 20-03-2020 02:50:17 12.8 C 67 %
306 20-03-2020 03:00:17 12.7 C 67 %
307 20-03-2020 03:10:17 12.7 C 67 %
308 20-03-2020 03:20:17 12.7 C 67 %
309 20-03-2020 03:30:18 12.7 C 67 %
310 20-03-2020 03:40:18 12.7 C 67 %
311 20-03-2020 03:50:17 12.7 C 67 %
312 20-03-2020 04:00:18 12.7 C 67 %
313 20-03-2020 04:10:18 12.7 C 67 %
314 20-03-2020 04:20:18 12.7 C 67 %
315 20-03-2020 04:30:18 12.7 C 67 %
316 20-03-2020 04:40:18 12.7 C 67 %
317 20-03-2020 04:50:17 12.6 C 67 %
318 20-03-2020 05:00:18 12.6 C 67 %
319 20-03-2020 05:10:18 12.7 C 67 %
320 20-03-2020 05:20:17 12.6 C 67 %
321 20-03-2020 05:30:17 12.6 C 67 %
322 20-03-2020 05:40:17 12.6 C 67 %
323 20-03-2020 05:50:17 12.5 C 67 %
324 20-03-2020 06:00:17 12.5 C 67 %
325 20-03-2020 06:10:17 12.5 C 67 %
Sensor: Nr:Datum:Temp:Feuchte:
G-T/H 326 20-03-2020 06:20:17 12.5 C 67 %
327 20-03-2020 06:30:17 12.5 C 67 %
328 20-03-2020 06:40:17 12.5 C 67 %
329 20-03-2020 06:50:17 12.5 C 67 %
330 20-03-2020 07:00:17 12.5 C 67 %
331 20-03-2020 07:10:17 12.5 C 67 %
332 20-03-2020 07:20:17 12.4 C 67 %
333 20-03-2020 07:30:17 12.5 C 67 %
334 20-03-2020 07:40:17 12.4 C 67 %
335 20-03-2020 07:50:18 12.4 C 67 %
336 20-03-2020 08:00:17 12.4 C 67 %
337 20-03-2020 08:10:17 12.4 C 67 %
338 20-03-2020 08:20:17 12.4 C 67 %
339 20-03-2020 08:30:17 12.4 C 67 %
340 20-03-2020 08:40:17 12.4 C 67 %
341 20-03-2020 08:50:17 12.4 C 67 %
342 20-03-2020 09:00:17 12.4 C 67 %
343 20-03-2020 09:10:17 12.3 C 67 %
344 20-03-2020 09:20:17 12.4 C 67 %
345 20-03-2020 09:30:17 12.4 C 67 %
346 20-03-2020 09:40:17 12.4 C 68 %
347 20-03-2020 09:50:17 12.4 C 68 %
348 20-03-2020 10:00:18 12.3 C 68 %
349 20-03-2020 10:10:18 12.3 C 68 %
350 20-03-2020 10:20:18 12.3 C 68 %
Sensor: Nr:Datum:Temp:Feuchte:
G-T/H 351 20-03-2020 10:30:18 12.3 C 68 %
352 20-03-2020 10:40:18 12.3 C 68 %
353 20-03-2020 10:50:18 12.3 C 68 %
354 20-03-2020 11:00:17 12.3 C 68 %
355 20-03-2020 11:10:18 12.3 C 68 %
356 20-03-2020 11:20:18 12.3 C 68 %
357 20-03-2020 11:30:18 12.3 C 68 %
358 20-03-2020 11:40:18 12.3 C 68 %
359 20-03-2020 11:50:18 12.3 C 68 %
360 20-03-2020 12:00:17 12.3 C 68 %
361 20-03-2020 12:10:17 12.3 C 68 %
362 20-03-2020 12:20:17 12.3 C 68 %
363 20-03-2020 12:30:18 12.3 C 68 %
364 20-03-2020 12:40:18 12.3 C 68 %
365 20-03-2020 12:50:18 12.3 C 68 %
366 20-03-2020 13:00:18 12.3 C 68 %
367 20-03-2020 13:10:18 12.4 C 68 %
368 20-03-2020 13:20:18 12.4 C 69 %
369 20-03-2020 13:30:18 12.4 C 69 %
370 20-03-2020 13:40:18 12.4 C 69 %
371 20-03-2020 13:50:17 12.4 C 69 %
372 20-03-2020 14:00:17 12.4 C 69 %
373 20-03-2020 14:10:17 12.4 C 69 %
374 20-03-2020 14:20:17 12.4 C 69 %
375 20-03-2020 14:30:18 12.4 C 69 %
Sensor: Nr:Datum:Temp:Feuchte:
G-T/H 376 20-03-2020 14:40:18 12.4 C 69 %
377 20-03-2020 14:50:18 12.4 C 69 %
378 20-03-2020 15:00:17 12.4 C 69 %
379 20-03-2020 15:10:17 12.4 C 69 %
380 20-03-2020 15:20:17 12.5 C 69 %
381 20-03-2020 15:30:18 12.5 C 69 %
382 20-03-2020 15:40:18 12.5 C 69 %
383 20-03-2020 15:50:18 12.4 C 69 %
384 20-03-2020 16:00:17 12.5 C 69 %
385 20-03-2020 16:10:17 12.5 C 69 %
386 20-03-2020 16:20:17 12.5 C 69 %
387 20-03-2020 16:30:18 12.5 C 69 %
388 20-03-2020 16:40:18 12.5 C 69 %
389 20-03-2020 16:50:18 12.5 C 69 %
390 20-03-2020 17:00:18 12.6 C 69 %
391 20-03-2020 17:10:18 12.7 C 69 %
392 20-03-2020 17:20:18 12.8 C 69 %
393 20-03-2020 17:30:18 12.8 C 68 %
394 20-03-2020 17:40:18 12.7 C 68 %
395 20-03-2020 17:50:17 12.7 C 68 %
396 20-03-2020 18:00:17 12.6 C 68 %
397 20-03-2020 18:10:17 12.7 C 68 %
398 20-03-2020 18:20:17 12.6 C 68 %
399 20-03-2020 18:30:17 12.6 C 68 %
400 20-03-2020 18:40:17 12.6 C 68 %
Sensor: Nr:Datum:Temp:Feuchte:
G-T/H 401 20-03-2020 18:50:18 12.6 C 68 %
402 20-03-2020 19:00:17 12.6 C 68 %
403 20-03-2020 19:10:17 12.6 C 68 %
404 20-03-2020 19:20:17 12.6 C 68 %
405 20-03-2020 19:30:17 12.6 C 68 %
406 20-03-2020 19:40:17 12.6 C 68 %
407 20-03-2020 19:50:17 12.6 C 68 %
408 20-03-2020 20:00:17 12.6 C 68 %
409 20-03-2020 20:10:17 12.6 C 68 %
410 20-03-2020 20:20:17 12.6 C 68 %
411 20-03-2020 20:30:17 12.6 C 68 %
412 20-03-2020 20:40:17 12.6 C 68 %
413 20-03-2020 20:50:18 12.6 C 68 %
414 20-03-2020 21:00:18 12.6 C 68 %
415 20-03-2020 21:10:18 12.6 C 68 %
416 20-03-2020 21:20:17 12.6 C 68 %
417 20-03-2020 21:30:17 12.6 C 68 %
418 20-03-2020 21:40:17 12.5 C 68 %
419 20-03-2020 21:50:17 12.5 C 68 %
420 20-03-2020 22:00:17 12.5 C 67 %
421 20-03-2020 22:10:17 12.5 C 67 %
422 20-03-2020 22:20:18 12.5 C 67 %
423 20-03-2020 22:30:17 12.5 C 67 %
424 20-03-2020 22:40:18 12.5 C 67 %
425 20-03-2020 22:50:17 12.5 C 67 %
Sensor: Nr:Datum:Temp:Feuchte:
G-T/H 426 20-03-2020 23:00:18 12.5 C 67 %
427 20-03-2020 23:10:18 12.5 C 67 %
428 20-03-2020 23:20:17 12.5 C 67 %
429 20-03-2020 23:30:18 12.5 C 67 %
430 20-03-2020 23:40:18 12.5 C 67 %
431 20-03-2020 23:50:18 12.4 C 66 %
432 21-03-2020 00:00:17 12.5 C 66 %
433 21-03-2020 00:10:17 12.4 C 66 %
434 21-03-2020 00:20:17 12.5 C 66 %
435 21-03-2020 00:30:17 12.4 C 66 %
436 21-03-2020 00:40:17 12.4 C 66 %
437 21-03-2020 00:50:17 12.4 C 66 %
438 21-03-2020 01:00:17 12.4 C 66 %
439 21-03-2020 01:10:17 12.4 C 66 %
440 21-03-2020 01:20:17 12.4 C 66 %
441 21-03-2020 01:30:18 12.4 C 66 %
442 21-03-2020 01:40:18 12.4 C 66 %
443 21-03-2020 01:50:17 12.4 C 66 %
444 21-03-2020 02:00:18 12.3 C 66 %
445 21-03-2020 02:10:18 12.3 C 66 %
446 21-03-2020 02:20:17 12.3 C 66 %
447 21-03-2020 02:30:18 12.3 C 66 %
448 21-03-2020 02:40:18 12.3 C 66 %
449 21-03-2020 02:50:18 12.3 C 66 %
450 21-03-2020 03:00:17 12.3 C 66 %
Sensor: Nr:Datum:Temp:Feuchte:
G-T/H 451 21-03-2020 03:10:17 12.3 C 66 %
452 21-03-2020 03:20:17 12.2 C 66 %
453 21-03-2020 03:30:18 12.2 C 66 %
454 21-03-2020 03:40:18 12.2 C 66 %
455 21-03-2020 03:50:17 12.2 C 66 %
456 21-03-2020 04:00:18 12.2 C 66 %
457 21-03-2020 04:10:18 12.2 C 66 %
458 21-03-2020 04:20:17 12.2 C 66 %
459 21-03-2020 04:30:18 12.1 C 66 %
460 21-03-2020 04:40:18 12.1 C 66 %
461 21-03-2020 04:50:18 12.1 C 66 %
462 21-03-2020 05:00:18 12.1 C 65 %
463 21-03-2020 05:10:18 12 C 65 %
464 21-03-2020 05:20:18 12 C 65 %
465 21-03-2020 05:30:18 12 C 65 %
466 21-03-2020 05:40:18 12 C 65 %
467 21-03-2020 05:50:17 11.9 C 66 %
468 21-03-2020 06:00:18 11.9 C 66 %
469 21-03-2020 06:10:18 12 C 65 %
470 21-03-2020 06:20:17 11.9 C 66 %
471 21-03-2020 06:30:18 11.9 C 66 %
472 21-03-2020 06:40:18 11.9 C 67 %
473 21-03-2020 06:50:17 11.9 C 67 %
474 21-03-2020 07:00:17 11.9 C 67 %
475 21-03-2020 07:10:18 11.9 C 67 %
Sensor: Nr:Datum:Temp:Feuchte:
G-T/H 476 21-03-2020 07:20:18 11.8 C 67 %
477 21-03-2020 07:30:18 11.8 C 66 %
478 21-03-2020 07:40:18 11.8 C 66 %
479 21-03-2020 07:50:17 11.8 C 66 %
480 21-03-2020 08:00:18 11.7 C 66 %
481 21-03-2020 08:10:18 11.7 C 66 %
482 21-03-2020 08:20:17 11.7 C 67 %
483 21-03-2020 08:30:17 11.7 C 67 %
484 21-03-2020 08:40:17 11.7 C 67 %
485 21-03-2020 08:50:18 11.7 C 67 %
486 21-03-2020 09:00:18 11.7 C 67 %
487 21-03-2020 09:10:18 11.7 C 67 %
488 21-03-2020 09:20:18 11.7 C 67 %
489 21-03-2020 09:30:18 11.7 C 67 %
490 21-03-2020 09:40:18 11.6 C 67 %
491 21-03-2020 09:50:17 11.6 C 67 %
492 21-03-2020 10:00:17 11.6 C 67 %
493 21-03-2020 10:10:18 11.6 C 67 %
494 21-03-2020 10:20:18 11.6 C 67 %
495 21-03-2020 10:30:18 11.5 C 67 %
496 21-03-2020 10:40:18 11.5 C 67 %
497 21-03-2020 10:50:17 11.5 C 67 %
498 21-03-2020 11:00:17 11.6 C 67 %
499 21-03-2020 11:10:18 11.5 C 67 %
500 21-03-2020 11:20:18 11.5 C 67 %
Sensor: Nr:Datum:Temp:Feuchte:
G-T/H 501 21-03-2020 11:30:18 11.5 C 67 %
502 21-03-2020 11:40:18 11.5 C 67 %
503 21-03-2020 11:50:18 11.5 C 67 %
504 21-03-2020 12:00:18 11.6 C 67 %
505 21-03-2020 12:10:18 11.5 C 67 %
506 21-03-2020 12:20:17 11.5 C 66 %
507 21-03-2020 12:30:17 11.5 C 66 %
508 21-03-2020 12:40:17 11.5 C 66 %
509 21-03-2020 12:50:17 11.4 C 65 %
510 21-03-2020 13:00:17 11.4 C 65 %
511 21-03-2020 13:10:17 11.4 C 65 %
512 21-03-2020 13:20:18 11.4 C 64 %
513 21-03-2020 13:30:18 11.4 C 64 %
514 21-03-2020 13:40:18 11.4 C 64 %
515 21-03-2020 13:50:17 11.3 C 63 %
516 21-03-2020 14:00:18 11.3 C 63 %
517 21-03-2020 14:10:18 11.3 C 63 %
518 21-03-2020 14:20:18 11.3 C 63 %
519 21-03-2020 14:30:18 11.3 C 62 %
520 21-03-2020 14:40:18 11.3 C 62 %
521 21-03-2020 14:50:17 11.3 C 62 %
522 21-03-2020 15:00:18 11.3 C 62 %
523 21-03-2020 15:10:18 11.3 C 62 %
524 21-03-2020 15:20:17 11.2 C 61 %
525 21-03-2020 15:30:17 11.3 C 61 %
Sensor: Nr:Datum:Temp:Feuchte:
G-T/H 526 21-03-2020 15:40:17 11.3 C 61 %
527 21-03-2020 15:50:17 11.2 C 61 %
528 21-03-2020 16:00:18 11.2 C 60 %
529 21-03-2020 16:10:18 11.2 C 60 %
530 21-03-2020 16:20:17 11.2 C 60 %
531 21-03-2020 16:30:17 11.2 C 60 %
532 21-03-2020 16:40:17 11.2 C 60 %
533 21-03-2020 16:50:17 11.2 C 61 %
534 21-03-2020 17:00:17 11.2 C 61 %
535 21-03-2020 17:10:17 11.2 C 61 %
536 21-03-2020 17:20:17 11.2 C 61 %
537 21-03-2020 17:30:18 11.2 C 61 %
538 21-03-2020 17:40:18 11.2 C 60 %
539 21-03-2020 17:50:17 11.2 C 60 %
540 21-03-2020 18:00:17 11.2 C 60 %
541 21-03-2020 18:10:17 11.2 C 60 %
542 21-03-2020 18:20:17 11.1 C 60 %
543 21-03-2020 18:30:17 11.1 C 60 %
544 21-03-2020 18:40:17 11.1 C 60 %
545 21-03-2020 18:50:17 11.1 C 61 %
546 21-03-2020 19:00:17 11.2 C 61 %
547 21-03-2020 19:10:17 11.1 C 61 %
548 21-03-2020 19:20:17 11.1 C 61 %
549 21-03-2020 19:30:18 11.1 C 61 %
550 21-03-2020 19:40:18 11.1 C 61 %
Sensor: Nr:Datum:Temp:Feuchte:
G-T/H 551 21-03-2020 19:50:17 11.1 C 61 %
552 21-03-2020 20:00:18 11.1 C 61 %
553 21-03-2020 20:10:18 11 C 60 %
554 21-03-2020 20:20:18 11.1 C 60 %
555 21-03-2020 20:30:18 11 C 60 %
556 21-03-2020 20:40:18 11 C 60 %
557 21-03-2020 20:50:17 11 C 60 %
558 21-03-2020 21:00:18 11 C 60 %
559 21-03-2020 21:10:18 11 C 60 %
560 21-03-2020 21:20:18 11 C 60 %
561 21-03-2020 21:30:18 11 C 61 %
562 21-03-2020 21:40:18 11 C 61 %
563 21-03-2020 21:50:17 11 C 61 %
564 21-03-2020 22:00:17 10.9 C 62 %
565 21-03-2020 22:10:17 10.9 C 61 %
566 21-03-2020 22:20:17 10.8 C 61 %
567 21-03-2020 22:30:18 10.8 C 61 %
568 21-03-2020 22:40:18 10.8 C 61 %
569 21-03-2020 22:50:18 10.8 C 61 %
570 21-03-2020 23:00:18 10.8 C 61 %
571 21-03-2020 23:10:18 10.8 C 60 %
572 21-03-2020 23:20:18 10.8 C 61 %
573 21-03-2020 23:30:18 10.7 C 60 %
574 21-03-2020 23:40:18 10.7 C 60 %
575 21-03-2020 23:50:17 10.7 C 60 %
Sensor: Nr:Datum:Temp:Feuchte:
G-T/H 576 22-03-2020 00:00:18 10.7 C 60 %
577 22-03-2020 00:10:18 10.6 C 60 %
578 22-03-2020 00:20:17 10.6 C 60 %
579 22-03-2020 00:30:17 10.6 C 60 %
580 22-03-2020 00:40:17 10.5 C 60 %
581 22-03-2020 00:50:17 10.5 C 60 %
582 22-03-2020 01:00:18 10.5 C 59 %
583 22-03-2020 01:10:18 10.5 C 59 %
584 22-03-2020 01:20:18 10.4 C 59 %
585 22-03-2020 01:30:18 10.4 C 59 %
586 22-03-2020 01:40:18 10.4 C 59 %
587 22-03-2020 01:50:18 10.4 C 59 %
588 22-03-2020 02:00:18 10.4 C 59 %
589 22-03-2020 02:10:18 10.3 C 59 %
590 22-03-2020 02:20:17 10.3 C 58 %
591 22-03-2020 02:30:18 10.3 C 58 %
592 22-03-2020 02:40:18 10.2 C 58 %
593 22-03-2020 02:50:18 10.2 C 58 %
594 22-03-2020 03:00:18 10.2 C 58 %
595 22-03-2020 03:10:18 10.2 C 58 %
596 22-03-2020 03:20:18 10.1 C 58 %
597 22-03-2020 03:30:18 10.1 C 58 %
598 22-03-2020 03:40:18 10.1 C 58 %
599 22-03-2020 03:50:17 10.1 C 58 %
600 22-03-2020 04:00:17 10.1 C 58 %
Sensor: Nr:Datum:Temp:Feuchte:
G-T/H 601 22-03-2020 04:10:17 10 C 58 %
602 22-03-2020 04:20:17 10 C 58 %
603 22-03-2020 04:30:17 10 C 58 %
604 22-03-2020 04:40:17 10 C 59 %
605 22-03-2020 04:50:17 10 C 59 %
606 22-03-2020 05:00:18 10 C 59 %
607 22-03-2020 05:10:18 10 C 59 %
608 22-03-2020 05:20:17 9.9 C 60 %
609 22-03-2020 05:30:18 9.9 C 60 %
610 22-03-2020 05:40:18 9.9 C 61 %
611 22-03-2020 05:50:17 9.8 C 61 %
612 22-03-2020 06:00:17 9.9 C 61 %
613 22-03-2020 06:10:17 9.8 C 61 %
614 22-03-2020 06:20:17 9.8 C 61 %
615 22-03-2020 06:30:17 9.8 C 61 %
616 22-03-2020 06:40:17 9.8 C 61 %
617 22-03-2020 06:50:18 9.8 C 61 %
618 22-03-2020 07:00:18 9.8 C 61 %
619 22-03-2020 07:10:18 9.7 C 61 %
620 22-03-2020 07:20:18 9.7 C 61 %
621 22-03-2020 07:30:18 9.7 C 61 %
622 22-03-2020 07:40:18 9.7 C 61 %
623 22-03-2020 07:50:17 9.7 C 61 %
624 22-03-2020 08:00:18 9.7 C 61 %
625 22-03-2020 08:10:18 9.6 C 61 %
Sensor: Nr:Datum:Temp:Feuchte:
G-T/H 626 22-03-2020 08:20:18 9.6 C 61 %
627 22-03-2020 08:30:18 9.6 C 61 %
628 22-03-2020 08:40:18 9.6 C 61 %
629 22-03-2020 08:50:18 9.5 C 61 %
630 22-03-2020 09:00:18 9.5 C 61 %
631 22-03-2020 09:10:18 9.5 C 62 %
632 22-03-2020 09:20:18 9.5 C 62 %
633 22-03-2020 09:30:18 9.5 C 61 %
634 22-03-2020 09:40:18 9.5 C 61 %
635 22-03-2020 09:50:17 9.5 C 61 %
636 22-03-2020 10:00:18 9.4 C 61 %
637 22-03-2020 10:10:18 9.4 C 62 %
638 22-03-2020 10:20:18 9.4 C 62 %
639 22-03-2020 10:30:18 9.4 C 61 %
640 22-03-2020 10:40:18 9.4 C 61 %
641 22-03-2020 10:50:17 9.4 C 61 %
642 22-03-2020 11:00:18 9.4 C 61 %
643 22-03-2020 11:10:18 9.4 C 61 %
644 22-03-2020 11:20:17 9.3 C 61 %
645 22-03-2020 11:30:18 9.3 C 61 %
646 22-03-2020 11:40:18 9.3 C 61 %
647 22-03-2020 11:50:17 9.3 C 61 %
648 22-03-2020 12:00:18 9.4 C 61 %
649 22-03-2020 12:10:18 9.3 C 61 %
650 22-03-2020 12:20:18 9.3 C 61 %
Sensor: Nr:Datum:Temp:Feuchte:
G-T/H 651 22-03-2020 12:30:17 9.3 C 61 %
652 22-03-2020 12:40:17 9.3 C 61 %
653 22-03-2020 12:50:18 9.3 C 61 %
654 22-03-2020 13:00:18 9.3 C 61 %
655 22-03-2020 13:10:18 9.3 C 61 %
656 22-03-2020 13:20:17 9.3 C 61 %
657 22-03-2020 13:30:18 9.3 C 61 %
658 22-03-2020 13:40:18 9.3 C 61 %
659 22-03-2020 13:50:18 9.3 C 61 %
660 22-03-2020 14:00:17 9.3 C 61 %
661 22-03-2020 14:10:17 9.3 C 61 %
662 22-03-2020 14:20:17 9.3 C 61 %
663 22-03-2020 14:30:17 9.3 C 61 %
664 22-03-2020 14:40:17 9.3 C 61 %
665 22-03-2020 14:50:17 9.3 C 61 %
666 22-03-2020 15:00:18 9.3 C 61 %
667 22-03-2020 15:10:18 9.4 C 61 %
668 22-03-2020 15:20:17 9.4 C 61 %
669 22-03-2020 15:30:17 9.4 C 61 %
670 22-03-2020 15:40:17 9.4 C 61 %
671 22-03-2020 15:50:18 9.4 C 62 %
672 22-03-2020 16:00:18 9.4 C 62 %
673 22-03-2020 16:10:18 9.4 C 62 %
674 22-03-2020 16:20:18 9.4 C 62 %
675 22-03-2020 16:30:18 9.5 C 62 %
Sensor: Nr:Datum:Temp:Feuchte:
G-T/H 676 22-03-2020 16:40:18 9.5 C 62 %
677 22-03-2020 16:50:17 9.4 C 62 %
678 22-03-2020 17:00:17 9.5 C 62 %
679 22-03-2020 17:10:17 9.4 C 62 %
680 22-03-2020 17:20:17 9.5 C 62 %
681 22-03-2020 17:30:17 9.5 C 62 %
682 22-03-2020 17:40:17 9.5 C 62 %
683 22-03-2020 17:50:17 9.5 C 62 %
684 22-03-2020 18:00:18 9.5 C 62 %
685 22-03-2020 18:10:18 9.5 C 62 %
686 22-03-2020 18:20:17 9.5 C 62 %
687 22-03-2020 18:30:17 9.5 C 62 %
688 22-03-2020 18:40:17 9.5 C 63 %
689 22-03-2020 18:50:17 9.5 C 63 %
690 22-03-2020 19:00:17 9.5 C 63 %
691 22-03-2020 19:10:17 9.5 C 63 %
692 22-03-2020 19:20:17 9.5 C 63 %
693 22-03-2020 19:30:17 9.5 C 63 %
694 22-03-2020 19:40:17 9.5 C 63 %
695 22-03-2020 19:50:18 9.5 C 63 %
696 22-03-2020 20:00:18 9.5 C 63 %
697 22-03-2020 20:10:18 9.5 C 64 %
698 22-03-2020 20:20:17 9.5 C 64 %
699 22-03-2020 20:30:17 9.5 C 64 %
700 22-03-2020 20:40:17 9.5 C 64 %
Sensor: Nr:Datum:Temp:Feuchte:
G-T/H 701 22-03-2020 20:50:17 9.5 C 64 %
702 22-03-2020 21:00:17 9.5 C 64 %
703 22-03-2020 21:10:17 9.5 C 64 %
704 22-03-2020 21:20:17 9.5 C 64 %
705 22-03-2020 21:30:17 9.5 C 64 %
706 22-03-2020 21:40:17 9.5 C 64 %
707 22-03-2020 21:50:18 9.5 C 64 %
708 22-03-2020 22:00:18 9.5 C 64 %
709 22-03-2020 22:10:18 9.5 C 64 %
710 22-03-2020 22:20:17 9.5 C 64 %
711 22-03-2020 22:30:17 9.5 C 64 %
712 22-03-2020 22:40:17 9.5 C 64 %
713 22-03-2020 22:50:17 9.5 C 64 %
714 22-03-2020 23:00:17 9.5 C 64 %
715 22-03-2020 23:10:17 9.4 C 64 %
716 22-03-2020 23:20:17 9.4 C 64 %
717 22-03-2020 23:30:18 9.4 C 64 %
718 22-03-2020 23:40:18 9.4 C 64 %
719 22-03-2020 23:50:18 9.4 C 63 %
720 23-03-2020 00:00:18 9.4 C 63 %
721 23-03-2020 00:10:18 9.4 C 63 %
722 23-03-2020 00:20:17 9.4 C 63 %
723 23-03-2020 00:30:17 9.4 C 63 %
724 23-03-2020 00:40:17 9.3 C 63 %
725 23-03-2020 00:50:18 9.3 C 63 %
Sensor: Nr:Datum:Temp:Feuchte:
G-T/H 726 23-03-2020 01:00:17 9.3 C 63 %
727 23-03-2020 01:10:17 9.3 C 63 %
728 23-03-2020 01:20:17 9.3 C 63 %
729 23-03-2020 01:30:18 9.3 C 63 %
730 23-03-2020 01:40:18 9.2 C 63 %
731 23-03-2020 01:50:18 9.2 C 63 %
732 23-03-2020 02:00:18 9.2 C 63 %
733 23-03-2020 02:10:18 9.2 C 63 %
734 23-03-2020 02:20:17 9.2 C 63 %
735 23-03-2020 02:30:17 9.2 C 63 %
736 23-03-2020 02:40:17 9.1 C 63 %
737 23-03-2020 02:50:17 9.1 C 63 %
738 23-03-2020 03:00:17 9.1 C 63 %
739 23-03-2020 03:10:18 9.1 C 63 %
740 23-03-2020 03:20:18 9.1 C 63 %
741 23-03-2020 03:30:18 9.1 C 63 %
742 23-03-2020 03:40:18 9.1 C 63 %
743 23-03-2020 03:50:18 9 C 62 %
744 23-03-2020 04:00:18 9 C 62 %
745 23-03-2020 04:10:18 9 C 62 %
746 23-03-2020 04:20:17 9 C 62 %
747 23-03-2020 04:30:17 9 C 62 %
748 23-03-2020 04:40:17 9 C 62 %
749 23-03-2020 04:50:17 8.9 C 63 %
750 23-03-2020 05:00:18 8.9 C 63 %
Sensor: Nr:Datum:Temp:Feuchte:
G-T/H 751 23-03-2020 05:10:18 8.9 C 63 %
752 23-03-2020 05:20:17 8.9 C 63 %
753 23-03-2020 05:30:18 8.9 C 63 %
754 23-03-2020 05:40:18 8.8 C 63 %
755 23-03-2020 05:50:17 8.8 C 63 %
756 23-03-2020 06:00:18 8.8 C 63 %
757 23-03-2020 06:10:18 8.8 C 63 %
758 23-03-2020 06:20:17 8.8 C 63 %
759 23-03-2020 06:30:18 8.7 C 63 %
760 23-03-2020 06:40:18 8.7 C 63 %
761 23-03-2020 06:50:18 8.7 C 63 %
762 23-03-2020 07:00:18 8.7 C 62 %
763 23-03-2020 07:10:18 8.6 C 62 %
764 23-03-2020 07:20:18 8.6 C 62 %
765 23-03-2020 07:30:18 8.6 C 62 %
766 23-03-2020 07:40:18 8.6 C 62 %
767 23-03-2020 07:50:18 8.6 C 62 %
768 23-03-2020 08:00:18 8.6 C 62 %
769 23-03-2020 08:10:18 8.5 C 62 %
770 23-03-2020 08:20:17 8.5 C 62 %
771 23-03-2020 08:30:18 8.5 C 62 %
772 23-03-2020 08:40:18 8.5 C 62 %
773 23-03-2020 08:50:18 8.5 C 62 %
774 23-03-2020 09:00:18 8.5 C 62 %
775 23-03-2020 09:10:18 8.5 C 62 %
Sensor: Nr:Datum:Temp:Feuchte:
G-T/H 776 23-03-2020 09:20:18 8.5 C 62 %
777 23-03-2020 09:30:17 8.4 C 62 %
778 23-03-2020 09:40:17 8.4 C 62 %
779 23-03-2020 09:50:18 8.4 C 62 %
780 23-03-2020 10:00:18 8.4 C 62 %
781 23-03-2020 10:10:18 8.4 C 62 %
782 23-03-2020 10:20:18 8.4 C 62 %
783 23-03-2020 10:30:17 8.4 C 62 %
784 23-03-2020 10:40:17 8.4 C 62 %
785 23-03-2020 10:50:17 8.4 C 62 %
786 23-03-2020 11:00:17 8.4 C 62 %
787 23-03-2020 11:10:17 8.4 C 62 %
788 23-03-2020 11:20:17 8.4 C 62 %
789 23-03-2020 11:30:18 8.4 C 62 %
790 23-03-2020 11:40:18 8.4 C 62 %
791 23-03-2020 11:50:17 8.4 C 62 %
792 23-03-2020 12:00:18 8.4 C 62 %
793 23-03-2020 12:10:18 8.4 C 62 %
794 23-03-2020 12:20:18 8.4 C 62 %
795 23-03-2020 12:30:18 8.4 C 62 %
796 23-03-2020 12:40:18 8.4 C 62 %
797 23-03-2020 12:50:18 8.4 C 62 %
798 23-03-2020 13:00:17 8.4 C 62 %
799 23-03-2020 13:10:17 8.4 C 62 %
800 23-03-2020 13:20:17 8.4 C 62 %
Sensor: Nr:Datum:Temp:Feuchte:
G-T/H 801 23-03-2020 13:30:17 8.4 C 62 %
802 23-03-2020 13:40:17 8.4 C 62 %
803 23-03-2020 13:50:17 8.4 C 62 %
804 23-03-2020 14:00:18 8.4 C 62 %
805 23-03-2020 14:10:18 8.4 C 62 %
806 23-03-2020 14:20:18 8.4 C 62 %
807 23-03-2020 14:30:18 8.4 C 62 %
808 23-03-2020 14:40:18 8.4 C 63 %
809 23-03-2020 14:50:18 8.4 C 63 %
810 23-03-2020 15:00:18 8.4 C 63 %
811 23-03-2020 15:10:18 8.4 C 63 %
812 23-03-2020 15:20:17 8.4 C 63 %
813 23-03-2020 15:30:17 8.5 C 63 %
814 23-03-2020 15:40:17 8.5 C 63 %
815 23-03-2020 15:50:17 8.5 C 63 %
816 23-03-2020 16:00:17 8.5 C 63 %
817 23-03-2020 16:10:17 8.5 C 63 %
818 23-03-2020 16:20:17 8.5 C 63 %
819 23-03-2020 16:30:18 8.5 C 63 %
820 23-03-2020 16:40:18 8.6 C 63 %
821 23-03-2020 16:50:17 8.5 C 63 %
822 23-03-2020 17:00:18 8.5 C 63 %
823 23-03-2020 17:10:18 8.5 C 63 %
824 23-03-2020 17:20:18 8.6 C 63 %
825 23-03-2020 17:30:18 8.6 C 63 %
Sensor: Nr:Datum:Temp:Feuchte:
G-T/H 826 23-03-2020 17:40:18 8.6 C 63 %
827 23-03-2020 17:50:17 8.6 C 63 %
828 23-03-2020 18:00:18 8.6 C 63 %
829 23-03-2020 18:10:18 8.6 C 64 %
830 23-03-2020 18:20:17 8.6 C 64 %
831 23-03-2020 18:30:18 8.6 C 64 %
832 23-03-2020 18:40:18 8.6 C 64 %
833 23-03-2020 18:50:18 8.6 C 64 %
834 23-03-2020 19:00:18 8.6 C 64 %
835 23-03-2020 19:10:18 8.6 C 64 %
836 23-03-2020 19:20:17 8.6 C 64 %
837 23-03-2020 19:30:18 8.6 C 64 %
838 23-03-2020 19:40:18 8.6 C 64 %
839 23-03-2020 19:50:18 8.6 C 64 %
840 23-03-2020 20:00:17 8.6 C 64 %
841 23-03-2020 20:10:17 8.6 C 64 %
842 23-03-2020 20:20:17 8.6 C 64 %
843 23-03-2020 20:30:18 8.6 C 64 %
844 23-03-2020 20:40:18 8.6 C 64 %
845 23-03-2020 20:50:18 8.6 C 64 %
846 23-03-2020 21:00:18 8.6 C 64 %
847 23-03-2020 21:10:18 8.6 C 64 %
848 23-03-2020 21:20:17 8.6 C 64 %
849 23-03-2020 21:30:18 8.6 C 64 %
850 23-03-2020 21:40:18 8.6 C 64 %
Sensor: Nr:Datum:Temp:Feuchte:
G-T/H 851 23-03-2020 21:50:18 8.6 C 64 %
852 23-03-2020 22:00:17 8.6 C 64 %
853 23-03-2020 22:10:18 8.6 C 64 %
854 23-03-2020 22:20:18 8.6 C 64 %
855 23-03-2020 22:30:18 8.6 C 64 %
856 23-03-2020 22:40:18 8.6 C 64 %
857 23-03-2020 22:50:18 8.6 C 64 %
858 23-03-2020 23:00:18 8.6 C 64 %
859 23-03-2020 23:10:18 8.6 C 64 %
860 23-03-2020 23:20:17 8.6 C 64 %
861 23-03-2020 23:30:17 8.6 C 64 %
862 23-03-2020 23:40:17 8.6 C 64 %
863 23-03-2020 23:50:18 8.5 C 64 %
864 24-03-2020 00:00:18 8.5 C 64 %
865 24-03-2020 00:10:18 8.5 C 64 %
866 24-03-2020 00:20:17 8.5 C 64 %
867 24-03-2020 00:30:18 8.5 C 64 %
868 24-03-2020 00:40:18 8.5 C 64 %
869 24-03-2020 00:50:18 8.5 C 64 %
870 24-03-2020 01:00:18 8.5 C 64 %
871 24-03-2020 01:10:18 8.5 C 64 %
872 24-03-2020 01:20:18 8.4 C 64 %
873 24-03-2020 01:30:18 8.4 C 64 %
874 24-03-2020 01:40:18 8.4 C 64 %
875 24-03-2020 01:50:18 8.4 C 64 %
Sensor: Nr:Datum:Temp:Feuchte:
G-T/H 876 24-03-2020 02:00:18 8.4 C 64 %
877 24-03-2020 02:10:18 8.4 C 63 %
878 24-03-2020 02:20:17 8.4 C 63 %
879 24-03-2020 02:30:17 8.4 C 63 %
880 24-03-2020 02:40:17 8.3 C 63 %
881 24-03-2020 02:50:17 8.3 C 63 %
882 24-03-2020 03:00:17 8.3 C 63 %
883 24-03-2020 03:10:17 8.2 C 63 %
884 24-03-2020 03:20:17 8.3 C 63 %
885 24-03-2020 03:30:17 8.3 C 63 %
886 24-03-2020 03:40:17 8.3 C 63 %
887 24-03-2020 03:50:17 8.2 C 63 %
888 24-03-2020 04:00:18 8.2 C 63 %
889 24-03-2020 04:10:18 8.2 C 63 %
890 24-03-2020 04:20:18 8.2 C 63 %
891 24-03-2020 04:30:18 8.1 C 63 %
892 24-03-2020 04:40:18 8.1 C 63 %
893 24-03-2020 04:50:17 8.1 C 63 %
894 24-03-2020 05:00:17 8.1 C 63 %
895 24-03-2020 05:10:17 8.1 C 63 %
896 24-03-2020 05:20:17 8.1 C 63 %
897 24-03-2020 05:30:18 8.1 C 63 %
898 24-03-2020 05:40:18 8 C 63 %
899 24-03-2020 05:50:18 8 C 63 %
900 24-03-2020 06:00:17 8 C 63 %
Sensor: Nr:Datum:Temp:Feuchte:
G-T/H 901 24-03-2020 06:10:18 8 C 63 %
902 24-03-2020 06:20:17 8 C 62 %
903 24-03-2020 06:30:18 7.9 C 63 %
904 24-03-2020 06:40:18 7.9 C 63 %
905 24-03-2020 06:50:18 8 C 62 %
906 24-03-2020 07:00:18 7.9 C 63 %
907 24-03-2020 07:10:18 7.9 C 63 %
908 24-03-2020 07:20:18 7.9 C 63 %
909 24-03-2020 07:30:18 7.9 C 63 %
910 24-03-2020 07:40:18 7.9 C 63 %
911 24-03-2020 07:50:17 7.8 C 63 %
912 24-03-2020 08:00:17 7.8 C 63 %
913 24-03-2020 08:10:17 7.8 C 63 %
914 24-03-2020 08:20:17 7.8 C 63 %
915 24-03-2020 08:30:17 7.8 C 63 %
916 24-03-2020 08:40:17 7.8 C 63 %
917 24-03-2020 08:50:17 7.8 C 63 %
918 24-03-2020 09:00:17 7.8 C 63 %
919 24-03-2020 09:10:17 7.8 C 63 %
920 24-03-2020 09:20:17 7.8 C 63 %
921 24-03-2020 09:30:17 7.8 C 63 %
922 24-03-2020 09:40:17 7.8 C 63 %
923 24-03-2020 09:50:18 7.8 C 63 %
924 24-03-2020 10:00:18 7.8 C 64 %
925 24-03-2020 10:10:18 7.8 C 64 %
Sensor: Nr:Datum:Temp:Feuchte:
G-T/H 926 24-03-2020 10:20:17 7.8 C 64 %
927 24-03-2020 10:30:17 7.7 C 64 %
928 24-03-2020 10:40:17 7.7 C 64 %
929 24-03-2020 10:50:17 7.7 C 64 %
930 24-03-2020 11:00:18 7.7 C 64 %
931 24-03-2020 11:10:18 7.8 C 64 %
932 24-03-2020 11:20:17 7.7 C 64 %
933 24-03-2020 11:30:17 7.7 C 64 %
934 24-03-2020 11:40:17 7.7 C 64 %
935 24-03-2020 11:50:18 7.7 C 64 %
936 24-03-2020 12:00:18 7.7 C 64 %
937 24-03-2020 12:10:18 7.7 C 64 %
938 24-03-2020 12:20:17 7.7 C 64 %
939 24-03-2020 12:30:17 7.8 C 64 %
940 24-03-2020 12:40:17 7.8 C 64 %
941 24-03-2020 12:50:17 7.8 C 64 %
942 24-03-2020 13:00:18 7.8 C 65 %
943 24-03-2020 13:10:18 7.8 C 65 %
944 24-03-2020 13:20:17 7.8 C 64 %
945 24-03-2020 13:30:17 7.8 C 64 %
946 24-03-2020 13:40:17 7.8 C 64 %
947 24-03-2020 13:50:18 7.8 C 64 %
948 24-03-2020 14:00:17 7.8 C 64 %
949 24-03-2020 14:10:17 7.8 C 65 %
950 24-03-2020 14:20:17 7.8 C 65 %
Sensor: Nr:Datum:Temp:Feuchte:
G-T/H 951 24-03-2020 14:30:17 7.8 C 65 %
952 24-03-2020 14:40:17 7.9 C 64 %
953 24-03-2020 14:50:18 7.9 C 64 %
954 24-03-2020 15:00:18 7.8 C 64 %
955 24-03-2020 15:10:18 7.9 C 64 %
956 24-03-2020 15:20:18 7.9 C 64 %
957 24-03-2020 15:30:18 7.9 C 64 %
958 24-03-2020 15:40:18 7.9 C 64 %
959 24-03-2020 15:50:18 7.9 C 64 %
960 24-03-2020 16:00:18 7.9 C 64 %
961 24-03-2020 16:10:18 7.9 C 64 %
962 24-03-2020 16:20:18 7.9 C 64 %
963 24-03-2020 16:30:18 7.9 C 64 %
964 24-03-2020 16:40:18 7.9 C 64 %
965 24-03-2020 16:50:18 7.9 C 64 %
966 24-03-2020 17:00:18 8 C 63 %
967 24-03-2020 17:10:18 8 C 63 %
968 24-03-2020 17:20:18 8 C 63 %
969 24-03-2020 17:30:18 8 C 64 %
970 24-03-2020 17:40:18 8 C 64 %
971 24-03-2020 17:50:17 8.1 C 64 %
972 24-03-2020 18:00:17 8.1 C 64 %
973 24-03-2020 18:10:17 8.1 C 64 %
974 24-03-2020 18:20:17 8.1 C 64 %
975 24-03-2020 18:30:17 8.1 C 64 %
Sensor: Nr:Datum:Temp:Feuchte:
G-T/H 976 24-03-2020 18:40:18 8.2 C 65 %
977 24-03-2020 18:50:17 8.1 C 65 %
978 24-03-2020 19:00:18 8.2 C 65 %
979 24-03-2020 19:10:18 8.2 C 65 %
980 24-03-2020 19:20:18 8.1 C 65 %
981 24-03-2020 19:30:18 8.1 C 65 %
982 24-03-2020 19:40:18 8.2 C 65 %
983 24-03-2020 19:50:17 8.2 C 65 %
984 24-03-2020 20:00:18 8.2 C 65 %
985 24-03-2020 20:10:18 8.2 C 65 %
986 24-03-2020 20:20:17 8.2 C 65 %
987 24-03-2020 20:30:18 8.2 C 65 %
988 24-03-2020 20:40:18 8.2 C 65 %
989 24-03-2020 20:50:18 8.2 C 65 %
990 24-03-2020 21:00:18 8.2 C 65 %
991 24-03-2020 21:10:18 8.2 C 65 %
992 24-03-2020 21:20:17 8.2 C 65 %
993 24-03-2020 21:30:17 8.2 C 65 %
994 24-03-2020 21:40:17 8.2 C 65 %
995 24-03-2020 21:50:17 8.2 C 65 %
996 24-03-2020 22:00:18 8.2 C 65 %
997 24-03-2020 22:10:18 8.2 C 65 %
998 24-03-2020 22:20:17 8.2 C 65 %
999 24-03-2020 22:30:18 8.2 C 65 %
1000 24-03-2020 22:40:18 8.2 C 65 %
Sensor: Nr:Datum:Temp:Feuchte:
G-T/H 1001 24-03-2020 22:50:17 8.2 C 65 %
1002 24-03-2020 23:00:18 8.2 C 65 %
1003 24-03-2020 23:10:18 8.2 C 64 %
1004 24-03-2020 23:20:17 8.2 C 64 %
1005 24-03-2020 23:30:18 8.2 C 64 %
1006 24-03-2020 23:40:18 8.2 C 64 %
1007 24-03-2020 23:50:18 8.2 C 64 %
1008 25-03-2020 00:00:17 8.2 C 64 %
1009 25-03-2020 00:10:17 8.2 C 64 %
1010 25-03-2020 00:20:17 8.1 C 64 %
1011 25-03-2020 00:30:17 8.1 C 64 %
1012 25-03-2020 00:40:18 8.1 C 64 %
1013 25-03-2020 00:50:17 8.1 C 64 %
1014 25-03-2020 01:00:17 8.1 C 64 %
1015 25-03-2020 01:10:18 8.1 C 64 %
1016 25-03-2020 01:20:17 8.1 C 64 %
1017 25-03-2020 01:30:18 8.1 C 64 %
1018 25-03-2020 01:40:18 8.1 C 64 %
1019 25-03-2020 01:50:17 8.1 C 64 %
1020 25-03-2020 02:00:17 8.1 C 64 %
1021 25-03-2020 02:10:18 8 C 64 %
1022 25-03-2020 02:20:18 8 C 64 %
1023 25-03-2020 02:30:18 8 C 64 %
1024 25-03-2020 02:40:18 8 C 64 %
1025 25-03-2020 02:50:18 8 C 63 %
Sensor: Nr:Datum:Temp:Feuchte:
G-T/H 1026 25-03-2020 03:00:18 8 C 63 %
1027 25-03-2020 03:10:18 8 C 63 %
1028 25-03-2020 03:20:17 8 C 63 %
1029 25-03-2020 03:30:17 7.9 C 64 %
1030 25-03-2020 03:40:17 7.9 C 64 %
1031 25-03-2020 03:50:17 7.9 C 64 %
1032 25-03-2020 04:00:17 7.9 C 64 %
1033 25-03-2020 04:10:17 7.9 C 64 %
1034 25-03-2020 04:20:17 7.9 C 64 %
1035 25-03-2020 04:30:18 7.9 C 64 %
1036 25-03-2020 04:40:18 7.8 C 64 %
1037 25-03-2020 04:50:17 7.8 C 64 %
1038 25-03-2020 05:00:18 7.8 C 64 %
1039 25-03-2020 05:10:18 7.8 C 64 %
1040 25-03-2020 05:20:17 7.8 C 64 %
1041 25-03-2020 05:30:17 7.8 C 64 %
1042 25-03-2020 05:40:17 7.7 C 64 %
1043 25-03-2020 05:50:17 7.8 C 64 %
1044 25-03-2020 06:00:17 7.7 C 64 %
1045 25-03-2020 06:10:17 7.7 C 64 %
1046 25-03-2020 06:20:17 7.7 C 64 %
1047 25-03-2020 06:30:17 7.7 C 64 %
1048 25-03-2020 06:40:17 7.7 C 64 %
1049 25-03-2020 06:50:17 7.6 C 63 %
1050 25-03-2020 07:00:17 7.6 C 63 %
Sensor: Nr:Datum:Temp:Feuchte:
G-T/H 1051 25-03-2020 07:10:17 7.6 C 63 %
1052 25-03-2020 07:20:17 7.6 C 63 %
1053 25-03-2020 07:30:17 7.6 C 63 %
1054 25-03-2020 07:40:17 7.6 C 63 %
1055 25-03-2020 07:50:17 7.6 C 63 %
1056 25-03-2020 08:00:17 7.5 C 63 %
1057 25-03-2020 08:10:17 7.6 C 63 %
1058 25-03-2020 08:20:17 7.6 C 63 %
1059 25-03-2020 08:30:17 7.5 C 63 %
1060 25-03-2020 08:40:17 7.5 C 63 %
1061 25-03-2020 08:50:17 7.5 C 63 %
1062 25-03-2020 09:00:17 7.5 C 63 %
1063 25-03-2020 09:10:17 7.5 C 63 %
1064 25-03-2020 09:20:17 7.5 C 64 %
1065 25-03-2020 09:30:17 7.5 C 64 %
1066 25-03-2020 09:40:18 7.5 C 64 %
1067 25-03-2020 09:50:17 7.5 C 64 %
1068 25-03-2020 10:00:18 7.4 C 64 %
1069 25-03-2020 10:10:18 7.4 C 64 %
1070 25-03-2020 10:20:17 7.5 C 64 %
1071 25-03-2020 10:30:17 7.5 C 64 %
1072 25-03-2020 10:40:17 7.4 C 64 %
1073 25-03-2020 10:50:17 7.4 C 64 %
1074 25-03-2020 11:00:17 7.4 C 64 %
1075 25-03-2020 11:10:17 7.4 C 64 %
Sensor: Nr:Datum:Temp:Feuchte:
G-T/H 1076 25-03-2020 11:20:17 7.5 C 64 %
1077 25-03-2020 11:30:18 7.5 C 64 %
1078 25-03-2020 11:40:18 7.4 C 64 %
1079 25-03-2020 11:50:17 7.4 C 64 %
1080 25-03-2020 12:00:17 7.5 C 64 %
1081 25-03-2020 12:10:17 7.4 C 64 %
1082 25-03-2020 12:20:17 7.4 C 64 %
1083 25-03-2020 12:30:17 7.5 C 64 %
1084 25-03-2020 12:40:17 7.5 C 64 %
1085 25-03-2020 12:50:17 7.5 C 64 %
1086 25-03-2020 13:00:17 7.5 C 64 %
1087 25-03-2020 13:10:17 7.5 C 64 %
1088 25-03-2020 13:20:18 7.5 C 64 %
1089 25-03-2020 13:30:18 7.5 C 64 %
1090 25-03-2020 13:40:18 7.5 C 64 %
1091 25-03-2020 13:50:18 7.5 C 64 %
1092 25-03-2020 14:00:18 7.5 C 64 %
1093 25-03-2020 14:10:18 7.6 C 64 %
1094 25-03-2020 14:20:17 7.6 C 64 %
1095 25-03-2020 14:30:17 7.6 C 64 %
1096 25-03-2020 14:40:17 7.6 C 64 %
1097 25-03-2020 14:50:17 7.7 C 63 %
1098 25-03-2020 15:00:17 7.6 C 62 %
1099 25-03-2020 15:10:17 7.7 C 62 %
1100 25-03-2020 15:20:18 7.6 C 62 %
Sensor: Nr:Datum:Temp:Feuchte:
G-T/H 1101 25-03-2020 15:30:18 7.7 C 62 %
1102 25-03-2020 15:40:18 7.7 C 62 %
1103 25-03-2020 15:50:17 7.7 C 62 %
1104 25-03-2020 16:00:18 7.7 C 62 %
1105 25-03-2020 16:10:18 7.8 C 62 %
1106 25-03-2020 16:20:17 7.7 C 62 %
1107 25-03-2020 16:30:17 7.8 C 62 %
1108 25-03-2020 16:40:17 7.8 C 62 %
1109 25-03-2020 16:50:18 7.8 C 62 %
1110 25-03-2020 17:00:18 7.8 C 62 %
1111 25-03-2020 17:10:18 7.8 C 62 %
1112 25-03-2020 17:20:17 7.9 C 62 %
1113 25-03-2020 17:30:17 7.9 C 62 %
1114 25-03-2020 17:40:17 7.9 C 62 %
1115 25-03-2020 17:50:17 7.9 C 62 %
1116 25-03-2020 18:00:18 7.9 C 62 %
1117 25-03-2020 18:10:18 7.9 C 62 %
1118 25-03-2020 18:20:17 8 C 62 %
1119 25-03-2020 18:30:18 8 C 62 %
1120 25-03-2020 18:40:18 8 C 62 %
1121 25-03-2020 18:50:18 8 C 62 %
1122 25-03-2020 19:00:18 8 C 62 %
1123 25-03-2020 19:10:18 8 C 63 %
1124 25-03-2020 19:20:17 8 C 63 %
1125 25-03-2020 19:30:18 8 C 63 %
Sensor: Nr:Datum:Temp:Feuchte:
G-T/H 1126 25-03-2020 19:40:18 8 C 63 %
1127 25-03-2020 19:50:17 8 C 63 %
1128 25-03-2020 20:00:17 8.1 C 63 %
1129 25-03-2020 20:10:17 8.1 C 64 %
1130 25-03-2020 20:20:17 8.1 C 64 %
1131 25-03-2020 20:30:18 8.1 C 64 %
1132 25-03-2020 20:40:18 8.1 C 64 %
1133 25-03-2020 20:50:17 8.1 C 64 %
1134 25-03-2020 21:00:18 8.1 C 64 %
1135 25-03-2020 21:10:18 8.1 C 64 %
1136 25-03-2020 21:20:17 8.1 C 64 %
1137 25-03-2020 21:30:17 8.1 C 64 %
1138 25-03-2020 21:40:17 8.1 C 64 %
1139 25-03-2020 21:50:17 8.1 C 64 %
1140 25-03-2020 22:00:17 8.1 C 64 %
1141 25-03-2020 22:10:17 8.1 C 64 %
1142 25-03-2020 22:20:17 8.1 C 64 %
1143 25-03-2020 22:30:18 8.1 C 64 %
1144 25-03-2020 22:40:18 8.2 C 64 %
1145 25-03-2020 22:50:18 8.2 C 64 %
1146 25-03-2020 23:00:18 8.2 C 64 %
1147 25-03-2020 23:10:18 8.2 C 64 %
1148 25-03-2020 23:20:17 8.2 C 64 %
1149 25-03-2020 23:30:18 8.2 C 64 %
1150 25-03-2020 23:40:18 8.2 C 64 %
Sensor: Nr:Datum:Temp:Feuchte:
G-T/H 1151 25-03-2020 23:50:18 8.2 C 64 %
1152 26-03-2020 00:00:18 8.2 C 64 %
1153 26-03-2020 00:10:18 8.1 C 64 %
1154 26-03-2020 00:20:18 8.1 C 64 %
1155 26-03-2020 00:30:18 8.1 C 64 %
1156 26-03-2020 00:40:18 8.1 C 64 %
1157 26-03-2020 00:50:18 8.1 C 64 %
1158 26-03-2020 01:00:18 8.1 C 64 %
1159 26-03-2020 01:10:18 8.1 C 64 %
1160 26-03-2020 01:20:17 8.1 C 64 %
1161 26-03-2020 01:30:17 8.1 C 64 %
1162 26-03-2020 01:40:17 8.1 C 64 %
1163 26-03-2020 01:50:17 8.1 C 64 %
1164 26-03-2020 02:00:17 8.1 C 64 %
1165 26-03-2020 02:10:17 8.1 C 64 %
1166 26-03-2020 02:20:17 8.1 C 64 %
1167 26-03-2020 02:30:17 8.1 C 64 %
1168 26-03-2020 02:40:18 8.1 C 64 %
1169 26-03-2020 02:50:17 8.1 C 63 %
1170 26-03-2020 03:00:17 8.1 C 63 %
1171 26-03-2020 03:10:18 8 C 63 %
1172 26-03-2020 03:20:18 8 C 63 %
1173 26-03-2020 03:30:18 8 C 63 %
1174 26-03-2020 03:40:18 8 C 63 %
1175 26-03-2020 03:50:17 8 C 63 %
Sensor: Nr:Datum:Temp:Feuchte:
G-T/H 1176 26-03-2020 04:00:17 8 C 63 %
1177 26-03-2020 04:10:17 8 C 63 %
1178 26-03-2020 04:20:17 8 C 63 %
1179 26-03-2020 04:30:18 8 C 63 %
1180 26-03-2020 04:40:18 8 C 63 %
1181 26-03-2020 04:50:17 8 C 63 %
1182 26-03-2020 05:00:18 7.9 C 64 %
1183 26-03-2020 05:10:18 7.9 C 64 %
1184 26-03-2020 05:20:17 7.9 C 64 %
1185 26-03-2020 05:30:17 7.9 C 64 %
1186 26-03-2020 05:40:18 7.9 C 64 %
1187 26-03-2020 05:50:17 7.9 C 64 %
1188 26-03-2020 06:00:18 7.9 C 64 %
1189 26-03-2020 06:10:18 7.8 C 64 %
1190 26-03-2020 06:20:18 7.8 C 64 %
1191 26-03-2020 06:30:18 7.8 C 64 %
1192 26-03-2020 06:40:18 7.8 C 64 %
1193 26-03-2020 06:50:18 7.8 C 64 %
1194 26-03-2020 07:00:18 7.8 C 64 %
1195 26-03-2020 07:10:18 7.8 C 64 %
1196 26-03-2020 07:20:18 7.8 C 64 %
1197 26-03-2020 07:30:18 7.7 C 64 %
1198 26-03-2020 07:40:18 7.7 C 64 %
1199 26-03-2020 07:50:17 7.7 C 64 %
1200 26-03-2020 08:00:18 7.7 C 64 %
Sensor: Nr:Datum:Temp:Feuchte:
G-T/H 1201 26-03-2020 08:10:18 7.7 C 64 %
1202 26-03-2020 08:20:18 7.7 C 64 %
1203 26-03-2020 08:30:18 7.7 C 64 %
1204 26-03-2020 08:40:18 7.7 C 64 %
1205 26-03-2020 08:50:17 7.7 C 64 %
1206 26-03-2020 09:00:18 7.7 C 64 %
1207 26-03-2020 09:10:18 7.7 C 64 %
1208 26-03-2020 09:20:18 7.7 C 64 %
1209 26-03-2020 09:30:18 7.7 C 64 %
1210 26-03-2020 09:40:18 7.7 C 64 %
1211 26-03-2020 09:50:18 7.6 C 64 %
1212 26-03-2020 10:00:18 7.7 C 64 %
1213 26-03-2020 10:10:18 7.7 C 64 %
1214 26-03-2020 10:20:18 7.6 C 64 %
1215 26-03-2020 10:30:18 7.7 C 64 %
1216 26-03-2020 10:40:18 7.7 C 64 %
1217 26-03-2020 10:50:17 7.6 C 64 %
1218 26-03-2020 11:00:18 7.6 C 64 %
1219 26-03-2020 11:10:18 7.6 C 64 %
1220 26-03-2020 11:20:18 7.6 C 64 %
1221 26-03-2020 11:30:18 7.6 C 64 %
1222 26-03-2020 11:40:18 7.6 C 64 %
1223 26-03-2020 11:50:18 7.7 C 64 %
1224 26-03-2020 12:00:18 7.6 C 64 %
1225 26-03-2020 12:10:18 7.7 C 64 %
Sensor: Nr:Datum:Temp:Feuchte:
G-T/H 1226 26-03-2020 12:20:17 7.7 C 64 %
1227 26-03-2020 12:30:17 7.7 C 64 %
1228 26-03-2020 12:40:17 7.7 C 64 %
1229 26-03-2020 12:50:17 7.7 C 64 %
1230 26-03-2020 13:00:17 7.7 C 64 %
1231 26-03-2020 13:10:17 7.7 C 63 %
1232 26-03-2020 13:20:18 7.8 C 63 %
1233 26-03-2020 13:30:18 7.8 C 63 %
1234 26-03-2020 13:40:18 7.8 C 63 %
1235 26-03-2020 13:50:18 7.8 C 63 %
1236 26-03-2020 14:00:18 7.8 C 63 %
1237 26-03-2020 14:10:18 7.8 C 63 %
1238 26-03-2020 14:20:18 7.8 C 63 %
1239 26-03-2020 14:30:18 7.9 C 63 %
1240 26-03-2020 14:40:18 7.9 C 64 %
1241 26-03-2020 14:50:17 7.9 C 64 %
1242 26-03-2020 15:00:17 7.9 C 64 %
1243 26-03-2020 15:10:18 7.9 C 64 %
1244 26-03-2020 15:20:18 8 C 63 %
1245 26-03-2020 15:30:18 8 C 63 %
1246 26-03-2020 15:40:18 8 C 63 %
1247 26-03-2020 15:50:18 8 C 63 %
1248 26-03-2020 16:00:18 8 C 63 %
1249 26-03-2020 16:10:18 8.1 C 63 %
1250 26-03-2020 16:20:18 8.1 C 63 %
Sensor: Nr:Datum:Temp:Feuchte:
G-T/H 1251 26-03-2020 16:30:18 8.1 C 63 %
1252 26-03-2020 16:40:18 8.1 C 64 %
1253 26-03-2020 16:50:18 8.1 C 64 %
1254 26-03-2020 17:00:18 8.1 C 64 %
1255 26-03-2020 17:10:18 8.2 C 64 %
1256 26-03-2020 17:20:17 8.2 C 64 %
1257 26-03-2020 17:30:17 8.2 C 63 %
1258 26-03-2020 17:40:17 8.3 C 63 %
1259 26-03-2020 17:50:17 8.3 C 63 %
1260 26-03-2020 18:00:17 8.3 C 64 %
1261 26-03-2020 18:10:17 8.3 C 63 %
1262 26-03-2020 18:20:18 8.3 C 63 %
1263 26-03-2020 18:30:18 8.3 C 63 %
1264 26-03-2020 18:40:18 8.4 C 64 %
1265 26-03-2020 18:50:17 8.4 C 64 %
1266 26-03-2020 19:00:17 8.4 C 64 %
1267 26-03-2020 19:10:17 8.4 C 64 %
1268 26-03-2020 19:20:17 8.4 C 64 %
1269 26-03-2020 19:30:17 8.4 C 64 %
1270 26-03-2020 19:40:17 8.4 C 65 %
1271 26-03-2020 19:50:17 8.4 C 65 %
1272 26-03-2020 20:00:17 8.4 C 65 %
1273 26-03-2020 20:10:18 8.5 C 65 %
1274 26-03-2020 20:20:18 8.5 C 65 %
1275 26-03-2020 20:30:17 8.5 C 65 %
Sensor: Nr:Datum:Temp:Feuchte:
G-T/H 1276 26-03-2020 20:40:17 8.5 C 65 %
1277 26-03-2020 20:50:17 8.5 C 65 %
1278 26-03-2020 21:00:17 8.5 C 65 %
1279 26-03-2020 21:10:17 8.5 C 65 %
1280 26-03-2020 21:20:17 8.5 C 65 %
1281 26-03-2020 21:30:18 8.5 C 65 %
1282 26-03-2020 21:40:18 8.6 C 65 %
1283 26-03-2020 21:50:18 8.5 C 66 %
1284 26-03-2020 22:00:18 8.6 C 66 %
1285 26-03-2020 22:10:18 8.6 C 66 %
1286 26-03-2020 22:20:17 8.6 C 66 %
1287 26-03-2020 22:30:17 8.6 C 66 %
1288 26-03-2020 22:40:17 8.6 C 66 %
1289 26-03-2020 22:50:17 8.6 C 66 %
1290 26-03-2020 23:00:18 8.6 C 66 %
1291 26-03-2020 23:10:18 8.6 C 66 %
1292 26-03-2020 23:20:17 8.6 C 66 %
1293 26-03-2020 23:30:18 8.6 C 66 %
1294 26-03-2020 23:40:18 8.6 C 66 %
1295 26-03-2020 23:50:18 8.6 C 66 %
1296 27-03-2020 00:00:18 8.6 C 66 %
1297 27-03-2020 00:10:18 8.6 C 66 %
1298 27-03-2020 00:20:17 8.6 C 66 %
1299 27-03-2020 00:30:17 8.6 C 66 %
1300 27-03-2020 00:40:17 8.6 C 66 %
Sensor: Nr:Datum:Temp:Feuchte:
G-T/H 1301 27-03-2020 00:50:18 8.6 C 66 %
1302 27-03-2020 01:00:18 8.6 C 66 %
1303 27-03-2020 01:10:18 8.6 C 66 %
1304 27-03-2020 01:20:17 8.6 C 66 %
1305 27-03-2020 01:30:18 8.6 C 66 %
1306 27-03-2020 01:40:18 8.6 C 66 %
1307 27-03-2020 01:50:18 8.6 C 66 %
1308 27-03-2020 02:00:18 8.6 C 66 %
1309 27-03-2020 02:10:18 8.6 C 66 %
1310 27-03-2020 02:20:17 8.6 C 66 %
1311 27-03-2020 02:30:17 8.6 C 66 %
1312 27-03-2020 02:40:17 8.6 C 66 %
1313 27-03-2020 02:50:17 8.5 C 66 %
1314 27-03-2020 03:00:17 8.6 C 66 %
1315 27-03-2020 03:10:17 8.6 C 66 %
1316 27-03-2020 03:20:17 8.6 C 66 %
1317 27-03-2020 03:30:17 8.5 C 66 %
1318 27-03-2020 03:40:17 8.5 C 66 %
1319 27-03-2020 03:50:17 8.5 C 66 %
1320 27-03-2020 04:00:18 8.5 C 66 %
1321 27-03-2020 04:10:18 8.5 C 66 %
1322 27-03-2020 04:20:18 8.5 C 66 %
1323 27-03-2020 04:30:18 8.5 C 66 %
1324 27-03-2020 04:40:18 8.5 C 66 %
1325 27-03-2020 04:50:17 8.5 C 66 %
Sensor: Nr:Datum:Temp:Feuchte:
G-T/H 1326 27-03-2020 05:00:18 8.5 C 66 %
1327 27-03-2020 05:10:18 8.5 C 66 %
1328 27-03-2020 05:20:18 8.5 C 66 %
1329 27-03-2020 05:30:18 8.5 C 66 %
1330 27-03-2020 05:40:18 8.5 C 66 %
1331 27-03-2020 05:50:18 8.4 C 66 %
1332 27-03-2020 06:00:18 8.5 C 66 %
1333 27-03-2020 06:10:18 8.4 C 66 %
1334 27-03-2020 06:20:18 8.4 C 66 %
1335 27-03-2020 06:30:18 8.4 C 66 %
1336 27-03-2020 06:40:18 8.4 C 66 %
1337 27-03-2020 06:50:17 8.4 C 66 %
1338 27-03-2020 07:00:18 8.4 C 66 %
1339 27-03-2020 07:10:18 8.4 C 66 %
1340 27-03-2020 07:20:18 8.4 C 65 %
1341 27-03-2020 07:30:18 8.3 C 65 %
1342 27-03-2020 07:40:18 8.4 C 66 %
1343 27-03-2020 07:50:17 8.3 C 66 %
1344 27-03-2020 08:00:17 8.3 C 66 %
1345 27-03-2020 08:10:18 8.3 C 66 %
1346 27-03-2020 08:20:18 8.3 C 66 %
1347 27-03-2020 08:30:18 8.3 C 66 %
1348 27-03-2020 08:40:18 8.3 C 66 %
1349 27-03-2020 08:50:17 8.3 C 66 %
1350 27-03-2020 09:00:18 8.3 C 66 %
Sensor: Nr:Datum:Temp:Feuchte:
G-T/H 1351 27-03-2020 09:10:18 8.3 C 66 %
1352 27-03-2020 09:20:17 8.2 C 66 %
1353 27-03-2020 09:30:18 8.2 C 66 %
1354 27-03-2020 09:40:18 8.3 C 66 %
1355 27-03-2020 09:50:18 8.3 C 66 %
1356 27-03-2020 10:00:18 8.2 C 66 %
1357 27-03-2020 10:10:18 8.2 C 66 %
1358 27-03-2020 10:20:17 8.3 C 66 %
1359 27-03-2020 10:30:17 8.3 C 66 %
1360 27-03-2020 10:40:17 8.3 C 66 %
1361 27-03-2020 10:50:17 8.3 C 67 %
1362 27-03-2020 11:00:17 8.3 C 67 %
1363 27-03-2020 11:10:17 8.3 C 67 %
1364 27-03-2020 11:20:17 8.3 C 67 %
1365 27-03-2020 11:30:17 8.3 C 67 %
1366 27-03-2020 11:40:17 8.3 C 67 %
1367 27-03-2020 11:50:17 8.3 C 67 %
1368 27-03-2020 12:00:17 8.3 C 67 %
1369 27-03-2020 12:10:17 8.3 C 67 %
1370 27-03-2020 12:20:17 8.4 C 67 %
1371 27-03-2020 12:30:17 8.4 C 67 %
1372 27-03-2020 12:40:18 8.4 C 67 %
1373 27-03-2020 12:50:18 8.5 C 67 %
1374 27-03-2020 13:00:18 8.4 C 67 %
1375 27-03-2020 13:10:18 8.5 C 67 %
Sensor: Nr:Datum:Temp:Feuchte:
G-T/H 1376 27-03-2020 13:20:17 8.5 C 67 %
1377 27-03-2020 13:30:18 8.6 C 67 %
1378 27-03-2020 13:40:18 8.6 C 67 %
1379 27-03-2020 13:50:18 8.6 C 67 %
1380 27-03-2020 14:00:18 8.7 C 67 %
1381 27-03-2020 14:10:18 8.7 C 67 %
1382 27-03-2020 14:20:18 8.7 C 67 %
1383 27-03-2020 14:30:17 8.8 C 67 %
1384 27-03-2020 14:40:17 8.8 C 67 %
1385 27-03-2020 14:50:17 8.8 C 67 %
1386 27-03-2020 15:00:17 8.9 C 67 %
1387 27-03-2020 15:10:17 9.4 C 64 %
1388 27-03-2020 15:20:17 9.7 C 61 %
1389 27-03-2020 15:30:18 9.9 C 59 %
1390 27-03-2020 15:40:18 10.1 C 56 %
1391 27-03-2020 15:50:17 10.2 C 55 %
1392 27-03-2020 16:00:17 10.4 C 54 %
1393 27-03-2020 16:10:17 10.5 C 53 %
1394 27-03-2020 16:20:17 10.6 C 53 %
1395 27-03-2020 16:30:17 10.7 C 52 %
1396 27-03-2020 16:40:17 10.8 C 52 %
1397 27-03-2020 16:50:17 10.9 C 51 %
1398 27-03-2020 17:00:18 11 C 50 %
1399 27-03-2020 17:10:18 11.1 C 50 %
1400 27-03-2020 17:20:18 11.2 C 49 %
Sensor: Nr:Datum:Temp:Feuchte:
G-T/H 1401 27-03-2020 17:30:18 11.2 C 49 %
1402 27-03-2020 17:40:18 11.3 C 49 %
1403 27-03-2020 17:50:18 11.4 C 48 %
1404 27-03-2020 18:00:17 11.4 C 49 %
1405 27-03-2020 18:10:17 11.5 C 48 %
1406 27-03-2020 18:20:17 11.5 C 49 %
1407 27-03-2020 18:30:18 11.4 C 49 %
1408 27-03-2020 18:40:18 11.3 C 50 %
1409 27-03-2020 18:50:18 11.2 C 51 %
1410 27-03-2020 19:00:18 11.1 C 52 %
1411 27-03-2020 19:10:18 11 C 52 %
1412 27-03-2020 19:20:17 11 C 52 %
1413 27-03-2020 19:30:17 10.9 C 53 %
1414 27-03-2020 19:40:17 10.8 C 53 %
1415 27-03-2020 19:50:17 10.6 C 53 %
1416 27-03-2020 20:00:18 10.6 C 53 %
1417 27-03-2020 20:10:18 10.5 C 53 %
1418 27-03-2020 20:20:17 10.5 C 53 %
1419 27-03-2020 20:30:17 10.4 C 53 %
1420 27-03-2020 20:40:17 10.4 C 54 %
1421 27-03-2020 20:50:18 10.4 C 54 %
1422 27-03-2020 21:00:17 10.2 C 54 %
1423 27-03-2020 21:10:17 10.2 C 54 %
1424 27-03-2020 21:20:17 10.1 C 54 %
1425 27-03-2020 21:30:17 10 C 54 %
Sensor: Nr:Datum:Temp:Feuchte:
G-T/H 1426 27-03-2020 21:40:17 9.9 C 54 %
1427 27-03-2020 21:50:17 9.8 C 54 %
1428 27-03-2020 22:00:17 9.7 C 54 %
1429 27-03-2020 22:10:17 9.6 C 54 %
1430 27-03-2020 22:20:17 9.6 C 54 %
1431 27-03-2020 22:30:18 9.5 C 54 %
1432 27-03-2020 22:40:18 9.4 C 54 %
1433 27-03-2020 22:50:18 9.7 C 55 %
1434 27-03-2020 23:00:18 9.8 C 55 %
1435 27-03-2020 23:10:18 9.9 C 56 %
1436 27-03-2020 23:20:17 9.9 C 56 %
1437 27-03-2020 23:30:17 9.9 C 56 %
1438 27-03-2020 23:40:17 10 C 56 %
1439 27-03-2020 23:50:17 10 C 56 %
1440 28-03-2020 00:00:17 10 C 57 %
1441 28-03-2020 00:10:17 10 C 57 %
1442 28-03-2020 00:20:17 10 C 58 %
1443 28-03-2020 00:30:18 10.1 C 58 %
1444 28-03-2020 00:40:18 10.1 C 58 %
1445 28-03-2020 00:50:17 10 C 58 %
1446 28-03-2020 01:00:17 10.1 C 59 %
1447 28-03-2020 01:10:17 10.1 C 59 %
1448 28-03-2020 01:20:17 10.1 C 59 %
1449 28-03-2020 01:30:17 10.1 C 59 %
1450 28-03-2020 01:40:18 10.1 C 59 %
Sensor: Nr:Datum:Temp:Feuchte:
G-T/H 1451 28-03-2020 01:50:17 10.1 C 60 %
1452 28-03-2020 02:00:18 10.1 C 60 %
1453 28-03-2020 02:10:18 10.1 C 60 %
1454 28-03-2020 02:20:18 10 C 60 %
1455 28-03-2020 02:30:17 10 C 60 %
1456 28-03-2020 02:40:17 10 C 60 %
1457 28-03-2020 02:50:18 10.1 C 60 %
1458 28-03-2020 03:00:18 10 C 60 %
1459 28-03-2020 03:10:18 10 C 60 %
1460 28-03-2020 03:20:17 10 C 60 %
1461 28-03-2020 03:30:18 10 C 61 %
1462 28-03-2020 03:40:18 10 C 61 %
1463 28-03-2020 03:50:17 10 C 61 %
1464 28-03-2020 04:00:18 10 C 61 %
1465 28-03-2020 04:10:18 10 C 61 %
1466 28-03-2020 04:20:18 10 C 61 %
1467 28-03-2020 04:30:18 10 C 61 %
1468 28-03-2020 04:40:18 10 C 61 %
1469 28-03-2020 04:50:17 10 C 61 %
1470 28-03-2020 05:00:18 9.9 C 62 %
1471 28-03-2020 05:10:18 9.9 C 62 %
1472 28-03-2020 05:20:17 9.9 C 62 %
1473 28-03-2020 05:30:18 9.9 C 62 %
1474 28-03-2020 05:40:18 9.8 C 62 %
1475 28-03-2020 05:50:18 9.8 C 62 %
Sensor: Nr:Datum:Temp:Feuchte:
G-T/H 1476 28-03-2020 06:00:18 9.8 C 62 %
1477 28-03-2020 06:10:18 9.8 C 62 %
1478 28-03-2020 06:20:17 9.8 C 62 %
1479 28-03-2020 06:30:17 9.8 C 62 %
1480 28-03-2020 06:40:17 9.8 C 62 %
1481 28-03-2020 06:50:17 9.8 C 62 %
1482 28-03-2020 07:00:17 9.8 C 62 %
1483 28-03-2020 07:10:17 9.8 C 62 %
1484 28-03-2020 07:20:17 9.7 C 62 %
1485 28-03-2020 07:30:18 9.7 C 62 %
1486 28-03-2020 07:40:18 9.7 C 62 %
1487 28-03-2020 07:50:17 9.7 C 62 %
1488 28-03-2020 08:00:17 9.7 C 62 %
1489 28-03-2020 08:10:18 9.7 C 63 %
1490 28-03-2020 08:20:18 9.7 C 63 %
1491 28-03-2020 08:30:17 9.7 C 63 %
1492 28-03-2020 08:40:17 9.6 C 63 %
1493 28-03-2020 08:50:18 9.7 C 63 %
1494 28-03-2020 09:00:18 9.6 C 63 %
1495 28-03-2020 09:10:18 9.7 C 63 %
1496 28-03-2020 09:20:17 9.6 C 63 %
1497 28-03-2020 09:30:18 9.6 C 63 %
1498 28-03-2020 09:40:18 9.6 C 63 %
1499 28-03-2020 09:50:18 9.6 C 63 %
1500 28-03-2020 10:00:18 9.6 C 63 %
Sensor: Nr:Datum:Temp:Feuchte:
G-T/H 1501 28-03-2020 10:10:18 9.6 C 63 %
1502 28-03-2020 10:20:17 9.6 C 64 %
1503 28-03-2020 10:30:17 9.6 C 64 %
1504 28-03-2020 10:40:17 9.6 C 64 %
1505 28-03-2020 10:50:18 9.6 C 64 %
1506 28-03-2020 11:00:18 9.6 C 64 %
1507 28-03-2020 11:10:18 9.6 C 64 %
1508 28-03-2020 11:20:17 9.6 C 64 %
1509 28-03-2020 11:30:17 9.6 C 64 %
1510 28-03-2020 11:40:17 9.6 C 64 %
1511 28-03-2020 11:50:18 9.6 C 64 %
1512 28-03-2020 12:00:17 9.7 C 64 %
1513 28-03-2020 12:10:17 9.8 C 64 %
1514 28-03-2020 12:20:17 9.8 C 64 %
1515 28-03-2020 12:30:17 9.8 C 64 %
1516 28-03-2020 12:40:17 9.8 C 64 %
1517 28-03-2020 12:50:18 9.8 C 64 %
1518 28-03-2020 13:00:18 9.8 C 64 %
1519 28-03-2020 13:10:18 9.9 C 64 %
1520 28-03-2020 13:20:18 10.6 C 62 %
1521 28-03-2020 13:30:17 11 C 59 %
1522 28-03-2020 13:40:17 11.2 C 57 %
1523 28-03-2020 13:50:18 11.4 C 56 %
1524 28-03-2020 14:00:17 11.5 C 56 %
1525 28-03-2020 14:10:17 11.7 C 55 %
Sensor: Nr:Datum:Temp:Feuchte:
G-T/H 1526 28-03-2020 14:20:17 11.9 C 54 %
1527 28-03-2020 14:30:17 11.9 C 53 %
1528 28-03-2020 14:40:17 12.1 C 52 %
1529 28-03-2020 14:50:17 12.2 C 52 %
1530 28-03-2020 15:00:18 12.3 C 51 %
1531 28-03-2020 15:10:18 12.4 C 49 %
1532 28-03-2020 15:20:18 12.4 C 49 %
1533 28-03-2020 15:30:18 11.9 C 50 %
1534 28-03-2020 15:40:18 11.9 C 51 %
1535 28-03-2020 15:50:18 12.1 C 50 %
1536 28-03-2020 16:00:18 11.8 C 51 %
1537 28-03-2020 16:10:18 11.6 C 52 %
1538 28-03-2020 16:20:18 11.5 C 53 %
1539 28-03-2020 16:30:18 11.4 C 54 %
1540 28-03-2020 16:40:18 11.4 C 55 %
1541 28-03-2020 16:50:18 11.3 C 55 %
1542 28-03-2020 17:00:18 11.3 C 56 %
1543 28-03-2020 17:10:18 11.3 C 56 %
1544 28-03-2020 17:20:18 11.2 C 56 %
1545 28-03-2020 17:30:18 11.2 C 57 %
1546 28-03-2020 17:40:18 11.2 C 57 %
1547 28-03-2020 17:50:17 11.2 C 57 %
1548 28-03-2020 18:00:18 11.2 C 57 %
1549 28-03-2020 18:10:18 11.2 C 57 %
1550 28-03-2020 18:20:17 11.2 C 58 %
Sensor: Nr:Datum:Temp:Feuchte:
G-T/H 1551 28-03-2020 18:30:17 11.1 C 58 %
1552 28-03-2020 18:40:17 11.1 C 58 %
1553 28-03-2020 18:50:18 11.1 C 58 %
1554 28-03-2020 19:00:18 11.1 C 58 %
1555 28-03-2020 19:10:18 11.1 C 58 %
1556 28-03-2020 19:20:18 11.1 C 58 %
1557 28-03-2020 19:30:18 11.1 C 58 %
1558 28-03-2020 19:40:18 11.1 C 58 %
1559 28-03-2020 19:50:17 11.1 C 59 %
1560 28-03-2020 20:00:18 11.1 C 59 %
1561 28-03-2020 20:10:18 11.1 C 59 %
1562 28-03-2020 20:20:17 11.1 C 59 %
1563 28-03-2020 20:30:18 11.1 C 59 %
1564 28-03-2020 20:40:18 11 C 59 %
1565 28-03-2020 20:50:17 11 C 59 %
1566 28-03-2020 21:00:17 11.1 C 60 %
1567 28-03-2020 21:10:17 11 C 60 %
1568 28-03-2020 21:20:17 11 C 60 %
1569 28-03-2020 21:30:17 11 C 60 %
1570 28-03-2020 21:40:17 11 C 60 %
1571 28-03-2020 21:50:17 11 C 60 %
1572 28-03-2020 22:00:17 11 C 60 %
1573 28-03-2020 22:10:17 11 C 60 %
1574 28-03-2020 22:20:17 11 C 61 %
1575 28-03-2020 22:30:17 11 C 61 %
Sensor: Nr:Datum:Temp:Feuchte:
G-T/H 1576 28-03-2020 22:40:17 11 C 61 %
1577 28-03-2020 22:50:17 11 C 61 %
1578 28-03-2020 23:00:17 11 C 61 %
1579 28-03-2020 23:10:17 11 C 61 %
1580 28-03-2020 23:20:18 11 C 61 %
1581 28-03-2020 23:30:18 10.9 C 62 %
1582 28-03-2020 23:40:18 10.9 C 62 %
1583 28-03-2020 23:50:17 10.9 C 62 %
1584 29-03-2020 00:00:18 10.9 C 62 %
1585 29-03-2020 00:10:18 10.9 C 62 %
1586 29-03-2020 00:20:17 10.9 C 62 %
1587 29-03-2020 00:30:17 10.9 C 62 %
1588 29-03-2020 00:40:17 10.9 C 62 %
1589 29-03-2020 00:50:18 10.9 C 62 %
1590 29-03-2020 01:00:18 10.9 C 62 %
1591 29-03-2020 01:10:18 10.9 C 62 %
1592 29-03-2020 01:20:17 10.8 C 62 %
1593 29-03-2020 01:30:17 10.8 C 62 %
1594 29-03-2020 01:40:17 10.8 C 62 %
1595 29-03-2020 01:50:17 10.8 C 62 %
1596 29-03-2020 02:00:17 10.8 C 62 %
1597 29-03-2020 02:10:17 10.8 C 62 %
1598 29-03-2020 02:20:18 10.8 C 62 %
1599 29-03-2020 02:30:18 10.8 C 62 %
1600 29-03-2020 02:40:18 10.7 C 62 %
Sensor: Nr:Datum:Temp:Feuchte:
G-T/H 1601 29-03-2020 02:50:18 10.7 C 62 %
1602 29-03-2020 04:00:18 10.7 C 62 %
1603 29-03-2020 04:10:18 10.7 C 62 %
1604 29-03-2020 04:20:17 10.7 C 61 %
1605 29-03-2020 04:30:17 10.6 C 61 %
1606 29-03-2020 04:40:17 10.6 C 61 %
1607 29-03-2020 04:50:18 10.6 C 61 %
1608 29-03-2020 05:00:17 10.6 C 61 %
1609 29-03-2020 05:10:17 10.5 C 60 %
1610 29-03-2020 05:20:17 10.5 C 60 %
1611 29-03-2020 05:30:17 10.5 C 60 %
1612 29-03-2020 05:40:17 10.5 C 60 %
1613 29-03-2020 05:50:18 10.5 C 60 %
1614 29-03-2020 06:00:18 10.5 C 60 %
1615 29-03-2020 06:10:18 10.5 C 60 %
1616 29-03-2020 06:20:17 10.5 C 60 %
1617 29-03-2020 06:30:18 10.4 C 60 %
1618 29-03-2020 06:40:18 10.4 C 60 %
1619 29-03-2020 06:50:17 10.4 C 60 %
1620 29-03-2020 07:00:18 10.4 C 60 %
1621 29-03-2020 07:10:18 10.4 C 60 %
1622 29-03-2020 07:20:17 10.4 C 60 %
1623 29-03-2020 07:30:17 10.4 C 60 %
1624 29-03-2020 07:40:17 10.3 C 61 %
1625 29-03-2020 07:50:17 10.4 C 61 %
Sensor: Nr:Datum:Temp:Feuchte:
G-T/H 1626 29-03-2020 08:00:18 10.3 C 61 %
1627 29-03-2020 08:10:18 10.3 C 61 %
1628 29-03-2020 08:20:17 10.3 C 60 %
1629 29-03-2020 08:30:17 10.2 C 60 %
1630 29-03-2020 08:40:17 10.2 C 60 %
1631 29-03-2020 08:50:17 10.2 C 60 %
1632 29-03-2020 09:00:17 10.2 C 60 %
1633 29-03-2020 09:10:17 10.2 C 60 %
1634 29-03-2020 09:20:17 10.2 C 60 %
1635 29-03-2020 09:30:17 10.2 C 60 %
1636 29-03-2020 09:40:17 10.2 C 60 %
1637 29-03-2020 09:50:17 10.2 C 60 %
1638 29-03-2020 10:00:17 10.1 C 60 %
1639 29-03-2020 10:10:17 10.1 C 60 %
1640 29-03-2020 10:20:17 10.1 C 60 %
1641 29-03-2020 10:30:18 10.1 C 60 %
1642 29-03-2020 10:40:18 10.1 C 60 %
1643 29-03-2020 10:50:17 10.1 C 60 %
1644 29-03-2020 11:00:18 10.1 C 60 %
1645 29-03-2020 11:10:18 10.1 C 60 %
1646 29-03-2020 11:20:18 10 C 60 %
1647 29-03-2020 11:30:18 10 C 60 %
1648 29-03-2020 11:40:18 10 C 60 %
1649 29-03-2020 11:50:17 10 C 60 %
1650 29-03-2020 12:00:17 10 C 60 %
Sensor: Nr:Datum:Temp:Feuchte:
G-T/H 1651 29-03-2020 12:10:17 10 C 60 %
1652 29-03-2020 12:20:17 10 C 60 %
1653 29-03-2020 12:30:17 10 C 60 %
1654 29-03-2020 12:40:17 10 C 60 %
1655 29-03-2020 12:50:18 10 C 59 %
1656 29-03-2020 13:00:18 10 C 59 %
1657 29-03-2020 13:10:18 9.9 C 60 %
1658 29-03-2020 13:20:17 9.9 C 60 %
1659 29-03-2020 13:30:17 9.9 C 60 %
1660 29-03-2020 13:40:18 9.9 C 60 %
1661 29-03-2020 13:50:17 9.9 C 60 %
1662 29-03-2020 14:00:18 9.9 C 60 %
1663 29-03-2020 14:10:18 9.9 C 60 %
1664 29-03-2020 14:20:17 9.9 C 60 %
1665 29-03-2020 14:30:17 9.9 C 60 %
1666 29-03-2020 14:40:17 9.9 C 60 %
1667 29-03-2020 14:50:17 9.9 C 60 %
1668 29-03-2020 15:00:17 9.9 C 60 %
1669 29-03-2020 15:10:17 9.9 C 60 %
1670 29-03-2020 15:20:17 9.9 C 60 %
1671 29-03-2020 15:30:18 9.9 C 60 %
1672 29-03-2020 15:40:18 9.9 C 60 %
1673 29-03-2020 15:50:17 9.9 C 60 %
1674 29-03-2020 16:00:18 9.9 C 60 %
1675 29-03-2020 16:10:18 9.9 C 60 %
Sensor: Nr:Datum:Temp:Feuchte:
G-T/H 1676 29-03-2020 16:20:17 9.9 C 60 %
1677 29-03-2020 16:30:18 9.9 C 60 %
1678 29-03-2020 16:40:18 9.9 C 60 %
1679 29-03-2020 16:50:18 9.9 C 60 %
1680 29-03-2020 17:00:18 9.9 C 60 %
1681 29-03-2020 17:10:18 9.9 C 60 %
1682 29-03-2020 17:20:17 9.9 C 60 %
1683 29-03-2020 17:30:17 9.9 C 60 %
1684 29-03-2020 17:40:17 9.9 C 60 %
1685 29-03-2020 17:50:18 9.9 C 60 %
1686 29-03-2020 18:00:18 9.9 C 60 %
1687 29-03-2020 18:10:18 9.9 C 60 %
1688 29-03-2020 18:20:18 9.9 C 60 %
1689 29-03-2020 18:30:18 9.9 C 60 %
1690 29-03-2020 18:40:18 9.9 C 60 %
1691 29-03-2020 18:50:18 9.9 C 60 %
1692 29-03-2020 19:00:18 9.9 C 60 %
1693 29-03-2020 19:10:18 9.9 C 60 %
1694 29-03-2020 19:20:17 9.9 C 60 %
1695 29-03-2020 19:30:17 9.9 C 60 %
1696 29-03-2020 19:40:17 9.9 C 60 %
1697 29-03-2020 19:50:17 9.9 C 60 %
1698 29-03-2020 20:00:17 9.8 C 60 %
1699 29-03-2020 20:10:17 9.8 C 61 %
1700 29-03-2020 20:20:18 9.8 C 61 %
Sensor: Nr:Datum:Temp:Feuchte:
G-T/H 1701 29-03-2020 20:30:18 9.8 C 61 %
1702 29-03-2020 20:40:18 9.8 C 61 %
1703 29-03-2020 20:50:18 9.8 C 61 %
1704 29-03-2020 21:00:18 9.8 C 61 %
1705 29-03-2020 21:10:18 9.8 C 61 %
1706 29-03-2020 21:20:18 9.8 C 61 %
1707 29-03-2020 21:30:17 9.8 C 61 %
1708 29-03-2020 21:40:17 9.8 C 62 %
1709 29-03-2020 21:50:17 9.8 C 62 %
1710 29-03-2020 22:00:17 9.8 C 62 %
1711 29-03-2020 22:10:17 9.8 C 62 %
1712 29-03-2020 22:20:18 9.8 C 61 %
1713 29-03-2020 22:30:18 9.7 C 61 %
1714 29-03-2020 22:40:18 9.7 C 61 %
1715 29-03-2020 22:50:18 9.7 C 61 %
1716 29-03-2020 23:00:18 9.7 C 61 %
1717 29-03-2020 23:10:18 9.7 C 61 %
1718 29-03-2020 23:20:17 9.7 C 61 %
1719 29-03-2020 23:30:17 9.7 C 61 %
1720 29-03-2020 23:40:17 9.6 C 61 %
1721 29-03-2020 23:50:17 9.6 C 61 %
1722 30-03-2020 00:00:18 9.6 C 61 %
1723 30-03-2020 00:10:18 9.6 C 60 %
1724 30-03-2020 00:20:17 9.6 C 60 %
1725 30-03-2020 00:30:17 9.6 C 60 %
Sensor: Nr:Datum:Temp:Feuchte:
G-T/H 1726 30-03-2020 00:40:17 9.6 C 60 %
1727 30-03-2020 00:50:17 9.5 C 60 %
1728 30-03-2020 01:00:18 9.5 C 60 %
1729 30-03-2020 01:10:18 9.5 C 61 %
1730 30-03-2020 01:20:17 9.5 C 61 %
1731 30-03-2020 01:30:18 9.5 C 61 %
1732 30-03-2020 01:40:18 9.5 C 61 %
1733 30-03-2020 01:50:17 9.4 C 61 %
1734 30-03-2020 02:00:17 9.4 C 61 %
1735 30-03-2020 02:10:17 9.4 C 61 %
1736 30-03-2020 02:20:17 9.4 C 61 %
1737 30-03-2020 02:30:18 9.4 C 61 %
1738 30-03-2020 02:40:18 9.3 C 61 %
1739 30-03-2020 02:50:17 9.3 C 61 %
1740 30-03-2020 03:00:18 9.3 C 61 %
1741 30-03-2020 03:10:18 9.3 C 61 %
1742 30-03-2020 03:20:18 9.3 C 61 %
1743 30-03-2020 03:30:18 9.3 C 61 %
1744 30-03-2020 03:40:18 9.2 C 61 %
1745 30-03-2020 03:50:17 9.2 C 61 %
1746 30-03-2020 04:00:18 9.2 C 61 %
1747 30-03-2020 04:10:18 9.1 C 61 %
1748 30-03-2020 04:20:17 9.2 C 60 %
1749 30-03-2020 04:30:17 9.2 C 60 %
1750 30-03-2020 04:40:17 9.1 C 60 %
Sensor: Nr:Datum:Temp:Feuchte:
G-T/H 1751 30-03-2020 04:50:17 9.1 C 60 %
1752 30-03-2020 05:00:17 9 C 60 %
1753 30-03-2020 05:10:17 9 C 60 %
1754 30-03-2020 05:20:17 9 C 60 %
1755 30-03-2020 05:30:18 9 C 60 %
1756 30-03-2020 05:40:18 9 C 60 %
1757 30-03-2020 05:50:17 9 C 60 %
1758 30-03-2020 06:00:18 8.9 C 61 %
1759 30-03-2020 06:10:18 8.9 C 61 %
1760 30-03-2020 06:20:17 8.9 C 61 %
1761 30-03-2020 06:30:17 8.8 C 61 %
1762 30-03-2020 06:40:17 8.9 C 61 %
1763 30-03-2020 06:50:17 8.8 C 61 %
1764 30-03-2020 07:00:17 8.7 C 61 %
1765 30-03-2020 07:10:17 8.7 C 61 %
1766 30-03-2020 07:20:17 8.7 C 61 %
1767 30-03-2020 07:30:18 8.7 C 60 %
1768 30-03-2020 07:40:18 8.7 C 60 %
1769 30-03-2020 07:50:17 8.7 C 60 %
1770 30-03-2020 08:00:18 8.6 C 60 %
1771 30-03-2020 08:10:18 8.6 C 60 %
1772 30-03-2020 08:20:18 8.6 C 60 %
1773 30-03-2020 08:30:18 8.5 C 60 %
1774 30-03-2020 08:40:18 8.5 C 60 %
1775 30-03-2020 08:50:17 8.5 C 60 %
Sensor: Nr:Datum:Temp:Feuchte:
G-T/H 1776 30-03-2020 09:00:18 8.5 C 60 %
1777 30-03-2020 09:10:18 8.5 C 60 %
1778 30-03-2020 09:20:18 8.5 C 60 %
1779 30-03-2020 09:30:18 8.5 C 60 %
1780 30-03-2020 09:40:18 8.4 C 60 %
1781 30-03-2020 09:50:18 8.4 C 60 %
1782 30-03-2020 10:00:18 8.4 C 60 %
1783 30-03-2020 10:10:18 8.4 C 60 %
1784 30-03-2020 10:20:17 8.3 C 60 %
1785 30-03-2020 10:30:17 8.3 C 60 %
1786 30-03-2020 10:40:17 8.3 C 60 %
1787 30-03-2020 10:50:17 8.3 C 60 %
1788 30-03-2020 11:00:17 8.3 C 60 %
1789 30-03-2020 11:10:18 8.3 C 60 %
1790 30-03-2020 11:20:18 8.2 C 60 %
1791 30-03-2020 11:30:18 8.2 C 60 %
1792 30-03-2020 11:40:18 8.2 C 60 %
1793 30-03-2020 11:50:18 8.2 C 60 %
1794 30-03-2020 12:00:18 8.2 C 60 %
1795 30-03-2020 12:10:18 8.2 C 60 %
1796 30-03-2020 12:20:18 8.2 C 60 %
1797 30-03-2020 12:30:18 8.2 C 60 %
1798 30-03-2020 12:40:18 8.2 C 60 %
1799 30-03-2020 12:50:18 8.2 C 60 %
1800 30-03-2020 13:00:18 8.1 C 60 %
Sensor: Nr:Datum:Temp:Feuchte:
G-T/H 1801 30-03-2020 13:10:18 8.2 C 60 %
1802 30-03-2020 13:20:18 7.9 C 52 %
1803 30-03-2020 13:30:17 8 C 50 %
1804 30-03-2020 13:40:17 8 C 50 %
1805 30-03-2020 13:50:17 8 C 51 %
1806 30-03-2020 14:00:17 8 C 52 %
1807 30-03-2020 14:10:17 8.1 C 53 %
1808 30-03-2020 14:20:18 8.1 C 54 %
1809 30-03-2020 14:30:18 8.1 C 54 %
1810 30-03-2020 14:40:18 8.1 C 55 %
1811 30-03-2020 14:50:18 8.1 C 55 %
1812 30-03-2020 15:00:18 8.1 C 56 %
1813 30-03-2020 15:10:18 8.1 C 56 %
1814 30-03-2020 15:20:17 8.2 C 56 %
1815 30-03-2020 15:30:18 8.2 C 56 %
1816 30-03-2020 15:40:18 8.2 C 57 %
1817 30-03-2020 15:50:18 8.2 C 57 %
1818 30-03-2020 16:00:18 8.2 C 57 %
1819 30-03-2020 16:10:18 8.3 C 57 %
1820 30-03-2020 16:20:17 8.3 C 57 %
1821 30-03-2020 16:30:18 8.3 C 58 %
1822 30-03-2020 16:40:18 8.3 C 58 %
1823 30-03-2020 16:50:18 8.3 C 58 %
1824 30-03-2020 17:00:17 8.3 C 58 %
1825 30-03-2020 17:10:17 8.3 C 58 %
Sensor: Nr:Datum:Temp:Feuchte:
G-T/H 1826 30-03-2020 17:20:18 8.4 C 58 %
1827 30-03-2020 17:30:18 8.4 C 58 %
1828 30-03-2020 17:40:18 8.4 C 58 %
1829 30-03-2020 17:50:18 8.4 C 58 %
1830 30-03-2020 18:00:18 8.4 C 59 %
1831 30-03-2020 18:10:18 8.4 C 59 %
1832 30-03-2020 18:20:18 8.4 C 59 %
1833 30-03-2020 18:30:18 8.5 C 59 %
1834 30-03-2020 18:40:18 8.4 C 59 %
1835 30-03-2020 18:50:18 8.4 C 59 %
1836 30-03-2020 19:00:18 8.4 C 60 %
1837 30-03-2020 19:10:18 8.5 C 60 %
1838 30-03-2020 19:20:17 8.5 C 60 %
1839 30-03-2020 19:30:18 8.5 C 60 %
1840 30-03-2020 19:40:18 8.5 C 60 %
1841 30-03-2020 19:50:17 8.5 C 60 %
1842 30-03-2020 20:00:18 8.5 C 60 %
1843 30-03-2020 20:10:18 8.5 C 60 %
1844 30-03-2020 20:20:17 8.5 C 61 %
1845 30-03-2020 20:30:18 8.5 C 61 %
1846 30-03-2020 20:40:18 8.5 C 61 %
1847 30-03-2020 20:50:18 8.5 C 61 %
1848 30-03-2020 21:00:18 8.5 C 61 %
1849 30-03-2020 21:10:18 8.5 C 61 %
1850 30-03-2020 21:20:18 8.5 C 61 %
Sensor: Nr:Datum:Temp:Feuchte:
G-T/H 1851 30-03-2020 21:30:18 8.5 C 61 %
1852 30-03-2020 21:40:18 8.5 C 61 %
1853 30-03-2020 21:50:18 8.5 C 61 %
1854 30-03-2020 22:00:18 8.5 C 62 %
1855 30-03-2020 22:10:18 8.5 C 62 %
1856 30-03-2020 22:20:17 8.5 C 62 %
1857 30-03-2020 22:30:18 8.5 C 62 %
1858 30-03-2020 22:40:18 8.5 C 62 %
1859 30-03-2020 22:50:18 8.5 C 62 %
1860 30-03-2020 23:00:18 8.5 C 62 %
1861 30-03-2020 23:10:18 8.5 C 62 %
1862 30-03-2020 23:20:18 8.5 C 62 %
1863 30-03-2020 23:30:18 8.6 C 62 %
1864 30-03-2020 23:40:18 8.5 C 62 %
1865 30-03-2020 23:50:17 8.5 C 62 %
1866 31-03-2020 00:00:18 8.5 C 62 %
1867 31-03-2020 00:10:18 8.5 C 62 %
1868 31-03-2020 00:20:18 8.5 C 62 %
1869 31-03-2020 00:30:18 8.5 C 63 %
1870 31-03-2020 00:40:18 8.6 C 63 %
1871 31-03-2020 00:50:18 8.5 C 63 %
1872 31-03-2020 01:00:18 8.5 C 63 %
1873 31-03-2020 01:10:18 8.5 C 63 %
1874 31-03-2020 01:20:18 8.6 C 63 %
1875 31-03-2020 01:30:18 8.5 C 63 %
Sensor: Nr:Datum:Temp:Feuchte:
G-T/H 1876 31-03-2020 01:40:18 8.6 C 63 %
1877 31-03-2020 01:50:18 8.5 C 63 %
1878 31-03-2020 02:00:18 8.5 C 63 %
1879 31-03-2020 02:10:18 8.5 C 63 %
1880 31-03-2020 02:20:17 8.5 C 63 %
1881 31-03-2020 02:30:18 8.5 C 63 %
1882 31-03-2020 02:40:18 8.5 C 63 %
1883 31-03-2020 02:50:18 8.5 C 63 %
1884 31-03-2020 03:00:18 8.5 C 64 %
1885 31-03-2020 03:10:18 8.5 C 64 %
1886 31-03-2020 03:20:17 8.5 C 64 %
1887 31-03-2020 03:30:18 8.5 C 64 %
1888 31-03-2020 03:40:18 8.5 C 64 %
1889 31-03-2020 03:50:18 8.5 C 64 %
1890 31-03-2020 04:00:18 8.5 C 64 %
1891 31-03-2020 04:10:18 8.5 C 64 %
1892 31-03-2020 04:20:18 8.5 C 64 %
1893 31-03-2020 04:30:17 8.5 C 64 %
1894 31-03-2020 04:40:18 8.5 C 64 %
1895 31-03-2020 04:50:17 8.5 C 64 %
1896 31-03-2020 05:00:18 8.5 C 64 %
1897 31-03-2020 05:10:18 8.5 C 64 %
1898 31-03-2020 05:20:17 8.5 C 64 %
1899 31-03-2020 05:30:18 8.5 C 64 %
1900 31-03-2020 05:40:18 8.5 C 64 %
Sensor: Nr:Datum:Temp:Feuchte:
G-T/H 1901 31-03-2020 05:50:18 8.5 C 64 %
1902 31-03-2020 06:00:18 8.5 C 64 %
1903 31-03-2020 06:10:18 8.5 C 64 %
1904 31-03-2020 06:20:18 8.5 C 64 %
1905 31-03-2020 06:30:18 8.4 C 64 %
1906 31-03-2020 06:40:18 8.5 C 64 %
1907 31-03-2020 06:50:18 8.4 C 64 %
1908 31-03-2020 07:00:18 8.5 C 64 %
1909 31-03-2020 07:10:18 8.4 C 64 %
1910 31-03-2020 07:20:18 8.4 C 64 %
1911 31-03-2020 07:30:18 8.4 C 64 %
1912 31-03-2020 07:40:18 8.4 C 65 %
1913 31-03-2020 07:50:17 8.4 C 65 %
1914 31-03-2020 08:00:18 8.4 C 65 %
1915 31-03-2020 08:10:18 8.4 C 65 %
1916 31-03-2020 08:20:18 8.4 C 65 %
1917 31-03-2020 08:30:18 8.4 C 65 %
1918 31-03-2020 08:40:18 8.4 C 65 %
1919 31-03-2020 08:50:17 8.4 C 65 %
1920 31-03-2020 09:00:18 8.4 C 65 %
1921 31-03-2020 09:10:18 8.4 C 65 %
1922 31-03-2020 09:20:18 8.4 C 65 %
1923 31-03-2020 09:30:17 8.4 C 65 %
1924 31-03-2020 09:40:17 8.4 C 65 %
1925 31-03-2020 09:50:18 8.4 C 65 %
Sensor: Nr:Datum:Temp:Feuchte:
G-T/H 1926 31-03-2020 10:00:18 8.4 C 65 %
1927 31-03-2020 10:10:18 8.4 C 65 %
1928 31-03-2020 10:20:18 8.4 C 65 %
1929 31-03-2020 10:30:18 8.4 C 65 %
1930 31-03-2020 10:40:18 8.4 C 64 %
1931 31-03-2020 10:50:17 8.4 C 64 %
1932 31-03-2020 11:00:17 8.4 C 64 %
1933 31-03-2020 11:10:17 8.4 C 64 %
1934 31-03-2020 11:20:18 8.4 C 64 %
1935 31-03-2020 11:30:18 8.4 C 64 %
1936 31-03-2020 11:40:18 8.4 C 64 %
1937 31-03-2020 11:50:17 8.4 C 64 %
1938 31-03-2020 12:00:18 8.4 C 64 %
1939 31-03-2020 12:10:18 8.4 C 64 %
1940 31-03-2020 12:20:17 8.4 C 64 %
1941 31-03-2020 12:30:18 8.4 C 64 %
1942 31-03-2020 12:40:18 8.5 C 64 %
1943 31-03-2020 12:50:18 8.5 C 64 %
1944 31-03-2020 13:00:17 8.5 C 64 %
1945 31-03-2020 13:10:17 8.5 C 64 %
1946 31-03-2020 13:20:17 8.5 C 63 %
1947 31-03-2020 13:30:17 8.5 C 63 %
1948 31-03-2020 13:40:17 8.4 C 63 %
1949 31-03-2020 13:51:17 8.5 C 63 %
1950 31-03-2020 14:00:17 8.5 C 63 %
Sensor: Nr:Datum:Temp:Feuchte:
G-T/H 1951 31-03-2020 14:10:17 8.5 C 63 %
1952 31-03-2020 14:20:17 8.5 C 63 %
1953 31-03-2020 14:30:17 8.5 C 63 %
1954 31-03-2020 14:40:17 8.5 C 63 %
1955 31-03-2020 14:51:17 8.6 C 63 %
1956 31-03-2020 15:00:17 8.6 C 63 %
1957 31-03-2020 15:10:18 8.6 C 63 %
1958 31-03-2020 15:20:17 8.6 C 63 %
1959 31-03-2020 15:30:17 8.6 C 63 %
1960 31-03-2020 15:40:17 8.6 C 63 %
1961 31-03-2020 15:50:18 8.6 C 63 %
1962 31-03-2020 16:00:17 8.6 C 63 %
1963 31-03-2020 16:10:17 8.6 C 63 %
1964 31-03-2020 16:20:17 8.6 C 63 %
1965 31-03-2020 16:31:17 8.7 C 63 %
1966 31-03-2020 16:40:17 8.7 C 63 %
1967 31-03-2020 16:50:17 8.7 C 63 %
1968 31-03-2020 17:00:17 8.7 C 63 %
1969 31-03-2020 17:10:17 8.7 C 63 %
1970 31-03-2020 17:21:17 8.7 C 63 %
1971 31-03-2020 17:31:17 8.8 C 63 %
1972 31-03-2020 17:40:17 8.8 C 63 %
1973 31-03-2020 17:51:17 8.8 C 62 %
1974 31-03-2020 18:01:17 8.8 C 59 %
1975 31-03-2020 18:11:17 8.8 C 56 %
Sensor: Nr:Datum:Temp:Feuchte:
G-T/H 1976 31-03-2020 18:21:17 8.8 C 56 %
1977 31-03-2020 18:31:17 8.8 C 56 %
1978 31-03-2020 18:40:17 8.8 C 56 %
1979 31-03-2020 18:51:17 8.8 C 57 %
1980 31-03-2020 19:00:17 8.8 C 58 %
1981 31-03-2020 19:10:17 8.9 C 58 %
1982 31-03-2020 19:20:17 8.8 C 58 %
1983 31-03-2020 19:31:17 8.9 C 59 %
1984 31-03-2020 19:41:17 8.9 C 59 %
1985 31-03-2020 19:50:17 8.9 C 59 %
1986 31-03-2020 20:01:17 8.9 C 60 %
1987 31-03-2020 20:11:17 8.9 C 60 %
1988 31-03-2020 20:21:17 8.9 C 60 %
1989 31-03-2020 20:31:17 8.9 C 61 %
1990 31-03-2020 20:41:17 8.9 C 61 %
1991 31-03-2020 20:51:17 8.9 C 61 %
1992 31-03-2020 21:00:17 8.9 C 61 %
1993 31-03-2020 21:10:18 8.9 C 61 %
1994 31-03-2020 21:21:17 8.8 C 61 %
1995 31-03-2020 21:31:17 8.9 C 61 %
1996 31-03-2020 21:41:17 8.9 C 62 %
1997 31-03-2020 21:51:17 8.9 C 62 %
1998 31-03-2020 22:00:18 8.9 C 62 %
1999 31-03-2020 22:10:18 8.8 C 62 %
2000 31-03-2020 22:21:17 8.8 C 62 %
Sensor: Nr:Datum:Temp:Feuchte:
G-T/H 2001 31-03-2020 22:31:17 8.8 C 62 %
2002 31-03-2020 22:41:17 8.8 C 62 %
2003 31-03-2020 22:50:18 8.8 C 62 %
2004 31-03-2020 23:01:17 8.8 C 62 %
2005 31-03-2020 23:11:17 8.8 C 62 %
2006 31-03-2020 23:21:17 8.8 C 62 %
2007 31-03-2020 23:30:17 8.8 C 62 %
2008 31-03-2020 23:40:18 8.8 C 62 %
2009 31-03-2020 23:51:17 8.8 C 62 %

Legende:
   Min
   Max


Maximal/Minimal-Werte vom 18.03.2020 - 31.03.2020

Sensor Min Max Avg
Temp
(Aussen-T/F)
-4.7 °C
24-03-2020  06:00:17
25.8 °C
19-03-2020  13:19:18
6.41 °C
Feuchte
(Aussen-T/F)
20 %
18-03-2020  12:59:17
48 %
18-03-2020  05:09:18
30.15 %
Temp
(G-T/H)
7.4 °C
25-03-2020  10:00:18
13.9 °C
19-03-2020  16:59:17
9.79 °C
Feuchte
(G-T/H)
48 %
27-03-2020  17:50:18
72 %
18-03-2020  18:19:17
63.49 %

Die Daten stammen von einer Davis Vantage Pro 2 Wetter-Station und werden unter Linux mit der Software wview2wettercgi und aufbereitet. Alle Angaben erfolgen ohne Gewähr für ihre Vollständigkeit oder Richtigkeit.
Kontakt: Rainer Krienke krienke@uni-koblenz.de . Meine Webseiten an der Uni Koblenz oder privat.
Version: $Revision: 0.78 $